[[{"header":{"parameterUnit":"m.s-1","parameterCategory":1,"la1":30.6,"la2":29.2853,"lo1":-89.7004,"lo2":-87.6739,"dy":0.0162,"dx":0.0183,"nx":112,"ny":82,"refTime":"2026-05-08T12:00:00:Z","depth":0,"parameterNumber":2,"parameterNumberName":"U-component_of_WINDS"},"data":[0.0,0.0,0.0,0.0,0.0,0.0,0.0,0.0,0.0,0.0,0.0,0.0,0.0,0.0,0.0,0.0,0.0,0.0,0.0,0.0,0.0,0.0,0.0,0.0,0.0,0.0,0.0,0.0,0.0,0.0,0.0,0.0,0.0,0.0,0.0,0.0,0.0,0.0,0.0,0.0,0.0,0.0,0.0,0.0,0.0,0.0,0.0,0.0,0.0,0.0,0.0,0.0,0.0,0.0,0.0,0.0,0.0,0.0,0.0,0.0,0.0,0.0,0.0,0.0,0.0,0.0,0.0,0.0,0.0,0.0,0.0,0.0,0.0,0.0,0.0,0.0,0.0,0.0,0.0,0.0,0.0,0.0,0.0,0.0,0.0,0.0,0.0,0.0,0.0,0.0,1.3104,1.419,1.5849,1.6477,1.5493,1.5403,1.4694,1.3011,0.0,0.0,0.0,0.0,0.0,0.0,0.0,0.0,0.0,0.0,0.0,0.0,0.0,0.0,0.0,0.0,0.0,0.0,0.0,0.0,0.0,0.0,0.0,0.0,0.0,0.0,0.0,0.0,0.0,0.0,0.0,0.0,0.0,0.0,0.0,0.0,0.0,0.0,0.0,0.0,0.0,0.0,0.0,0.0,0.0,0.0,0.0,0.0,0.0,0.0,0.0,0.0,0.0,0.0,0.0,0.0,0.0,0.0,0.0,0.0,0.0,0.0,0.0,0.0,0.0,0.0,0.0,0.0,0.0,0.0,0.0,0.0,0.0,0.0,0.0,0.0,0.0,0.0,0.0,0.0,0.0,0.0,0.0,0.0,0.0,0.0,0.0,0.0,0.0,0.0,0.0,0.0,0.0,0.0,0.0,0.0,0.0,0.0,0.0,0.0,0.0,0.0,0.0,0.0,1.3565,1.5868,1.7606,1.7985,1.643,1.6304,1.5584,1.3906,0.0,0.0,0.0,0.0,0.0,0.0,0.0,0.0,0.0,0.0,0.0,0.0,0.0,0.0,0.0,0.0,0.0,0.0,0.0,0.0,0.0,0.0,0.0,0.0,0.0,0.0,0.0,0.0,0.0,0.0,0.0,0.0,0.0,0.0,0.0,0.0,0.0,0.0,0.0,0.0,0.0,0.0,0.0,0.0,0.0,0.0,0.0,0.0,0.0,0.0,0.0,0.0,0.0,0.0,0.0,0.0,0.0,0.0,0.0,0.0,0.0,0.0,0.0,0.0,0.0,0.0,0.0,0.0,0.0,0.0,0.0,0.0,0.0,0.0,0.0,0.0,0.0,0.0,0.0,0.0,0.0,0.0,0.0,0.0,0.0,0.0,0.0,0.0,0.0,0.0,0.0,0.0,0.0,0.0,0.0,0.0,0.0,0.0,0.0,0.0,0.0,0.0,0.0,1.3181,1.5022,1.5715,1.7292,1.7639,1.5978,1.5851,1.5134,1.345,1.2972,0.0,0.0,0.0,0.0,0.0,0.0,0.0,0.0,0.0,0.0,0.0,0.0,0.0,0.0,0.0,0.0,0.0,0.0,0.0,0.0,0.0,0.0,0.0,0.0,0.0,0.0,0.0,0.0,0.0,0.0,0.0,0.0,0.0,0.0,0.0,0.0,0.0,0.0,0.0,0.0,0.0,0.0,0.0,0.0,0.0,0.0,0.0,0.0,0.0,0.0,0.0,0.0,0.0,0.0,0.0,0.0,0.0,0.0,0.0,0.0,0.0,0.0,0.0,0.0,0.0,0.0,0.0,0.0,0.0,0.0,0.0,0.0,0.0,0.0,0.0,0.0,0.0,0.0,0.0,0.0,0.0,0.0,0.0,0.0,0.0,0.0,0.0,0.0,0.0,0.0,0.0,0.0,0.0,0.0,0.0,0.0,0.0,0.0,0.0,0.0,0.0,0.0,1.5086,1.6465,1.5599,1.7003,1.735,1.5719,1.5594,1.4805,1.2911,1.2805,0.0,0.0,0.0,0.0,0.0,0.0,0.0,0.0,0.0,0.0,0.0,0.0,0.0,0.0,0.0,0.0,0.0,0.0,0.0,0.0,0.0,0.0,0.0,0.0,0.0,0.0,0.0,0.0,0.0,0.0,0.0,0.0,0.0,0.0,0.0,0.0,0.0,0.0,0.0,0.0,0.0,0.0,0.0,0.0,0.0,0.0,0.0,0.0,0.0,0.0,0.0,0.0,0.0,0.0,0.0,0.0,0.0,0.0,0.0,0.0,0.0,0.0,0.0,0.0,0.0,0.0,0.0,0.0,0.0,0.0,0.0,0.0,0.0,0.0,0.0,0.0,0.0,0.0,0.0,0.0,0.0,0.0,0.0,0.0,0.0,0.0,0.0,0.0,0.0,0.0,0.0,0.0,0.0,0.0,0.0,0.0,0.0,0.0,0.0,0.0,0.0,0.0,1.5586,1.7311,1.6503,1.7914,1.8223,1.656,1.6474,1.545,1.2959,1.281,0.0,0.0,0.0,0.0,0.0,0.0,0.0,0.0,0.0,0.0,0.0,0.0,0.0,0.0,0.0,0.0,0.0,0.0,0.0,0.0,0.0,0.0,0.0,0.0,0.0,0.0,0.0,0.0,0.0,0.0,0.0,0.0,0.0,0.0,0.0,0.0,0.0,0.0,0.0,0.0,0.0,0.0,0.0,0.0,0.0,0.0,0.0,0.0,0.0,0.0,0.0,0.0,0.0,0.0,0.0,0.0,0.0,0.0,0.0,0.0,0.0,0.0,0.0,0.0,0.0,0.0,0.0,0.0,0.0,0.0,0.0,0.0,0.0,0.0,0.0,0.0,0.0,0.0,0.0,0.0,0.0,0.0,0.0,0.0,0.0,0.0,0.0,0.0,0.0,0.0,0.0,0.0,0.0,0.0,0.0,0.0,0.0,0.0,0.0,0.0,0.0,0.0,1.5624,1.7395,0.0,1.7998,1.8339,1.6697,1.6585,1.5505,1.2965,0.0,0.0,0.0,0.0,0.0,0.0,0.0,0.0,0.0,0.0,0.0,0.0,0.0,0.0,0.0,0.0,0.0,0.0,0.0,0.0,0.0,0.0,0.0,0.0,0.0,0.0,0.0,0.0,0.0,0.0,0.0,0.0,0.0,0.0,0.0,0.0,0.0,0.0,0.0,0.0,0.0,0.0,0.0,0.0,0.0,0.0,0.0,0.0,0.0,0.0,0.0,0.0,0.0,0.0,0.0,0.0,0.0,0.0,0.0,0.0,0.0,0.0,0.0,0.0,0.0,0.0,0.0,0.0,0.0,0.0,0.0,0.0,0.0,0.0,0.0,0.0,0.0,0.0,0.0,0.0,0.0,0.0,0.0,0.0,0.0,0.0,0.0,0.0,0.0,0.0,0.0,0.0,0.0,0.0,0.0,0.0,0.0,0.0,0.0,0.0,0.0,0.0,1.2868,1.5772,1.7594,0.0,1.8564,1.8763,1.7156,1.7001,1.5811,1.298,0.0,0.0,0.0,0.0,0.0,0.0,0.0,0.0,0.0,0.0,0.0,0.0,0.0,0.0,0.0,0.0,0.0,0.0,0.0,0.0,0.0,0.0,0.0,0.0,0.0,0.0,0.0,0.0,0.0,0.0,0.0,0.0,0.0,0.0,0.0,0.0,0.0,0.0,0.0,0.0,0.0,0.0,0.0,0.0,0.0,0.0,0.0,0.0,0.0,0.0,0.0,0.0,0.0,0.0,0.0,0.0,0.0,0.0,0.0,0.0,0.0,0.0,0.0,0.0,0.0,0.0,0.0,0.0,0.0,0.0,0.0,0.0,0.0,0.0,0.0,0.0,0.0,0.0,0.0,0.0,0.0,0.0,0.0,0.0,0.0,0.0,0.0,0.0,0.0,0.0,0.0,0.0,0.0,0.0,0.0,0.0,0.0,0.0,0.0,0.0,0.0,0.0,1.369,1.6118,1.8024,1.8905,1.9776,1.9649,1.8037,1.7895,1.6445,0.0,0.0,0.0,0.0,0.0,0.0,0.0,0.0,0.0,0.0,0.0,0.0,0.0,0.0,0.0,0.0,0.0,0.0,0.0,0.0,0.0,0.0,0.0,0.0,0.0,0.0,0.0,0.0,0.0,0.0,0.0,0.0,0.0,0.0,0.0,0.0,0.0,0.0,0.0,0.0,0.0,0.0,0.0,0.0,0.0,0.0,0.0,0.0,0.0,0.0,0.0,0.0,0.0,0.0,0.0,0.0,0.0,0.0,0.0,0.0,0.0,0.0,0.0,0.0,0.0,0.0,0.0,0.0,0.0,0.0,0.0,0.0,0.0,0.0,0.0,0.0,0.0,0.0,0.0,0.0,0.0,0.0,0.0,0.0,0.0,0.0,0.0,0.0,0.0,0.0,0.0,0.0,0.0,0.0,0.0,0.0,0.0,0.0,0.0,0.0,0.0,0.0,0.0,1.3613,1.6118,1.805,1.8963,1.9857,1.9709,1.8038,1.7945,1.6508,1.3095,0.0,0.0,0.0,0.0,0.0,0.0,0.0,0.0,0.0,0.0,0.0,0.0,0.0,0.0,0.0,0.0,0.0,0.0,0.0,0.0,0.0,0.0,0.0,0.0,0.0,0.0,0.0,0.0,0.0,0.0,0.0,0.0,0.0,0.0,0.0,0.0,0.0,0.0,0.0,0.0,0.0,0.0,0.0,0.0,0.0,0.0,0.0,0.0,0.0,0.0,0.0,0.0,0.0,0.0,0.0,0.0,0.0,0.0,0.0,0.0,0.0,0.0,0.0,0.0,0.0,0.0,0.0,0.0,0.0,0.0,0.0,0.0,0.0,0.0,0.0,0.0,0.0,0.0,0.0,0.0,0.0,0.0,0.0,0.0,0.0,0.0,0.0,0.0,0.0,0.0,0.0,0.0,0.0,0.0,0.0,0.0,0.0,0.0,0.0,0.0,0.0,0.0,1.4613,1.6849,1.857,1.9516,2.0096,1.9868,1.8539,1.8166,1.6688,1.357,0.0,0.0,0.0,0.0,0.0,0.0,0.0,0.0,0.0,0.0,0.0,0.0,0.0,0.0,0.0,0.0,0.0,0.0,0.0,0.0,0.0,0.0,0.0,0.0,0.0,0.0,0.0,0.0,0.0,0.0,0.0,0.0,0.0,0.0,0.0,0.0,0.0,0.0,0.0,0.0,0.0,0.0,0.0,0.0,0.0,0.0,0.0,0.0,0.0,0.0,0.0,0.0,0.0,0.0,0.0,0.0,0.0,0.0,0.0,0.0,0.0,0.0,0.0,0.0,0.0,0.0,0.0,0.0,0.0,0.0,0.0,0.0,0.0,0.0,0.0,0.0,0.0,0.0,0.0,0.0,0.0,0.0,0.0,0.0,0.0,0.0,0.0,0.0,0.0,0.0,0.0,0.0,0.0,0.0,0.0,0.0,0.0,0.0,0.0,0.0,0.0,0.0,1.6176,1.7953,1.9367,2.0296,2.0399,2.0069,1.9278,1.8452,1.6914,1.4375,0.0,0.0,0.0,0.0,0.0,0.0,0.0,0.0,0.0,0.0,0.0,0.0,0.0,0.0,0.0,0.0,0.0,0.0,0.0,0.0,0.0,0.0,0.0,0.0,0.0,0.0,0.0,0.0,0.0,0.0,0.0,0.0,0.0,0.0,0.0,0.0,0.0,0.0,0.0,0.0,0.0,0.0,0.0,0.0,0.0,0.0,0.0,0.0,0.0,0.0,0.0,0.0,0.0,0.0,0.0,0.0,0.0,0.0,0.0,0.0,1.2901,1.2906,0.0,0.0,0.0,0.0,0.0,0.0,0.0,0.0,0.0,0.0,0.0,0.0,0.0,0.0,0.0,0.0,0.0,0.0,0.0,0.0,0.0,0.0,0.0,0.0,0.0,0.0,0.0,0.0,0.0,0.0,0.0,0.0,0.0,0.0,0.0,0.0,0.0,0.0,0.0,0.0,1.6176,1.7953,1.9367,2.0296,2.0399,2.0069,1.9278,1.8452,1.7187,1.5234,1.291,0.0,0.0,0.0,0.0,0.0,0.0,0.0,0.0,0.0,0.0,0.0,0.0,0.0,0.0,0.0,0.0,0.0,0.0,0.0,0.0,0.0,0.0,0.0,0.0,0.0,0.0,0.0,0.0,0.0,0.0,0.0,0.0,0.0,0.0,0.0,0.0,0.0,0.0,0.0,0.0,0.0,0.0,0.0,0.0,0.0,0.0,0.0,0.0,0.0,0.0,0.0,0.0,0.0,0.0,0.0,0.0,0.0,0.0,0.0,1.5138,1.4676,0.0,0.0,0.0,0.0,0.0,0.0,0.0,0.0,0.0,0.0,0.0,0.0,0.0,0.0,0.0,0.0,0.0,0.0,0.0,0.0,0.0,0.0,0.0,0.0,0.0,0.0,0.0,0.0,0.0,0.0,0.0,0.0,0.0,0.0,0.0,0.0,0.0,0.0,0.0,0.0,1.6792,1.8561,1.9822,2.0334,2.0399,2.0249,1.9865,1.9097,1.7871,1.6133,1.4394,0.0,0.0,0.0,0.0,0.0,0.0,0.0,0.0,0.0,0.0,0.0,0.0,0.0,0.0,0.0,0.0,0.0,0.0,0.0,0.0,0.0,0.0,0.0,0.0,0.0,0.0,0.0,0.0,0.0,0.0,0.0,0.0,0.0,0.0,0.0,0.0,0.0,0.0,0.0,0.0,0.0,0.0,0.0,0.0,0.0,0.0,0.0,0.0,0.0,0.0,0.0,0.0,0.0,1.8588,1.733,1.5151,1.8669,1.96,1.833,1.7811,1.6946,1.5868,1.6042,0.0,0.0,0.0,0.0,0.0,0.0,0.0,0.0,0.0,0.0,0.0,0.0,0.0,0.0,0.0,0.0,0.0,0.0,0.0,0.0,0.0,0.0,1.8138,1.8138,1.8138,1.7773,1.6388,0.0,0.0,0.0,0.0,0.0,0.0,0.0,0.0,0.0,0.0,0.0,1.7503,1.9215,2.0342,2.0392,2.0399,2.0424,2.0492,1.9761,1.8613,1.7031,1.5977,1.4707,0.0,0.0,0.0,0.0,0.0,0.0,0.0,0.0,0.0,0.0,0.0,0.0,0.0,0.0,0.0,0.0,0.0,0.0,0.0,0.0,0.0,0.0,0.0,0.0,0.0,0.0,0.0,0.0,0.0,0.0,0.0,0.0,0.9221,0.9643,0.0,0.0,0.0,0.0,0.0,0.0,0.0,0.0,0.0,0.0,0.0,0.0,0.0,1.3043,1.9554,2.0081,2.0927,2.212,2.212,2.1196,1.9477,2.0042,2.0562,2.1043,2.1696,0.0,1.8568,1.9311,0.0,0.0,0.0,0.0,0.0,0.0,0.0,0.0,0.0,0.0,0.0,0.0,0.0,0.0,0.0,0.0,0.0,0.0,0.0,0.0,0.0,0.0,1.9965,1.9965,1.9965,1.9908,1.9677,1.8446,1.7119,1.6311,1.5465,1.4593,0.0,0.0,0.0,0.0,0.0,0.0,1.7587,1.9215,2.0342,2.0392,2.0399,2.0424,2.0492,1.9761,1.8887,1.7891,1.6309,1.4961,1.3984,1.3164,0.0,0.0,0.0,0.0,0.0,0.0,0.0,0.0,0.0,0.0,0.0,0.0,0.0,0.0,0.0,0.0,0.0,0.0,0.0,0.0,0.0,0.0,0.0,0.0,0.0,0.0,0.0,0.0,0.0,0.8713,1.0378,1.2187,1.2407,1.204,0.0,0.0,0.0,0.0,0.0,0.0,0.0,0.0,0.0,1.7568,1.5283,1.6065,2.0265,2.0312,2.0677,2.1408,2.235,2.2408,2.1716,2.1716,2.2408,2.3658,2.4043,2.3562,2.2466,2.1408,2.0062,1.86,0.0,0.0,0.0,0.0,1.765,1.808,1.808,1.808,1.8138,1.8504,0.0,0.0,0.0,0.0,0.0,0.0,0.0,1.9465,2.08,2.1408,2.1716,2.1716,2.1716,2.1716,2.1716,2.0716,1.9446,1.8164,1.7196,1.6349,1.5503,1.4657,0.0,0.0,0.0,1.7491,1.8318,1.9523,2.0342,2.0392,2.0399,2.0424,2.0492,2.021,1.9668,1.8789,1.7559,1.6465,1.5605,1.4277,1.3398,0.0,0.0,0.0,0.0,0.0,0.0,0.0,0.0,0.0,0.0,0.0,0.0,0.0,0.0,0.0,0.0,0.0,0.0,0.0,0.0,0.0,0.0,0.0,0.0,0.0,0.0,0.0,0.0,0.9661,1.1508,1.4176,1.4488,1.4176,0.0,0.0,0.0,0.0,0.0,0.0,1.9587,1.9176,1.9021,1.9344,1.8467,1.9154,2.1554,2.1573,2.1573,2.1592,2.2831,2.3447,2.3447,2.3447,2.412,2.5303,2.5303,2.5303,2.513,2.3024,2.1677,2.0889,2.0227,1.9977,1.9977,1.9977,2.0381,2.0946,2.0946,2.0946,2.0985,2.1196,2.0677,1.9804,1.8946,0.0,0.0,0.0,0.0,2.1235,2.2485,2.2793,2.2793,2.2793,2.2793,2.2793,2.2793,2.2293,2.1408,1.9935,1.878,1.7837,1.7241,1.6426,0.0,1.6715,1.751,1.828,1.8915,1.9754,2.0342,2.0392,2.0399,2.0424,2.0492,2.0562,2.0137,1.9043,1.8359,1.7519,1.6406,1.5117,1.4336,1.4102,0.0,0.0,0.0,0.0,0.0,0.0,0.0,0.0,0.0,0.0,0.0,0.0,0.0,0.0,0.0,0.0,0.0,0.0,0.0,0.0,0.0,0.0,0.0,0.0,0.0,0.0,0.0,0.0,0.0,1.4359,1.4488,0.0,0.0,0.0,0.0,1.4378,1.7326,1.9188,1.9497,2.0593,2.0126,1.77,1.9068,2.1531,2.5014,2.5053,2.5053,2.5053,2.513,2.5168,2.5168,2.5168,2.5226,2.5303,2.5303,2.5303,2.5226,2.4332,2.3456,2.2658,2.262,2.2601,2.2601,2.2601,2.2639,2.2658,2.2658,2.2658,2.2812,2.3648,2.3321,2.2447,2.1562,2.1273,0.0,0.0,2.2043,2.2677,2.2774,2.2793,2.2793,2.2793,2.2793,2.2793,2.2793,2.2774,2.2466,2.1543,2.005,1.8915,1.8876,0.0,1.758,1.7619,1.8376,1.8953,1.8992,1.9754,2.0342,2.0392,2.0399,2.0424,2.0492,2.0562,1.9863,1.8164,1.8027,1.7246,1.5547,1.5371,1.4941,1.4121,1.3223,0.0,0.0,0.0,0.0,0.0,0.0,0.0,0.0,0.0,0.0,0.0,0.0,0.0,0.0,0.0,0.0,0.0,0.0,0.0,0.0,0.0,0.0,0.0,0.0,0.0,0.0,0.0,0.0,1.4451,1.5716,0.0,1.689,1.5863,1.5423,1.5991,1.9069,2.0921,2.0972,2.1495,2.1241,2.0054,2.1135,2.1857,2.2073,2.4226,2.5303,2.5303,2.5303,2.5303,2.5303,2.5303,2.5909,2.6948,2.6563,2.6802,2.7437,2.6813,2.5399,2.3648,2.3648,2.3648,2.3648,2.3648,2.3966,2.4409,2.4409,2.4409,2.437,2.4168,2.3898,2.3475,2.2601,2.2331,2.2447,2.3032,2.3398,2.3764,2.4274,2.4409,2.4409,2.4409,2.4409,2.4409,2.4409,2.4005,2.3552,2.3225,2.1773,2.06,2.06,1.9927,1.9369,1.9369,1.9638,1.9831,1.9831,2.0119,2.0342,2.0392,2.0399,2.0424,2.0492,2.0562,2.0098,1.8906,1.8301,1.7461,1.6289,1.5703,1.5254,1.4941,1.4102,1.3105,0.0,0.0,0.0,0.0,0.0,0.0,0.0,0.0,0.0,0.0,0.0,0.0,0.0,0.0,0.0,0.0,0.0,0.0,0.0,0.0,0.0,0.0,0.0,0.0,0.0,0.0,1.5013,1.5276,1.6798,1.7697,1.733,1.7055,1.7128,1.766,1.973,2.1454,2.2538,2.2181,2.1566,2.0824,2.2531,2.3005,2.1996,2.4188,2.5303,2.5303,2.5303,2.5899,2.6995,2.6226,2.6717,2.814,2.7563,2.7736,2.8409,2.8044,2.6909,2.538,2.538,2.538,2.538,2.538,2.5717,2.6178,2.6178,2.6178,2.6101,2.5563,2.538,2.5265,2.4697,2.4524,2.4639,2.5226,2.538,2.5495,2.6043,2.5967,2.5736,2.5736,2.5514,2.5303,2.5303,2.4889,2.4505,2.4505,2.312,2.1947,2.1947,2.1504,2.1139,2.1139,2.1139,2.1043,2.0735,2.0696,2.0623,2.0386,2.0392,2.0439,2.0494,2.0562,2.0234,1.9355,1.8477,1.7617,1.6738,1.5859,1.5391,1.5391,1.4531,1.3418,1.2012,0.0,0.0,0.0,0.0,0.0,0.0,0.0,0.0,0.0,0.0,0.0,0.0,0.0,0.0,0.0,0.0,0.0,0.0,0.0,0.0,0.0,0.0,0.0,1.4359,1.5233,1.6059,1.6835,1.7642,1.8151,1.8151,1.7458,1.766,1.9179,1.9415,2.0831,2.4025,2.2721,2.1226,1.9792,2.3145,2.5076,2.5293,2.5303,2.5341,2.5457,2.538,2.711,3.0263,2.8033,2.7629,2.8668,2.8159,2.7948,2.7986,2.7986,2.7986,2.7967,2.7909,2.789,2.789,2.789,2.789,2.789,2.789,2.789,2.789,2.789,2.789,2.789,2.789,2.789,2.789,2.789,2.789,2.789,2.789,2.7274,2.664,2.6621,2.5967,2.5322,2.5303,2.5303,2.5303,2.5303,2.3985,2.287,2.2831,2.2812,2.2793,2.2793,2.2793,0.0,2.1658,2.1543,2.124,2.0437,2.0396,2.0443,2.0497,2.0562,2.0234,1.9355,1.8516,1.7656,1.6777,1.5937,1.5469,1.5449,1.457,1.291,1.043,0.0,0.0,0.0,0.0,0.0,0.0,0.0,0.0,0.0,0.0,0.0,0.0,0.0,0.0,0.0,0.0,0.0,0.0,0.0,0.0,0.0,1.5423,1.5496,1.4616,1.6206,1.7527,1.7734,1.8482,1.8959,1.8959,1.9473,1.9656,1.9341,2.151,2.3254,2.4153,2.3768,2.3346,2.2958,2.3895,2.4629,2.5076,2.5231,2.6533,2.8975,2.7322,2.7456,2.9129,2.8121,2.814,2.8986,2.8832,2.9121,2.9717,2.9717,2.9717,2.9602,2.8371,2.789,2.789,2.789,2.789,2.789,2.789,2.789,2.789,2.789,2.789,2.789,2.789,2.789,2.789,2.789,2.789,2.789,2.789,2.7717,2.7371,2.6755,2.6428,2.6082,2.5437,2.5303,2.5303,2.5303,2.4918,2.4428,2.3841,2.3225,2.2793,2.2793,2.2793,2.2716,2.2466,2.2447,2.2125,2.1324,2.1255,2.1041,2.0472,2.0486,2.0173,1.9355,1.9082,1.8555,1.7676,1.7402,1.6992,1.6348,1.5488,1.4394,0.0,0.0,0.0,0.0,0.0,0.0,0.0,0.0,0.0,0.0,0.0,0.0,0.0,0.0,0.0,0.0,0.0,0.0,0.0,0.0,0.0,0.0,1.7458,1.7472,1.6188,1.7215,1.8225,1.8555,1.9014,1.9305,1.9305,1.9858,2.0262,2.0352,2.274,2.419,2.419,2.419,2.419,2.419,2.419,2.506,2.6843,2.636,2.7191,2.92,2.8114,2.821,2.9308,2.866,2.8818,2.961,2.964,2.9929,3.0398,3.0398,3.0398,3.0302,0.0,0.0,0.0,0.0,2.8948,2.8948,2.8948,2.8948,2.8948,2.8948,2.8948,2.8948,2.8948,2.8948,2.8948,2.8948,2.8948,2.8948,2.8948,2.8679,2.8275,2.7775,2.739,2.7005,2.6505,2.6101,2.5851,2.5851,2.5553,0.0,2.4678,2.4178,2.3851,2.3851,2.3851,2.3735,2.3398,2.334,2.3022,2.2188,2.1806,2.1411,2.0988,2.0666,0.0,0.0,0.0,1.8906,1.8047,1.8008,0.0,0.0,0.0,0.0,0.0,0.0,0.0,0.0,1.3499,1.4231,0.0,0.0,0.0,0.0,0.0,0.0,0.0,0.0,0.0,0.0,0.0,0.0,0.0,0.0,0.0,0.0,1.8372,1.9051,1.8335,1.8243,1.85,1.9216,1.9305,1.9341,1.9418,1.9455,2.0131,2.1692,2.329,2.419,2.419,0.0,0.0,0.0,0.0,2.5758,2.905,2.7808,2.7396,2.7831,2.8222,2.9032,3.0152,2.9423,2.9545,3.0304,3.0367,3.0398,3.0398,3.0398,3.0398,3.0398,3.0398,3.0398,3.0398,3.0398,3.0398,3.0398,3.0398,0.0,0.0,3.0398,3.0398,3.0398,3.0398,3.0398,3.0398,3.0398,3.0398,3.0398,3.0398,2.9833,2.9217,2.9121,2.8544,2.8005,2.7909,2.7294,2.6717,2.6621,2.5986,2.5418,2.5322,2.5303,2.5303,2.5303,2.5303,2.5043,2.4341,2.4245,2.3898,2.3039,2.2312,0.0,2.183,2.109,2.0627,2.0632,1.9881,1.9082,1.832,1.8281,1.8242,1.8144,1.8144,1.7773,1.6992,1.7765,1.7799,1.7128,1.6927,1.6856,0.0,0.0,0.0,0.0,0.0,0.0,0.0,0.0,0.0,0.0,0.0,0.0,0.0,0.0,0.0,1.8353,1.9087,1.925,1.9087,1.9069,1.9124,1.9271,1.9305,1.9546,2.0207,2.0464,2.0923,2.1748,2.329,2.419,2.419,2.419,2.419,2.419,2.419,2.5146,2.7117,2.6656,2.732,2.9119,2.8621,0.0,2.995,2.9851,2.997,3.0228,3.0355,3.0398,3.0398,3.0398,3.0398,3.0398,3.0398,3.0398,3.0398,3.0398,3.0398,3.0398,3.0398,3.0398,3.0398,3.0398,3.0398,3.0398,3.0398,3.0398,0.0,3.0398,3.0398,3.0398,3.0398,3.0275,2.9967,2.9275,2.8967,2.8679,2.8044,2.7775,2.7448,2.6736,2.6467,2.614,2.5418,2.5303,2.5303,2.5303,2.5303,2.5245,2.5101,2.5082,2.4755,2.3937,2.3715,2.3328,2.2655,2.1861,2.1407,2.1457,2.0714,2.0215,2.0098,2.0098,1.9766,1.9062,1.9043,1.8965,1.8809,1.8964,1.9297,1.9734,1.8371,1.81,0.0,0.0,0.0,0.0,0.0,0.0,0.0,0.0,0.0,0.0,0.0,1.3233,1.4304,0.0,1.7436,1.9032,1.9305,1.9305,1.9305,1.9305,1.9305,1.9305,1.9305,1.962,2.0411,2.1015,2.1584,2.217,2.3437,2.419,2.419,2.419,2.419,2.419,2.4722,2.566,2.7043,2.7081,2.7866,2.9397,2.9083,2.9212,2.975,2.9848,2.9977,3.0104,3.024,3.0292,3.0299,3.0336,3.0367,3.0398,3.0398,3.0398,3.0398,3.0398,3.0398,3.0398,3.0398,3.0398,3.0398,3.0398,3.0398,3.0398,3.0398,3.0398,3.0398,3.0398,3.0398,3.0398,3.0398,3.0398,3.0294,2.9852,2.941,2.9102,2.914,2.8486,2.789,2.7852,2.7178,2.6467,2.6024,2.5591,2.5303,2.5303,2.5303,2.5303,2.5303,2.5303,2.5159,2.4736,2.4341,2.3927,2.3482,2.2349,2.1654,2.1699,2.0939,2.0524,2.0602,2.0602,2.0407,1.9958,1.9958,1.9958,1.9958,2.0353,2.073,2.1101,2.0642,2.0438,0.0,0.0,0.0,0.0,0.0,0.0,0.0,0.0,1.4329,1.4477,1.4732,1.4983,1.5117,1.7229,1.902,1.924,1.9277,1.9277,1.9289,1.9305,1.9305,1.9305,1.9305,1.9675,2.0666,2.1473,2.2225,2.285,2.3712,2.419,2.419,2.419,2.43,2.4502,2.5291,2.6323,2.7546,2.7832,2.8373,2.923,2.9351,2.9434,2.9532,2.9662,2.9786,2.9905,3.0064,3.0152,3.0174,3.0254,3.0336,3.0398,3.0398,3.0398,3.0398,3.0398,3.0398,3.0398,3.0398,3.0398,3.0398,3.0398,3.0398,3.0398,3.0398,3.0398,3.0398,3.0398,3.0398,3.0398,3.0398,3.0398,3.0398,3.0398,2.9871,2.9544,3.0256,2.9352,2.8486,2.8794,2.7775,2.6755,2.6409,2.5774,2.5303,2.5303,2.5303,2.5303,2.5303,2.5303,2.5303,2.5303,2.4716,2.4264,2.41,2.2917,2.2105,2.193,2.1318,2.1006,2.1062,2.1062,2.1062,2.1062,2.1062,2.1062,2.1062,2.1699,2.1997,2.1958,2.2759,2.2666,1.1343,1.1765,1.2321,1.2376,1.2862,1.3361,0.0,0.0,1.5036,1.5163,1.5868,1.666,1.7385,1.7612,1.8039,1.9041,1.9153,1.9152,1.9274,1.9305,1.9305,1.9305,1.9305,1.9929,2.1492,2.2171,2.2923,2.3933,2.4135,2.419,2.419,2.419,2.463,2.5585,2.5511,2.6193,2.7754,2.7791,2.8235,2.9021,2.9044,2.9112,2.9265,2.9373,2.9494,2.957,2.9817,2.9962,3.0028,3.0169,3.0286,3.0398,3.0398,3.0398,3.0398,3.0398,3.0398,3.0398,3.0398,3.0398,3.0398,3.0398,3.0398,3.0398,3.0398,3.0398,3.0398,3.0398,3.0398,3.0398,3.0398,3.0398,3.0398,3.0398,3.0321,3.0294,3.0379,3.0244,2.9717,2.8313,2.7871,2.7255,2.5707,2.536,2.5303,2.5303,2.5303,2.5303,2.5303,2.5303,2.5303,2.5303,2.5207,2.4889,2.4168,2.3934,2.3523,2.2813,2.2675,2.2671,2.2726,2.2726,2.2726,2.2726,2.2726,2.2726,2.2726,2.2752,2.2771,2.2802,2.3593,2.3539,1.2322,1.3295,1.4195,0.0,1.4536,1.5323,1.495,1.5592,1.6291,1.6395,1.7151,1.7914,1.8253,1.8268,1.8407,0.0,1.9067,1.9184,1.9292,1.9305,1.9528,2.0152,2.0097,2.0464,2.1692,2.2299,2.3033,2.4116,2.419,2.419,2.419,2.463,2.5089,2.5548,2.6355,2.7108,2.7787,2.8264,2.8686,2.8994,2.8994,2.9062,2.9152,2.9228,2.9355,2.9513,2.9698,2.9851,2.9958,3.0133,3.0279,3.0398,3.0398,3.0717,3.1102,3.059,3.0398,3.0398,3.0398,3.0398,3.0398,3.0398,3.0398,3.0398,3.0398,3.0398,3.0398,3.0398,3.0398,3.0398,3.0398,3.0398,3.0398,3.0398,3.0006,2.9775,3.0294,2.964,2.8871,2.864,2.7813,2.6909,2.6178,2.563,2.5303,2.5303,2.5303,2.5303,2.5303,2.5303,2.5303,2.5303,2.5303,2.5149,2.4832,2.4378,2.3962,2.362,2.3171,2.2908,2.2946,2.2946,2.2946,2.2946,2.2946,2.2946,2.2946,2.3415,2.3647,2.3625,2.4463,2.4656,1.319,0.0,0.0,1.5112,1.5991,1.6826,1.6384,1.6855,1.7394,1.7453,1.8025,1.8508,1.8508,1.8605,1.8662,1.8662,1.8878,1.9392,2.0401,2.0528,2.0711,2.1204,2.1185,2.1385,2.2043,2.2483,2.3125,2.4116,2.419,2.43,2.452,2.509,2.5605,2.6064,2.7181,2.7897,2.8136,2.8723,2.8994,2.8994,2.8994,2.904,2.9067,2.9138,2.9228,2.9372,2.9513,2.9697,2.9883,3.0308,3.0598,3.0794,3.1006,3.1487,3.1948,3.1333,3.0948,3.0717,3.0475,3.0398,3.0398,3.0398,3.0398,3.0398,3.0398,3.0398,3.0398,3.0398,3.0398,3.0398,3.0398,3.0398,3.0398,3.0398,2.9929,2.9621,3.0275,2.9448,2.8698,2.9025,2.8121,2.714,2.6678,2.6082,2.5572,2.5341,2.5303,2.5303,2.5303,2.5303,2.5303,2.5303,2.5303,2.5303,2.5303,2.4764,2.4436,2.4433,2.389,2.3559,2.3562,2.3562,2.3562,2.3562,2.3562,2.3562,2.3562,2.4196,2.4488,2.4452,2.5081,2.5351,0.0,0.0,1.5479,1.6165,1.6965,1.7602,1.7721,1.7915,1.8078,1.8176,1.8246,1.831,1.831,1.831,1.8328,1.8325,1.8487,1.9804,2.3195,2.3671,2.3288,2.2274,2.2497,2.2756,0.0,2.2942,2.3327,2.4135,2.419,2.4538,2.5329,2.5403,2.6119,2.7677,2.7769,2.8172,2.8957,2.8975,2.8994,2.8994,2.8994,2.8994,2.9017,2.9017,2.9017,2.904,2.9228,2.9475,2.9787,3.0842,3.1417,3.1737,3.2526,3.2833,3.2852,3.2833,3.2333,3.1545,3.0698,3.0398,3.0398,3.0398,3.0398,3.0398,3.0398,3.0398,3.0398,3.0398,3.0398,3.0398,3.0398,3.0398,3.0398,3.0398,3.0379,3.0359,3.0379,3.0359,3.0083,2.9256,2.9063,2.8506,2.689,2.6582,2.6274,2.5418,2.5303,2.5303,2.5303,2.5303,2.5303,2.5303,2.5303,2.5303,2.5303,2.5284,2.5264,2.5255,2.5236,2.5236,2.5236,2.5236,2.5236,2.5236,2.5236,2.5236,2.5236,2.5255,2.5274,2.5255,2.5293,2.5303,1.3249,0.0,1.5658,1.5977,1.6746,1.7455,1.7572,1.7749,1.7917,1.7939,1.7944,1.7971,1.7971,1.7971,1.7971,1.7966,1.892,2.0489,2.2858,2.2588,2.2321,2.2807,2.2725,0.0,0.0,0.0,0.0,2.4171,2.4685,2.5127,2.5403,2.6392,2.7236,2.7769,2.8319,2.8741,2.8994,2.8994,2.8994,2.8994,2.8994,2.8994,2.8994,2.8994,2.9287,2.9806,2.9995,3.0514,3.1261,3.1767,3.2124,3.2398,3.2656,3.3144,3.3632,3.3102,3.309,3.316,3.1756,3.0891,3.0398,3.0398,3.0398,3.0398,3.0398,3.0398,3.0398,3.0398,3.0398,3.0398,3.0398,3.0398,3.0398,3.0398,3.0398,3.0398,3.0398,2.9948,2.9448,2.9159,2.8659,2.8121,2.7563,2.6986,2.6294,2.5418,2.5303,2.5303,2.5303,2.5303,2.5303,2.5303,2.5303,2.5303,2.5303,2.5303,2.5303,2.5303,2.5303,2.5303,2.5303,2.5303,2.5303,2.5303,2.5303,2.5303,2.5303,2.5303,2.5303,2.5303,2.5303,2.5303,1.3539,1.463,1.5661,1.6038,1.6662,1.7183,1.7344,1.7502,1.7591,1.7339,1.7311,1.7311,1.7334,1.7356,1.7479,1.7738,1.8958,2.0387,2.1811,2.1888,2.2136,2.3063,2.2954,2.3067,0.0,0.0,0.0,2.463,2.5127,2.566,2.6248,2.7236,2.7934,2.8227,2.8741,2.8994,2.8994,2.8994,2.8994,2.8994,2.9287,2.9439,2.9457,2.9732,3.0136,3.0632,3.0817,3.1284,3.1967,3.2427,3.2751,3.2966,3.3318,3.3856,3.4393,3.3935,3.3953,3.3949,3.2275,3.1333,3.0814,3.0494,3.0398,3.0398,3.0398,3.0398,3.0398,3.0398,3.0398,3.0398,3.0398,3.0398,3.0398,3.0398,3.0398,3.0398,3.0398,2.9967,2.9563,2.9563,2.914,2.8698,2.8371,2.7371,2.6409,2.5851,2.5495,2.5303,2.5303,2.5303,2.5303,2.5303,2.5303,2.5303,2.5303,2.5303,2.5303,2.5303,2.5303,2.5303,2.5303,2.5303,2.5303,2.5303,2.5303,2.5303,2.5303,2.5303,2.5303,2.5303,2.5303,2.5303,1.4332,1.5038,1.5573,1.6418,1.6753,1.6885,1.7035,1.7191,1.7136,1.6514,1.6348,1.6337,0.0,0.0,1.6836,1.762,1.864,1.9566,2.0267,2.1703,2.279,0.0,0.0,0.0,0.0,0.0,0.0,2.5472,0.0,2.6193,2.7714,2.7842,2.8209,2.8975,2.8994,2.8994,2.8994,2.8994,2.8994,2.8994,2.9824,3.021,3.0228,3.1017,3.1403,3.1483,3.1581,3.1765,3.198,3.2876,3.3344,3.3541,3.4433,3.4906,3.5105,3.5245,3.4836,3.4026,3.2391,3.1775,3.1564,3.0737,3.0436,3.0398,3.0398,3.0398,3.0398,3.0398,3.0398,3.0398,3.0398,3.0398,3.0398,3.0398,3.0398,3.0398,3.0398,3.0398,3.0398,3.0398,3.0398,3.0121,2.9256,2.7775,2.6697,2.6621,2.5909,2.5341,2.5303,2.5303,2.5303,2.5303,2.5303,2.5303,2.5303,2.5303,2.5303,2.5303,2.5303,2.5303,2.5303,2.5303,2.5303,2.5303,2.5303,2.5303,2.5303,2.5303,2.5303,2.5303,2.5303,2.5303,1.4892,1.5684,1.6441,1.6814,1.6673,1.6501,1.6617,1.6408,1.6167,1.6005,1.5558,1.5244,0.0,0.0,0.0,1.6775,1.8518,0.0,2.0068,2.1436,0.0,2.2632,0.0,2.385,2.4109,2.5159,0.0,0.0,2.7094,2.7365,2.7769,2.8374,2.8796,2.8975,2.8994,2.8994,2.8994,2.8994,2.8994,2.8994,2.9824,3.021,3.0228,3.1017,3.1733,3.2302,3.2378,3.2835,3.3536,3.3836,3.4027,3.4177,3.4513,3.4733,3.4889,3.5035,3.5054,3.4865,3.3838,3.2692,3.166,3.1448,3.0929,3.0398,3.0398,3.0398,3.0398,3.0398,3.0398,3.0398,3.0398,3.0398,3.0398,3.0398,3.0398,3.0398,3.0398,3.0398,3.0398,3.0398,3.0398,3.0121,2.9256,2.8736,2.8044,2.6794,2.6409,2.6043,2.538,2.5303,2.5303,2.5303,2.5303,2.5303,2.5303,2.5303,2.5303,2.5303,2.5303,2.5303,2.5303,2.5303,2.5303,2.5303,2.5303,2.5303,2.5303,2.5303,2.5303,2.5303,2.5303,2.5303,1.5247,1.5968,1.6619,1.6818,1.6542,1.6169,1.5951,1.5782,1.5471,1.4867,1.446,0.0,1.4363,1.5098,0.0,0.0,0.0,0.0,1.9942,2.1032,2.1993,0.0,2.3258,0.0,2.4147,2.5514,2.6648,0.0,2.7629,2.7952,2.8319,2.8737,2.8994,2.8994,2.8994,2.8994,2.8994,2.8994,2.8994,2.8994,3.0173,3.0723,3.076,3.1935,3.2706,3.3128,3.3154,3.3489,3.3972,3.3998,3.4074,3.4148,3.4269,3.4413,3.4572,3.4755,3.498,3.5162,3.4764,3.3819,3.2737,3.2352,3.191,3.1506,3.1506,3.1506,3.1506,3.1506,3.1506,3.1429,3.1064,3.0968,3.0871,3.0494,3.0398,3.0398,3.0398,3.0398,3.0398,3.0398,3.0398,3.0237,2.9756,2.9352,2.8775,2.7832,2.739,2.6986,2.6505,2.5764,2.5303,2.5303,2.5303,2.5303,2.5303,2.5303,2.5303,2.5303,2.5303,2.5303,2.5303,2.5303,2.5303,2.5303,2.5303,2.5303,2.5303,2.5303,2.5303,2.5303,2.5303,2.5303,1.5501,1.6254,1.6787,1.6814,1.6457,1.5884,1.5257,1.5067,1.4701,1.3455,0.0,1.3093,1.3241,1.4042,1.4972,1.5866,0.0,1.8876,1.9841,2.0694,2.1492,2.2292,2.3221,2.3887,2.4081,2.5833,2.7023,2.7157,2.7568,2.8155,2.8934,2.897,2.8994,2.8994,2.8994,2.8994,2.8994,2.8994,2.9049,2.9177,3.0687,3.1458,3.1604,3.3109,3.3807,3.3807,3.3807,3.3807,3.3807,3.3807,3.3807,3.3815,3.3947,3.4062,3.4218,3.4464,3.4774,3.507,3.5209,3.4855,3.4205,3.3353,3.2987,3.2891,3.2891,3.2891,3.2891,3.2891,3.2891,3.2737,3.2045,3.1775,3.1506,3.0756,3.0475,3.0398,3.0398,3.0398,3.0398,3.0398,3.0398,3.0398,3.0398,2.9775,2.9217,2.9121,2.8506,2.8025,2.7909,2.6486,2.5476,2.5476,2.536,2.5303,2.5303,2.5303,2.5303,2.5303,2.5303,2.5303,2.5303,2.5303,2.5303,2.5303,2.5303,2.5303,2.5303,2.5303,2.536,2.5476,2.5476,2.5534,1.562,1.7262,1.8647,1.7769,1.6683,1.563,1.4815,1.3905,0.0,0.0,1.164,1.1283,1.1438,1.2609,1.3911,1.4873,0.0,0.0,0.0,0.0,2.1492,0.0,2.3536,2.4458,2.4624,2.6217,0.0,0.0,2.7731,2.8156,2.8718,2.881,2.89,2.8994,2.8994,2.8994,2.8994,2.8994,2.9347,3.0008,3.0944,3.1751,3.243,3.3366,3.3807,3.3807,3.3807,3.3807,3.3807,3.3807,3.3807,3.3807,3.3895,3.3998,3.413,3.4363,3.4609,3.487,3.4999,3.5076,3.4981,3.4224,3.3487,3.2891,3.2891,3.2891,3.2891,3.2891,3.2891,3.2872,3.2737,3.2199,3.166,3.1506,3.0929,3.0398,3.0398,3.0398,3.0398,3.0398,3.0398,3.0398,3.0398,3.0275,2.9929,2.9198,2.8967,2.864,2.7986,2.7005,2.637,2.637,2.5726,2.5303,2.5303,2.5303,2.5303,2.5303,2.5303,2.5303,2.5303,2.5303,2.5303,2.5303,2.5303,2.5303,2.5303,2.5303,2.5668,2.637,2.637,2.6755,1.5488,1.6844,1.8021,1.7294,1.6332,1.5256,1.4178,0.0,0.0,0.0,1.0673,1.0271,1.0399,1.1657,0.0,0.0,0.0,0.0,0.0,0.0,0.0,2.1579,2.3359,2.4537,0.0,2.6193,2.7258,2.74,2.7582,2.7886,2.836,2.8619,2.8834,2.8994,2.8994,2.8994,2.8994,2.9439,2.9824,3.021,3.1439,3.2228,3.2632,3.344,3.3807,3.3807,3.3807,3.3807,3.3807,3.3807,3.3807,3.3788,3.386,3.3895,3.3972,3.4124,3.4302,3.4529,3.4715,3.4962,3.5146,3.4855,3.4529,3.4257,3.4257,3.4257,3.4257,3.4257,3.4257,3.4045,3.3141,3.2602,3.2102,3.1237,3.0698,3.0398,3.0398,3.0398,3.0398,3.0398,3.0398,3.0398,3.0398,3.0398,3.0256,2.9833,2.9775,2.964,2.9256,2.8448,2.7563,2.6697,2.6236,2.5793,2.5341,2.5303,2.5303,2.5303,2.5303,2.5303,2.5303,2.5303,2.5303,2.5303,2.5303,2.5303,2.5303,2.5774,2.6197,2.6621,2.7063,2.7505,1.5074,1.5735,1.6275,1.6085,1.543,1.4499,1.3311,1.2445,0.0,0.0,0.984,0.9478,0.9618,0.0,1.1769,0.0,1.4024,1.5789,0.0,1.8709,2.019,0.0,2.3194,0.0,2.4788,2.6138,0.0,2.7085,2.7261,2.7582,2.8047,2.843,2.8718,2.8947,2.897,2.9067,2.925,2.9879,3.0375,3.0742,3.2008,3.2706,3.2889,3.3513,3.3807,3.3807,3.3807,3.3807,3.3807,3.3807,3.3807,3.3807,3.3807,3.3807,3.3815,3.3921,3.4062,3.4218,3.4464,3.4774,3.5053,3.5193,3.5358,3.5493,3.5493,3.5493,3.5493,3.5493,3.5493,3.5141,3.3583,3.3045,3.2487,3.0814,3.0398,3.0398,3.0398,3.0398,3.0398,3.0398,3.0398,3.0398,3.0398,3.0398,3.0398,3.0398,3.0398,3.0398,3.0398,2.9794,2.8794,2.7294,2.6986,2.6601,2.5928,2.5687,2.5572,2.5572,2.5399,2.5303,2.5303,2.5303,2.538,2.5572,2.5572,2.5668,2.587,2.6544,2.6967,2.7159,2.7832,2.8255,1.4222,1.4123,1.3911,1.4152,1.374,1.2957,1.2047,0.0,0.0,0.9461,0.8938,0.8648,0.8783,0.9525,1.0538,0.0,0.0,1.4347,0.0,1.8487,2.0119,2.1735,0.0,0.0,2.5439,2.625,2.6725,2.6758,2.6925,2.7324,2.7982,2.8291,2.8543,2.881,2.8881,2.93,3.0081,3.0173,3.0944,3.2394,3.254,3.2981,3.3697,3.377,3.3807,3.3807,3.3807,3.3807,3.3807,3.3807,3.3807,3.3807,3.3807,3.3807,3.3807,3.3868,3.3998,3.4148,3.434,3.4588,3.4851,3.4982,3.5245,3.5493,3.5493,3.5493,3.5493,3.5493,3.5493,3.5276,3.4334,3.3487,3.2487,3.0814,3.0398,3.0398,3.0398,3.0398,3.0398,3.0398,3.0398,3.0398,3.0398,3.0398,3.0398,3.0398,3.0398,3.0398,3.0398,3.0321,2.9929,2.8967,2.8217,2.7755,2.7659,2.6948,2.6486,2.6486,2.5736,2.5303,2.5303,2.5303,2.5668,2.6467,2.6486,2.6871,2.7659,2.7736,2.8159,2.8871,2.8948,2.941,1.3549,1.3667,1.3708,1.3861,1.3488,1.2931,1.223,0.0,0.9655,0.9117,0.8354,0.7822,0.795,0.8649,0.9525,0.0,1.18,1.3252,1.5169,1.73,1.9083,2.0296,2.2371,0.0,0.0,0.0,2.6218,2.6657,2.6825,2.7087,2.7444,2.7829,2.8192,2.8558,2.87,2.9241,3.0191,3.0687,3.1494,3.2614,3.3091,3.3495,3.3807,3.3807,3.3807,3.3807,3.3807,3.3807,3.3807,3.3807,3.3807,3.3807,3.3807,3.3807,3.3788,3.3815,3.3868,3.3947,3.4099,3.4279,3.4445,3.4612,3.4813,3.507,3.5308,3.5383,3.5398,3.5427,3.546,3.518,3.3776,3.2378,3.1162,3.0503,3.0305,3.0292,3.0279,3.0266,3.0266,3.0266,3.0266,3.0266,3.0266,3.0266,3.0266,3.0266,3.0266,3.0266,3.0266,3.0266,3.0151,2.98,2.9075,2.8429,2.7928,2.7582,2.7159,2.664,2.6274,2.5851,2.5322,2.5813,2.6255,2.6601,2.7121,2.7544,2.789,2.839,2.8794,2.9102,2.964,3.0083,1.2778,1.3209,1.3568,1.3434,1.3037,1.2571,0.0,1.0519,0.9197,0.8837,0.791,0.7235,0.7376,0.8078,0.8899,0.0,1.1056,1.2525,1.4078,1.62,1.7996,0.0,0.0,2.312,0.0,2.4987,2.5913,2.664,2.6792,2.6892,2.6973,2.74,2.784,2.8342,2.8551,2.9277,3.054,3.1109,3.1916,3.2963,3.3532,3.3807,3.3807,3.3807,3.3807,3.3807,3.3807,3.3807,3.3807,3.3807,3.3807,3.3807,3.3807,3.3807,3.3807,3.3807,3.3807,3.3834,3.3921,3.4062,3.4189,3.4307,3.4461,3.4672,3.5001,3.5157,3.527,3.5354,3.524,3.4776,3.3295,3.1808,3.0606,3.0291,3.0161,3.0099,3.006,3.0045,3.0045,3.0045,3.0045,3.0045,3.0045,3.0045,3.0045,3.0045,3.0045,3.0045,3.0045,3.0045,3.0045,3.0045,2.9625,2.9135,2.8645,2.8368,2.7953,2.7358,2.7089,2.6685,2.6051,2.6638,2.7072,2.7332,2.7928,2.8371,2.864,2.9187,2.9456,2.9463,3.0054,3.033,1.1802,1.255,1.3073,1.2554,1.2002,1.145,1.0831,0.9479,0.832,0.8389,0.7616,0.696,0.7171,0.7915,0.8761,0.9571,1.0871,1.2336,1.3797,1.5407,1.7058,0.0,0.0,2.2156,2.3026,2.462,2.5913,2.664,2.6691,2.6691,2.6691,2.7021,2.7517,2.8183,2.8448,2.9501,3.1366,3.1384,3.2192,3.3788,3.3807,3.3807,3.3807,3.3807,3.3807,3.3807,3.3807,3.3807,3.3807,3.3807,3.3807,3.3807,3.3807,3.3807,3.3807,3.3807,3.3807,3.3807,3.3868,3.3998,3.4124,3.4173,3.4293,3.4427,3.458,3.4831,3.5122,3.5261,3.4789,3.4007,3.3122,3.2244,3.132,3.0271,2.9954,2.988,2.9731,2.9713,2.9713,2.9713,2.9713,2.9713,2.9713,2.9713,2.9713,2.9713,2.9713,2.9713,2.9713,2.9713,2.9713,2.9713,2.9817,2.9996,3.026,2.9475,2.8976,2.8976,2.8241,2.7781,2.7762,2.7785,2.8184,2.9063,2.9083,2.9506,3.0359,3.0316,3.0292,3.0292,3.0234,3.0194,1.0639,1.1351,1.1712,1.154,1.11,1.0591,1.0052,0.8949,0.7968,0.7702,0.7174,0.6807,0.696,0.7714,0.8571,0.9426,1.0397,0.0,0.0,0.0,0.0,1.855,2.1432,2.3498,0.0,0.0,2.6437,2.6674,2.6691,2.6691,2.6691,2.6989,2.7413,2.7982,2.8838,2.995,3.1384,3.1953,3.2761,3.3807,3.3807,3.3807,3.3807,3.3807,3.3807,3.3807,3.3807,3.3807,3.3807,3.3807,3.3807,3.3807,3.3807,3.3807,3.3807,3.3807,3.3807,3.3788,3.3815,3.3842,3.3895,3.3921,3.3947,3.4023,3.4148,3.4505,3.4945,3.5176,3.4645,3.3934,3.3666,3.2462,3.1226,3.0845,3.0217,2.9662,2.957,2.9551,2.9551,2.9551,2.9551,2.9551,2.9551,2.9551,2.9551,2.9551,2.9551,2.9551,2.9551,2.9551,2.9551,2.9551,2.9644,2.9801,3.008,2.9884,2.9503,2.8891,2.8624,2.8223,2.7631,2.8198,2.8713,2.9083,2.9698,3.0121,3.0398,3.033,3.0202,3.0022,2.9896,2.9867,0.0,0.9915,1.0343,1.0123,0.9837,0.9455,0.8917,0.811,0.7377,0.7191,0.6809,0.6557,0.6727,0.7646,0.8599,0.9246,1.0453,1.1865,0.0,0.0,0.0,1.9322,0.0,0.0,0.0,2.5744,2.6404,2.6674,2.6691,2.6691,2.6691,2.694,2.7244,2.7648,2.882,3.0017,3.1232,3.2054,3.2858,3.3643,3.3643,3.3643,3.3643,3.3671,3.3698,3.3726,3.3753,3.378,0.0,3.3807,3.3807,3.3807,3.3807,3.3807,3.3807,3.3807,3.3807,3.3807,3.3807,3.3807,3.3807,3.3807,3.3834,3.3868,3.3998,3.4325,3.4694,3.4944,3.462,3.4125,3.3802,3.286,3.1807,3.1073,3.0376,2.9788,2.9386,2.931,2.931,2.931,2.931,2.931,2.931,2.931,2.931,2.931,2.931,2.931,2.931,2.931,2.931,2.931,2.9394,2.9551,2.9765,2.9902,2.9775,2.922,2.9171,2.8943,2.8388,2.8989,2.939,2.9512,3.0049,3.0318,3.0318,3.018,2.9996,2.9782,2.968,2.9776,0.0,0.8372,0.898,0.8489,0.8348,0.821,0.7611,0.7066,0.0,0.6791,0.6481,0.6266,0.649,0.7701,0.8785,0.9151,1.0946,1.2603,0.0,1.5073,0.0,0.0,2.1547,0.0,2.5341,2.5659,2.5964,2.664,2.6691,2.6691,2.6691,2.6892,2.707,2.7272,2.8481,2.9719,3.0912,3.1779,3.2593,3.3334,3.3334,3.3334,3.3334,3.3422,3.3491,3.3577,3.3643,3.3726,3.3807,3.3807,3.3807,3.3807,3.3807,3.3807,3.3807,3.3807,3.3807,3.3807,3.3807,3.3807,3.3807,3.3807,3.3842,3.3921,3.4049,3.4232,3.4442,3.4632,3.4674,3.4504,3.3672,3.3385,3.2828,3.1092,3.0535,3.0142,2.9205,2.8994,2.8994,2.8994,2.8994,2.8994,2.8994,2.8994,2.8994,2.8994,2.8994,2.8994,2.8994,2.8994,2.8994,2.8994,2.913,2.9243,2.9353,2.9626,2.9753,2.9767,2.977,2.977,2.9767,2.9905,3.0019,3.0157,3.0157,3.0157,3.0157,2.9902,2.9697,2.957,2.9493,2.99,0.6084,0.0,0.809,0.7966,0.7933,0.7812,0.0,0.6782,0.6378,0.0,0.0,0.622,0.6777,0.7763,0.8839,0.9993,1.1322,1.2833,1.4616,0.0,0.0,2.1664,2.3176,2.4481,2.5493,2.6116,2.6505,2.6674,2.6691,2.6691,2.6691,2.6825,2.699,2.7149,2.8066,2.918,3.0368,3.1738,3.2521,3.2699,3.2699,3.2699,3.2699,3.2876,3.3093,3.3291,3.3473,3.3643,3.3807,3.3807,3.3807,3.3807,3.3807,3.3807,3.3807,3.3807,3.3807,3.3807,3.3807,3.3807,3.3807,3.3807,3.3807,3.3815,3.3842,3.4049,3.4274,3.4431,3.4476,3.442,3.4211,3.362,3.2799,3.1708,3.0868,3.0088,2.9182,2.8994,2.8994,2.8994,2.8994,2.8994,2.8994,2.8994,2.8994,2.8994,2.8994,2.8994,2.8994,2.8994,2.8994,2.8994,2.9067,2.9156,2.9249,2.9394,2.9493,2.9493,2.9493,2.9493,2.9493,2.957,2.9678,2.9817,2.9817,2.9784,2.9734,2.957,2.9434,2.9293,2.9181,2.9554,0.5717,0.6353,0.6914,0.7121,0.7017,0.68,0.6516,0.0,0.0,0.0,0.0,0.0,0.6698,0.7902,0.919,1.0156,1.2031,0.0,0.0,0.0,2.0886,2.2433,2.3909,2.5125,0.0,2.6471,2.6691,2.6691,2.6691,2.6691,2.6691,2.6775,2.6859,2.6923,2.7691,2.8729,2.9983,3.1192,3.1948,3.2248,3.2248,3.2248,3.2299,3.2486,3.2716,3.297,3.3238,3.3473,3.3698,3.3753,3.378,3.3807,3.3807,3.3807,3.3807,3.3807,3.3807,3.3807,3.3807,3.3807,3.3807,3.3807,3.3807,3.3807,3.3807,3.3895,3.4023,3.4099,3.4124,3.4124,3.4124,3.3759,3.3056,3.1856,3.1175,3.0478,2.9255,2.8994,2.8994,2.8994,2.8994,2.8994,2.8994,2.8994,2.8994,2.8994,2.8994,2.8994,2.8994,2.8994,2.8994,2.8994,2.904,2.9067,2.9115,2.9181,2.9246,2.9312,2.931,2.931,2.9312,2.9357,2.9475,2.9608,2.9608,2.957,2.9474,2.9373,2.9434,2.9695,2.9596,3.0191,0.5852,0.6072,0.6173,0.6474,0.6311,0.6067,0.6067,0.0,0.0,0.0,0.0,0.0,0.0,0.0,0.0,0.0,0.0,0.0,1.8495,1.9878,2.1272,2.3103,2.4246,0.0,2.6522,2.6657,2.6691,2.6691,2.6691,2.6691,2.6691,2.6691,2.6691,2.6691,2.7317,2.822,2.9469,3.0248,3.0924,3.1549,3.1549,3.1549,3.1549,3.176,3.1983,3.2249,3.2648,3.3039,3.3395,3.3606,3.3726,3.3807,3.3807,3.3807,3.3807,3.3807,3.3807,3.3807,3.3807,3.3807,3.3807,3.3807,3.3807,3.3807,3.3807,3.3807,3.3807,3.3807,3.3807,3.3807,3.3807,3.3807,3.3421,3.1935,3.1568,3.1146,2.9549,2.9177,2.914,2.9012,2.8994,2.8994,2.8994,2.8994,2.8994,2.8994,2.8994,2.8994,2.8994,2.8994,2.8994,2.8994,2.8994,2.8994,2.8994,2.8994,2.9044,2.9163,2.916,2.916,2.9185,2.9209,2.9312,2.9412,2.9412,2.9427,2.9455,2.9373,2.9751,3.047,3.0399,3.1182,0.6306,0.7035,0.745,0.7297,0.7251,0.7235,0.0,0.0,0.0,0.0,0.0,0.0,0.0,0.0,0.0,0.0,0.0,1.8104,0.0,0.0,2.2384,2.3644,0.0,2.5733,2.6367,2.6555,2.6623,2.6691,2.6691,2.6691,2.6691,2.6691,2.6691,2.6691,2.681,2.7267,2.8099,2.8898,2.934,2.9442,2.9442,2.9442,2.9496,2.9675,2.9886,3.0138,3.1132,3.1844,3.2379,3.3201,3.3633,3.3807,3.3807,3.3807,3.3807,3.3807,3.3807,3.3807,3.3807,3.3807,3.3807,3.3807,3.3807,3.3807,3.3807,3.3807,3.3807,3.3807,3.3807,3.3807,3.3807,3.3807,3.3568,3.2651,3.243,3.1971,3.0375,3.0026,2.9824,2.9122,2.8994,2.8994,2.8994,2.8994,2.8994,2.8994,2.8994,2.8994,2.8994,2.8994,2.8994,2.8994,2.8994,2.8994,2.8994,2.8994,2.9017,2.9021,2.904,2.904,2.9021,2.9044,2.9044,2.9085,2.9067,2.9398,3.0055,3.0055,3.0436,3.1225,3.1225,3.1715,0.6157,0.6927,0.7535,0.7732,0.826,0.8754,0.0,0.0,0.0,0.0,0.0,0.0,0.0,0.0,0.0,0.0,0.0,1.8758,2.0057,2.1311,2.2455,0.0,0.0,2.5551,2.612,2.633,2.6504,2.6691,2.6691,2.6691,2.6691,2.6691,2.6691,2.6691,2.6691,2.686,2.7199,2.7571,2.8163,2.9011,2.9011,2.9011,2.9011,2.9138,2.9298,2.954,3.0625,3.137,3.1894,3.2835,3.3357,3.3577,3.3577,3.3577,3.3577,3.3577,3.3605,3.3643,3.3671,3.3726,3.3753,3.3807,3.3807,3.3807,3.3807,3.3807,3.3807,3.3807,3.3807,3.3807,3.3807,3.3807,3.3605,3.2797,3.2614,3.2173,3.0558,3.054,3.0613,2.9806,3.0008,3.0173,2.9732,2.9659,2.9512,2.9067,2.8994,2.8994,2.8994,2.8994,2.8994,2.8994,2.8994,2.8994,2.8994,2.8994,2.8994,2.8994,2.8994,2.8994,2.8994,2.8994,2.8994,2.8994,2.9439,2.9843,3.021,3.0632,3.1256,3.2045,3.2045,3.2485,0.5933,0.6681,0.7459,0.8209,0.0,0.0,0.0,0.0,0.0,0.0,0.0,0.0,0.0,0.0,0.0,1.7762,1.8452,1.922,2.0714,2.1521,2.2345,2.3458,2.443,2.5285,2.5868,2.6137,2.64,2.6691,2.6691,2.6691,2.6691,2.6691,2.6691,2.6691,2.6691,2.6691,2.6691,2.6691,2.7283,2.845,2.845,2.845,2.8486,2.8523,2.8629,2.8819,3.0024,3.0763,3.1207,3.2325,3.2943,3.3178,3.3178,3.3178,3.3178,3.3178,3.3238,3.3357,3.3473,3.3559,3.3671,3.378,3.3807,3.3807,3.3807,3.3807,3.3807,3.3807,3.3807,3.3807,3.3807,3.3807,3.3642,3.3036,3.2889,3.2504,3.1072,3.1256,3.1439,3.0632,3.098,3.1201,3.0595,3.0485,3.0265,2.9659,2.9567,2.9567,2.9567,2.9567,2.9567,2.9567,2.9567,2.9567,2.9567,2.9567,2.9567,2.9567,2.9195,2.9067,2.925,2.9292,2.9384,2.9567,3.0173,3.0577,3.076,3.1384,3.2082,3.2889,3.2889,3.322,0.5996,0.6816,0.7771,0.899,0.0,0.0,0.9973,0.0,0.0,0.0,0.0,0.0,0.0,0.0,1.7698,1.8285,1.9043,1.9998,2.144,0.0,2.2354,2.3891,2.4502,2.5052,2.5647,2.601,2.633,2.6691,2.6691,2.6691,2.6691,2.6691,2.6691,2.6691,2.6691,2.6691,2.6691,2.6691,2.6759,2.686,2.686,2.686,2.686,2.686,2.6894,2.7012,2.8664,2.9541,2.988,3.1497,3.2316,3.255,3.255,3.255,3.255,3.255,3.2699,3.2908,3.3154,3.3368,3.3549,3.3726,3.3807,3.3807,3.3807,3.3807,3.3807,3.3807,3.3807,3.3807,3.3807,3.3807,3.3788,3.3733,3.3715,3.3476,3.2614,3.2485,3.2284,3.1458,3.1347,3.1366,3.1311,3.1311,3.1274,3.1237,3.1219,3.1219,3.1219,3.1219,3.1219,3.1219,3.1219,3.1219,3.1219,3.1219,3.1219,3.1219,2.9843,2.9347,3.0081,3.0118,3.0467,3.1201,3.1274,3.1678,3.2449,3.2504,3.2926,3.3715,3.3715,3.3733,0.5781,0.6498,0.7343,0.8297,0.0,0.0,0.0,0.0,0.0,0.0,0.0,0.0,0.0,0.0,1.8399,1.9099,1.9468,1.9995,2.0933,2.1476,2.2089,2.313,2.3958,2.4735,2.5313,2.5775,2.6189,2.6657,2.6691,2.6691,2.6691,2.6691,2.6691,2.6691,2.6691,2.6691,2.6691,2.6691,2.6691,2.6691,2.6691,2.6691,2.6691,2.6691,2.6691,2.6776,2.8439,2.9298,2.9592,3.1218,3.2003,3.2196,3.2196,3.2196,3.2196,3.2196,3.2317,3.2537,3.2781,3.3019,3.3238,3.3462,3.3549,3.3549,3.3549,3.3577,3.3615,3.3671,3.3698,3.3753,3.3807,3.3807,3.3807,3.3807,3.3807,3.3587,3.2779,3.2999,3.3109,3.2302,3.2559,3.2724,3.2228,3.2155,3.1971,3.1476,3.1384,3.1384,3.1384,3.1384,3.1384,3.1384,3.1384,3.1384,3.1384,3.1384,3.1384,3.1384,3.0834,3.0632,3.0925,3.0944,3.1091,3.1384,3.188,3.2302,3.2614,3.3109,3.3495,3.3807,3.3807,3.3807,0.6022,0.6644,0.7386,0.0,0.0,0.0,0.0,0.0,0.0,0.0,0.0,0.0,0.0,0.0,0.0,0.0,1.969,1.9933,2.063,2.1107,2.171,2.2619,2.3473,2.4284,2.5112,2.561,2.6118,2.6657,2.6691,2.6691,2.6691,2.6691,2.6691,2.6691,2.6691,2.6691,2.6691,2.6691,2.6691,2.6691,2.6691,2.6691,2.6691,2.6691,2.6691,2.6776,2.8369,2.9157,2.94,3.0979,3.1654,3.1731,3.1731,3.1731,3.1731,3.1731,3.1877,3.2073,3.2317,3.2553,3.2749,3.3037,3.3117,3.3117,3.3117,3.319,3.3327,3.3426,3.3559,3.3671,3.378,3.3807,3.3807,3.3807,3.3807,3.3642,3.3109,3.3421,3.3642,3.3091,3.3421,3.3623,3.3073,3.2981,3.2797,3.2228,3.2155,3.2155,3.2155,3.2155,3.2155,3.2155,3.2155,3.2155,3.2155,3.2155,3.2155,3.2155,3.2155,3.2045,3.1788,3.177,3.1898,3.2137,3.2706,3.2981,3.2981,3.3532,3.3807,3.3807,3.3807,3.3935,0.687,0.7391,0.8075,0.0,0.0,0.0,0.0,0.0,0.0,0.0,0.0,0.0,0.0,0.0,0.0,1.969,1.969,1.9933,2.0579,2.0714,2.1201,2.2544,2.3061,2.3787,2.508,2.5626,2.6118,2.6657,2.6691,2.6691,2.6691,2.6691,2.6691,2.6691,2.6691,2.6691,2.6691,2.6691,2.6691,2.6691,2.6691,2.6691,2.6691,2.6691,2.6691,2.6776,2.8315,2.9011,2.9093,3.0581,3.119,3.119,3.119,3.119,3.119,3.119,3.1325,3.1538,3.1733,3.1915,3.2127,3.2417,3.2484,3.2484,3.2484,3.2634,3.2858,3.3124,3.3339,3.3549,3.3753,3.3807,3.3807,3.3807,3.3807,3.3807,3.3807,3.3807,3.3807,3.3807,3.3807,3.3807,3.3807,3.3807,3.3807,3.3807,3.3807,3.3807,3.3807,3.3807,3.3807,3.3807,3.3807,3.3807,3.3807,3.3807,3.3807,3.3807,3.3807,3.344,3.2651,3.2614,3.2999,3.377,3.3807,3.3807,3.3807,3.3807,3.3807,3.3807,3.3807,3.4247,0.7003,0.7476,0.0,0.0,0.0,0.0,0.0,0.0,0.0,0.0,0.0,0.0,0.0,0.0,0.0,1.969,1.969,1.9756,1.9948,2.0388,2.0855,2.125,2.2496,2.3618,2.4415,2.5363,2.6125,2.6657,2.6691,2.6691,2.6691,2.6691,2.6691,2.6691,2.6691,2.6691,2.6691,2.6691,2.6691,2.6691,2.6691,2.6691,2.6691,2.6691,2.6691,2.6776,2.8315,2.9011,2.9093,3.0581,3.119,3.119,3.119,3.119,3.119,3.119,3.1269,3.1389,3.16,3.1748,3.193,3.2109,3.2162,3.2162,3.2162,3.2283,3.2504,3.2781,3.2988,3.3208,3.3462,3.352,3.3577,3.3753,3.3807,3.3807,3.3807,3.3807,3.3807,3.3807,3.3807,3.3807,3.3807,3.3807,3.3807,3.3807,3.3807,3.3807,3.3807,3.3807,3.3807,3.3807,3.3807,3.3807,3.3807,3.3807,3.3807,3.3807,3.3807,3.3697,3.3458,3.344,3.3568,3.3807,3.3807,3.3807,3.3807,3.3807,3.3807,3.3807,3.4394,3.4752,0.7643,0.0,0.0,0.0,0.0,0.0,0.0,0.0,0.0,0.0,0.0,0.0,1.9609,1.969,0.0,1.969,1.969,1.969,1.969,2.0029,2.0394,2.0682,2.1756,2.2945,2.4098,2.4975,2.5809,2.6624,2.6691,2.6691,2.6691,2.6691,2.6691,2.6691,2.6691,2.6691,2.6691,2.6691,2.6691,2.6691,2.6691,2.6691,2.6691,2.6691,2.6691,2.6776,2.8315,2.9313,2.9922,3.0818,3.119,3.119,3.119,3.119,3.119,3.119,3.123,3.1274,3.1406,3.1483,3.1559,3.1674,3.1657,3.1657,3.1657,3.1821,3.2038,3.2283,3.2468,3.2716,3.2957,3.3037,3.3129,3.3559,3.3643,3.3643,3.3643,3.3671,3.3698,3.3726,3.3753,3.378,3.3807,3.3807,3.3807,3.3807,3.3807,3.3807,3.3807,3.3807,3.3807,3.378,3.3726,3.3698,3.3671,3.3661,3.3643,3.3643,3.3643,3.3643,3.3643,3.3753,3.3807,3.3807,3.3807,3.3807,3.3807,3.3807,3.3972,3.4302,3.4752,3.5367,0.0,0.0,0.0,0.0,0.0,0.0,0.0,0.0,0.0,0.0,0.0,1.925,1.9654,1.969,1.969,1.969,1.969,1.969,1.969,1.969,1.9914,2.0543,2.1005,2.1968,2.3713,2.4389,2.5192,2.6421,2.6488,2.6505,2.6505,2.6556,2.659,2.659,2.6657,2.6691,2.6691,2.6691,2.6691,2.6691,2.6691,2.6691,2.6691,2.6691,2.6725,2.6877,2.8349,2.9786,3.1106,3.1157,3.119,3.119,3.119,3.119,3.119,3.119,3.119,3.119,3.119,3.119,3.119,3.119,3.119,3.119,3.119,3.1346,3.1521,3.175,3.1933,3.2144,3.2384,3.2451,3.2601,3.3147,3.3304,3.3334,3.3334,3.3375,3.3462,3.3549,3.3615,3.3698,3.3807,3.3807,3.3807,3.3807,3.3807,3.3807,3.3807,3.3807,3.378,3.3726,3.3643,3.3577,3.3509,3.3422,3.3364,3.3334,3.3334,3.3316,3.3334,3.3615,3.378,3.378,3.378,3.378,3.378,3.3808,3.4229,3.4962,3.5109,3.5988,0.0,0.9224,0.0,0.0,0.0,0.0,0.0,0.0,0.0,0.0,1.8339,1.9295,1.9654,1.969,1.969,1.969,1.969,1.969,1.969,1.969,1.9735,1.9884,2.0727,2.1365,2.1587,2.3009,2.4231,2.4913,2.4978,2.4958,2.4958,2.551,2.5845,2.5845,2.6404,2.6691,2.6691,2.6691,2.6691,2.6691,2.6691,2.6691,2.6691,2.6691,2.7012,2.7638,2.8569,2.9499,3.0378,3.0954,3.119,3.119,3.119,3.119,3.119,3.119,3.119,3.119,3.119,3.119,3.119,3.119,3.119,3.119,3.119,3.1252,3.1389,3.16,3.1748,3.1894,3.2074,3.2092,3.2127,3.2283,3.2502,3.2699,3.2699,3.2844,3.3001,3.3243,3.3444,3.3605,3.378,3.3807,3.3807,3.3807,3.3807,3.3807,3.3807,3.3807,3.3788,3.378,3.3671,3.3549,3.3422,3.3411,3.3226,3.2813,3.2763,3.2731,3.2699,3.319,3.3481,3.3481,3.3481,3.3481,3.3481,3.408,3.4443,3.4643,3.5882,3.6662,0.0,0.0,0.0,0.0,0.0,0.0,0.0,0.0,0.0,0.0,1.8263,1.9051,1.9594,1.969,1.969,1.969,1.969,1.969,1.969,1.969,1.969,1.969,2.0349,2.0973,2.1439,2.2525,2.3588,2.4461,2.4473,2.4589,2.4877,2.5278,2.5647,2.5983,2.6387,2.6572,2.6556,2.6521,2.6487,2.6469,2.6487,2.6572,2.6657,2.6708,2.7114,2.7823,2.8653,2.9414,3.0176,3.0903,3.119,3.119,3.119,3.119,3.119,3.119,3.119,3.119,3.119,3.119,3.119,3.119,3.119,3.119,3.119,3.1213,3.1274,3.1368,3.1445,3.1521,3.16,3.1637,3.1637,3.1637,3.1967,3.2265,3.2265,3.2419,3.2651,3.2908,3.3129,3.3327,3.3577,3.3643,3.3698,3.3807,3.3807,3.3807,3.3807,3.3807,3.3807,3.3807,3.3615,3.3327,3.2912,3.2766,3.2619,3.2334,3.2248,3.2197,3.2162,3.2908,3.3354,3.348,3.3512,3.3659,3.4017,3.4411,3.4786,3.5198,3.6021,3.663,0.0,0.0,0.0,0.0,0.0,0.0,0.0,0.0,0.0,1.7384,1.8112,1.8837,1.957,1.969,1.969,1.969,1.969,1.969,1.969,1.969,1.969,1.969,2.0061,2.0733,2.1859,2.2295,2.2955,2.4022,2.414,2.4382,2.4794,2.5129,2.5548,2.61,2.6318,2.6382,2.6329,2.6225,2.6154,2.603,2.6173,2.633,2.6537,2.664,2.7029,2.7637,2.8586,2.9347,2.9989,3.0835,3.119,3.119,3.119,3.119,3.119,3.119,3.119,3.119,3.119,3.119,3.119,3.119,3.119,3.119,3.119,3.119,3.119,3.119,3.119,3.119,3.119,3.119,3.119,3.119,3.1524,3.186,3.186,3.202,3.2249,3.2486,3.2798,3.3068,3.3286,3.3444,3.3615,3.3762,3.3707,3.3652,3.3652,3.3652,3.3652,3.3652,3.3327,3.2848,3.2179,3.1967,3.186,3.186,3.2007,3.2032,3.1946,3.2786,3.341,3.3739,3.3723,3.4041,3.4622,3.4763,3.515,3.5821,3.5962,3.6403,0.0,0.0,0.0,0.0,0.0,0.0,0.0,0.0,1.6084,0.0,1.7817,1.8877,1.9555,1.969,1.969,1.969,1.969,1.969,1.969,1.969,1.969,1.969,2.0061,2.0621,2.1424,2.1593,2.1906,2.2552,2.3022,2.3168,2.2969,2.4243,2.4978,2.4992,2.5681,2.6071,2.6057,2.5856,2.5631,2.5335,2.5815,2.6137,2.633,2.659,2.6742,2.6928,2.8366,2.9042,2.9245,3.0632,3.119,3.119,3.119,3.119,3.119,3.119,3.119,3.119,3.119,3.119,3.119,3.119,3.119,3.119,3.119,3.119,3.119,3.119,3.119,3.119,3.119,3.119,3.119,3.119,3.1252,3.1291,3.1291,3.1445,3.1671,3.1878,3.2484,3.3019,3.305,3.3437,3.378,3.3807,3.3339,3.3024,3.3024,3.3024,3.3024,3.3024,3.2438,3.1839,3.1368,3.1329,3.1291,3.1291,3.2473,3.3015,3.2608,3.3107,3.3668,3.4363,3.4276,3.4269,3.4356,3.4983,3.5349,3.5471,3.6168,3.6591,0.6969,0.9399,1.1584,0.0,0.0,0.0,0.0,0.0,1.5978,1.6577,1.7174,1.7891,1.8957,1.9435,1.969,1.969,1.969,1.969,1.969,1.9726,1.9762,1.9848,2.0204,2.0711,2.1295,2.1524,2.1849,2.2282,2.2806,2.3154,2.326,2.4281,2.4975,2.5291,2.554,2.5668,2.5643,2.5394,2.523,2.5137,2.561,2.5994,2.626,2.6556,2.6691,2.6759,2.7858,2.8569,2.9059,3.0142,3.0835,3.119,3.119,3.119,3.119,3.119,3.119,3.119,3.119,3.119,3.119,3.119,3.119,3.119,3.119,3.119,3.119,3.119,3.1495,3.1799,3.1799,3.2121,3.2374,3.2104,3.2036,3.2036,3.2036,3.1698,3.1504,3.1841,3.23,3.2669,3.2912,3.3129,3.3081,3.2433,3.2109,3.193,3.193,3.193,3.193,3.193,3.1671,3.2049,3.3541,3.3677,3.3677,3.3677,3.4286,3.4556,3.4353,3.4134,3.4167,3.4489,3.4465,3.4624,3.501,3.536,3.5514,3.5531,3.5874,3.6028,0.6956,0.8903,1.0597,1.1561,0.0,0.0,0.0,0.0,1.5619,0.0,1.6473,1.701,1.7996,1.8882,1.9495,1.966,1.969,1.969,1.969,1.9797,1.9904,2.0045,2.0429,2.0845,2.129,2.1628,2.1945,2.2282,2.2984,2.3516,2.3772,2.4574,2.5175,2.5572,2.5373,2.5237,2.5162,2.4759,2.4679,2.4902,2.5378,2.5791,2.6134,2.6521,2.6691,2.6742,2.7503,2.8264,2.9042,2.9803,3.0531,3.119,3.119,3.119,3.119,3.119,3.119,3.119,3.119,3.119,3.119,3.119,3.119,3.119,3.119,3.119,3.1241,3.141,3.1867,3.2324,3.251,3.2983,3.3288,3.2814,3.2797,3.2848,3.273,3.2116,3.1696,3.2087,3.2085,3.2109,3.242,3.2454,3.2179,3.1329,3.119,3.119,3.119,3.119,3.1478,3.2239,3.2324,3.322,3.5436,3.5622,3.5622,3.5622,3.5622,3.5622,3.5622,3.5081,3.4776,3.4776,3.4776,3.5064,3.5622,3.5622,3.5622,3.5622,3.5622,3.5622,0.7013,0.7645,0.0,0.0,0.0,0.0,0.0,0.0,0.0,1.4842,1.5845,1.6726,1.6801,1.7861,1.8957,1.9585,1.969,1.969,1.969,1.9884,2.0045,2.0261,2.0648,2.1007,2.1376,2.1698,2.2003,2.2282,2.3435,2.4005,2.371,2.4943,2.5509,2.525,2.5038,2.4775,2.4446,2.3925,2.3912,2.4357,2.4958,2.547,2.5917,2.6453,2.6691,2.6742,2.7503,2.8264,2.9042,2.9803,3.0531,3.119,3.119,3.119,3.119,3.119,3.119,3.119,3.119,3.119,3.119,3.119,3.119,3.119,3.119,3.119,3.1343,3.2036,3.2297,3.2442,3.3169,3.3372,3.3288,3.2814,3.3051,3.3254,3.2797,3.2459,3.2347,3.2618,3.189,3.1269,3.1291,3.1308,3.1269,3.119,3.119,3.119,3.119,3.119,3.2273,3.5081,3.5385,3.5453,3.5605,3.5622,3.5622,3.5622,3.5622,3.5622,3.5622,3.5588,3.5554,3.5554,3.5554,3.5588,3.5622,3.5622,3.5622,3.5622,3.5622,3.5622,0.4988,0.6459,0.0,0.0,0.0,0.0,0.0,1.351,1.4498,1.4737,1.55,1.6248,1.6637,1.7787,1.8777,1.9016,1.9405,1.969,1.969,1.9904,2.017,2.0447,2.0893,2.1308,2.1685,2.1957,2.2152,2.2282,2.3034,2.3577,2.3768,2.4414,2.4856,2.5005,2.4688,2.4358,2.4024,2.3739,2.3797,2.4181,2.4717,2.5256,2.5733,2.6279,2.6556,2.664,2.6962,2.7807,2.9045,2.9279,3.0108,3.119,3.119,3.119,3.119,3.119,3.119,3.119,3.119,3.119,3.119,3.119,3.119,3.119,3.119,3.119,3.1343,3.207,3.2628,3.3169,3.3914,3.4472,3.4793,3.4607,3.4709,3.4793,3.4607,3.3508,3.2391,3.1833,3.1444,3.119,3.119,3.278,3.4032,3.4032,3.4032,3.4032,3.4032,3.4032,3.4438,3.5504,3.5622,3.5622,3.5622,3.5622,3.5622,3.5622,3.5622,3.5622,3.5622,3.5622,3.5622,3.5622,3.5622,3.5622,3.5622,3.5622,3.5622,3.5622,3.5622,3.5622,0.4923,0.0,0.0,0.0,0.0,0.0,1.1296,0.0,1.372,1.4333,1.4992,1.5679,1.6293,1.7279,1.8194,1.8627,1.9076,1.9435,1.966,1.9975,2.0308,2.0697,2.1119,2.154,2.2003,2.2152,2.2254,2.2282,2.2824,2.3214,2.3408,2.3772,2.4058,2.429,2.3952,2.3746,2.3739,2.3653,2.3752,2.4059,2.4539,2.4997,2.5443,2.6019,2.6369,2.6505,2.6641,2.7554,2.8938,2.8884,2.9741,3.1112,3.1112,3.1112,3.1151,3.119,3.119,3.119,3.119,3.119,3.119,3.119,3.119,3.119,3.119,3.136,3.1715,3.2459,3.3203,3.3947,3.4675,3.525,3.5622,3.5622,3.5622,3.5622,3.5622,3.4353,3.3102,3.2747,3.1884,3.1512,3.251,3.432,3.5622,3.5622,3.5622,3.5622,3.5622,3.5622,3.5622,3.5622,3.5622,3.5622,3.5622,3.5622,3.5622,3.5622,3.5622,3.5622,3.5622,3.5622,3.5622,3.5622,3.5622,3.5622,3.5622,3.5622,3.5622,3.5622,3.5622,3.5622,0.0,0.0,0.0,0.0,0.0,0.0,1.0249,0.0,1.2164,1.3481,1.4303,1.4992,1.5649,1.6278,1.7115,1.8433,1.8672,1.8927,1.957,2.003,2.0494,2.0942,2.1291,2.1705,2.2237,2.2282,2.2282,2.2282,2.2824,2.3029,2.2714,2.3044,2.3212,2.3054,2.2812,2.2934,2.3535,2.3565,2.3706,2.3978,2.423,2.463,2.5112,2.5727,2.6099,2.6303,2.6573,2.7484,2.8774,2.8661,2.9493,3.0871,3.0871,3.0952,3.1015,3.1151,3.119,3.119,3.119,3.119,3.119,3.119,3.1207,3.1224,3.1224,3.1732,3.2476,3.322,3.3947,3.4675,3.5419,3.5622,3.5622,3.5622,3.5622,3.5622,3.5622,3.4878,3.4506,3.5436,3.3288,3.2239,3.5131,3.5622,3.5622,3.5622,3.5622,3.5622,3.5622,3.5622,3.5622,3.5622,3.5622,3.5622,3.5622,3.5622,3.5622,3.5622,3.5622,3.5622,3.5622,3.5622,3.5622,3.5622,3.5622,3.5622,3.5622,3.5622,3.5622,3.5622,3.5622,3.5622,0.6211,0.0,0.0,0.0,0.0,0.0,0.0,0.0,1.191,1.2284,1.366,1.4857,1.5049,1.559,1.6308,1.7115,1.8089,1.8762,1.8957,1.9671,2.0308,2.0811,2.1135,2.154,2.2044,2.2073,2.2073,2.2073,2.2158,2.2297,2.254,2.263,2.2552,2.2328,2.2094,2.2047,2.2218,2.2723,2.3016,2.3152,2.3836,2.4449,2.491,2.5496,2.5957,2.6252,2.6539,2.7414,2.8548,2.8323,2.9128,3.0493,3.0493,3.0593,3.0814,3.1112,3.119,3.119,3.119,3.119,3.119,3.119,3.1546,3.1985,3.1985,3.251,3.3254,3.3981,3.4336,3.4675,3.5419,3.5622,3.5622,3.5622,3.5622,3.5622,3.5622,3.5419,3.5301,3.5571,3.4962,3.4658,3.5487,3.5622,3.5622,3.5622,3.5622,3.5622,3.5622,3.5622,3.5622,3.5622,3.5622,3.5622,3.5622,3.5622,3.5622,3.5622,3.5622,3.5622,3.5622,3.5622,3.5622,3.5622,3.5622,3.5622,3.5622,3.5622,3.5622,3.5622,3.5622,3.5622,0.7053,0.0,0.0,0.0,0.0,0.0,0.883,0.9773,1.0822,0.0,1.2732,1.372,1.4274,1.4692,1.5171,1.5786,1.6802,1.776,1.8597,1.9239,1.9863,2.0532,2.0893,2.1308,2.1777,2.1853,2.1853,2.1836,2.1705,2.1689,2.1811,2.1604,2.1568,2.163,2.1392,2.1425,2.1695,2.2103,2.2435,2.2775,2.3254,2.388,2.4611,2.5211,2.5717,2.6084,2.6506,2.7347,2.836,2.7914,2.8697,3.0156,3.0182,3.0368,3.0651,3.1072,3.119,3.119,3.119,3.119,3.1241,3.1546,3.1935,3.2341,3.2662,3.3271,3.3947,3.437,3.4726,3.5064,3.5504,3.5622,3.5622,3.5622,3.5622,3.5622,3.5622,3.5622,3.5622,3.5622,3.5622,3.5622,3.5622,3.5622,3.5622,3.5622,3.5622,3.5622,3.5622,3.5622,3.5622,3.5622,3.5622,3.5622,3.5622,3.5622,3.5622,3.5622,3.5622,3.5622,3.5622,3.5622,3.5622,3.5622,3.5622,3.5622,3.5622,3.5622,3.5622,3.5622,3.5622,3.5622,0.8842,0.8724,0.0,0.0,0.8499,0.0,0.877,0.8905,0.94,0.0,1.1595,1.2089,1.3346,1.3645,1.3914,1.4573,1.5199,1.6278,1.8208,1.8703,1.9162,1.9953,2.0442,2.0927,2.1406,2.1552,2.1601,2.1568,2.1432,2.1166,2.0794,2.0481,2.052,2.0935,2.0722,2.0887,2.147,2.156,2.1939,2.2582,2.2685,2.3271,2.4303,2.493,2.5475,2.5916,2.6455,2.7264,2.8119,2.746,2.8297,2.993,2.9941,3.0156,3.0526,3.1032,3.119,3.119,3.119,3.1241,3.1427,3.211,3.2391,3.2645,3.3322,3.4032,3.4624,3.4624,3.5098,3.5622,3.5622,3.5622,3.5622,3.5622,3.5622,3.5622,3.5622,3.5622,3.5622,3.5622,3.5622,3.5622,3.5622,3.5622,3.5622,3.5622,3.5622,3.5622,3.5622,3.5622,3.5622,3.5622,3.5622,3.5622,3.5622,3.5622,3.5622,3.5622,3.5622,3.5622,3.5622,3.5622,3.5622,3.5622,3.5622,3.5622,3.5622,3.5622,3.5622,3.5622,3.5622,3.5622,0.9665,0.9635,0.9531,0.9665,0.9203,0.0,0.8875,0.8905,0.901,0.0,1.0279,1.1231,1.2044,1.2628,1.3196,1.3899,1.4109,1.4887,1.6816,1.7691,1.8229,1.8498,1.9279,1.9941,2.0434,2.0875,2.1182,2.1276,2.1039,2.0827,2.0561,2.0444,2.0335,2.0223,2.0008,1.9944,2.0079,2.064,2.1216,2.1883,2.2418,2.3271,2.4303,2.493,2.5475,2.5916,2.6455,2.6961,2.7391,2.7259,2.814,2.9592,2.9528,2.9837,3.0316,3.0992,3.119,3.119,3.119,3.1579,3.2087,3.2263,3.3085,3.4083,3.4235,3.481,3.5402,3.5402,3.5504,3.5622,3.5622,3.5622,3.5622,3.5622,3.5622,3.5622,3.5622,3.5622,3.5622,3.5622,3.5622,3.5622,3.5622,3.5622,3.5622,3.5622,3.5622,3.5622,3.5622,3.5622,3.5622,3.5622,3.5622,3.5622,3.5622,3.5622,3.5622,3.5622,3.5622,3.5622,3.5622,3.5622,3.5622,3.5622,3.5622,3.5622,3.5622,3.5622,3.5622,3.5622,3.5622,3.5622,1.0279,1.0129,0.9965,1.0279,0.9623,0.0,0.0,0.8649,0.8589,0.9263,0.9905,1.0653,1.1625,1.2059,1.2508,1.3181,1.3301,1.3765,1.5069,1.6173,1.7105,1.7817,1.8405,1.8905,1.9291,1.9846,2.0383,2.078,2.0663,2.053,2.0444,2.0395,2.0258,2.0061,1.9833,1.969,1.969,2.0034,2.0707,2.1695,2.2051,2.2951,2.4303,2.493,2.5475,2.5916,2.6455,2.6877,2.7164,2.6847,2.7508,2.8763,2.9134,2.9572,3.0087,3.0773,3.1072,3.1112,3.119,3.1427,3.185,3.2594,3.3339,3.4083,3.4827,3.5318,3.5622,3.5622,3.5622,3.5622,3.5622,3.5622,3.5622,3.5622,3.5622,3.5622,3.5622,3.5622,3.5622,3.5622,3.5622,3.5622,3.5622,3.5622,3.5622,3.5622,3.5622,3.5622,3.5622,3.5622,3.5622,3.5622,3.5622,3.5622,3.5622,3.5622,3.5622,3.5622,3.5622,3.5622,3.5622,3.5622,3.5622,3.5622,3.5622,3.5622,3.5622,3.5622,3.5622,3.5622,3.5622,3.5622,1.1201,1.0937,1.0578,1.1072,1.0219,0.9263,0.0,0.0,0.0,0.9665,0.989,0.0,0.0,0.0,0.0,1.2516,0.0,0.0,0.0,1.4554,0.0,1.6997,1.7423,1.7761,1.8129,1.8765,1.9384,1.9909,1.9999,2.0076,2.0122,2.02,2.0208,2.0045,1.9833,1.969,1.969,1.969,2.0303,2.1515,2.1625,2.2529,2.4124,2.4811,2.5373,2.5849,2.6387,2.6708,2.6843,2.6339,2.6786,2.778,2.8514,2.9196,2.981,3.051,3.0855,3.0975,3.1151,3.1275,3.1596,3.2797,3.3288,3.366,3.4996,3.5402,3.5436,3.5571,3.5622,3.5622,3.5622,3.5622,3.5622,3.5622,3.5622,3.5622,3.5622,3.5622,3.5622,3.5622,3.5622,3.5622,3.5622,3.5622,3.5622,3.5622,3.5622,3.5622,3.5622,3.5622,3.5622,3.5622,3.5622,3.5622,3.5622,3.5622,3.5622,3.5622,3.5622,3.5622,3.5622,3.5622,3.5622,3.5622,3.5622,3.5622,3.5622,3.5622,3.5622,3.5622,3.5622,3.5622,1.3286,1.2972,1.2486,1.2561,1.1565,1.0574,1.0574,0.0,0.971,0.986,0.0,0.0,0.0,0.0,0.0,0.0,0.0,0.0,1.2831,1.3056,1.364,1.4962,1.5721,1.6454,1.7254,1.7884,1.8236,1.828,1.8877,1.9214,1.9144,1.9779,2.003,1.9833,1.9762,1.969,1.969,1.969,2.0064,2.0842,2.1401,2.2248,2.3355,2.444,2.5137,2.5497,2.6017,2.6101,2.5799,2.5901,2.6206,2.6729,2.7418,2.837,2.9425,3.014,3.0535,3.0773,3.1112,3.1613,3.2188,3.2357,3.2865,3.3558,3.437,3.4624,3.4759,3.5436,3.5622,3.5622,3.5622,3.5622,3.5622,3.5622,3.5622,3.5622,3.5622,3.5622,3.5622,3.5622,3.5622,3.5622,3.5622,3.5622,3.5622,3.5622,3.5622,3.5622,3.5622,3.5622,3.5622,3.5622,3.5622,3.5622,3.5622,3.5622,3.5622,3.5622,3.5622,3.5622,3.5622,3.5622,3.5622,3.5622,3.5622,3.5622,3.5622,3.5622,3.5622,3.5622,3.5622,3.5622,1.3735,1.3301,1.2801,1.2801,1.179,1.0798,1.0798,1.0339,0.9994,1.0354,0.0,0.0,0.0,0.0,0.0,0.0,1.1805,0.0,0.0,0.0,1.2718,1.4064,0.0,1.4983,1.5743,1.6394,1.691,1.721,1.7527,1.8025,1.8774,1.911,1.9426,1.9747,1.9726,1.969,1.969,1.969,2.0034,2.0722,2.1374,2.2203,2.3137,2.4153,2.4759,2.5036,2.5439,2.5439,2.5199,2.5067,2.5503,2.6264,2.6344,2.7473,2.9136,2.9881,3.0326,3.0651,3.1072,3.1393,3.1715,3.2178,3.2797,3.3541,3.4269,3.4489,3.4641,3.5402,3.5622,3.5622,3.5622,3.5622,3.5622,3.5622,3.5622,3.5622,3.5622,3.5622,3.5622,3.5622,3.5622,3.5622,3.5622,3.5622,3.5622,3.5622,3.5622,3.5622,3.5622,3.5622,3.5622,3.5622,3.5622,3.5622,3.5622,3.5622,3.5622,3.5622,3.5622,3.5622,3.5622,3.5622,3.5622,3.5622,3.5622,3.5622,3.5622,3.5622,3.5622,3.5622,3.5622,3.5622,1.4274,1.372,1.3062,1.3062,1.2074,1.1066,1.1066,1.0743,1.0593,1.1221,1.1356,0.0,0.0,0.0,0.0,0.0,0.0,1.1805,0.0,1.1805,0.0,0.0,0.0,0.0,1.4468,1.4989,1.55,1.6129,1.6338,1.6936,1.8104,1.8508,1.8927,1.9405,1.9585,1.969,1.969,1.969,1.9929,2.0438,2.1295,2.2029,2.2706,2.38,2.442,2.4602,2.4918,2.491,2.4721,2.4416,2.5006,2.6063,2.5804,2.7015,2.8998,2.9589,3.0087,3.0485,3.1032,3.119,3.1275,3.1799,3.2357,3.2966,3.3914,3.4201,3.4387,3.5351,3.5622,3.5622,3.5622,3.5622,3.5622,3.5622,3.5622,3.5622,3.5622,3.5622,3.5622,3.5622,3.5622,3.5622,3.5622,3.5622,3.5622,3.5622,3.5622,3.5622,3.5622,3.5622,3.5622,3.5622,3.5622,3.5622,3.5622,3.5622,3.5622,3.5622,3.5622,3.5622,3.5622,3.5622,3.5622,3.5622,3.5622,3.5622,3.5622,3.5622,3.5622,3.5622,3.5622,3.5622,1.5499,1.4767,1.378,1.378,1.2762,1.1775,1.1775,1.1745,1.1925,1.2606,1.2741,1.2951,1.3615,0.0,0.0,0.0,0.0,0.0,0.0,0.0,0.0,0.0,0.0,0.0,0.0,1.3855,1.4139,1.4797,1.5469,1.6099,1.6741,1.7981,1.8717,1.8732,1.9346,1.969,1.969,1.969,1.969,1.9735,2.1051,2.1734,2.1873,2.3432,2.4195,2.4319,2.4536,2.4496,2.4331,2.4169,2.4869,2.5988,2.6005,2.7165,2.8936,2.9307,2.9754,3.0316,3.0992,3.119,3.119,3.1224,3.1241,3.1529,3.3,3.344,3.3744,3.5216,3.5622,3.5622,3.5622,3.5622,3.5622,3.5622,3.5622,3.5622,3.5622,3.5622,3.5622,3.5622,3.5622,3.5622,3.5622,3.5622,3.5622,3.5622,3.5622,3.5622,3.5622,3.5622,3.5622,3.5622,3.5622,3.5622,3.5622,3.5622,3.5622,3.5622,3.5622,3.5622,3.5622,3.5622,3.5622,3.5622,3.5622,3.5622,3.5622,3.5622,3.5622,3.5622,3.5622,3.5622,1.5709,1.5169,1.4423,1.4244,1.366,1.2897,1.1999,1.2493,1.3062,1.2846,1.3136,1.354,1.3765,0.0,0.0,0.0,0.0,0.0,0.0,0.0,0.0,0.0,0.0,0.0,0.0,1.2882,1.3421,1.4094,1.4348,1.5141,1.6637,1.7548,1.8253,1.8687,1.9346,1.969,1.969,1.969,1.969,1.969,2.0617,2.1261,2.1764,2.2706,2.3432,2.3842,2.3889,2.3904,2.3816,2.3801,2.4661,2.6032,2.6234,2.7518,2.9227,2.955,2.9983,3.0485,3.1032,3.119,3.119,3.119,3.1512,3.2104,3.3102,3.3744,3.4336,3.5334,3.5622,3.5622,3.5622,3.5622,3.5622,3.5622,3.5622,3.5622,3.5622,3.5622,3.5622,3.5622,3.5622,3.5622,3.5622,3.5622,3.5622,3.5622,3.5622,3.5622,3.5622,3.5622,3.5622,3.5622,3.5622,3.5622,3.5622,3.5622,3.5622,3.5622,3.5622,3.5622,3.5622,3.5622,3.5622,3.5622,3.5622,3.5622,3.5622,3.5622,3.5622,3.5622,3.5622,3.5622,1.5799,1.5484,1.5022,1.4528,1.4109,1.3615,1.2897,1.3151,1.3615,1.382,1.4199,1.4648,1.5084,0.0,0.0,0.0,0.0,0.0,0.0,1.1805,0.0,0.0,0.0,0.0,0.0,1.2426,1.2996,1.3406,1.3675,1.4468,0.0,1.6861,1.7637,1.8328,1.9226,1.969,1.969,1.969,1.969,1.969,2.0617,2.1291,2.1739,2.2619,2.3213,2.3595,2.3595,2.3595,2.361,2.3874,2.478,2.6122,2.6765,2.7994,2.9526,2.9854,3.0333,3.0773,3.1112,3.119,3.1241,3.1495,3.1901,3.2517,3.3491,3.4117,3.4641,3.5402,3.5622,3.5622,3.5622,3.5622,3.5622,3.5622,3.5622,3.5622,3.5622,3.5622,3.5622,3.5622,3.5622,3.5622,3.5622,3.5622,3.5622,3.5622,3.5622,3.5622,3.5622,3.5622,3.5622,3.5622,3.5622,3.5622,3.5622,3.5622,3.5622,3.5622,3.5622,3.5622,3.5622,3.5622,3.5622,3.5622,3.5622,3.5622,3.5622,3.5622,3.5622,3.5622,3.5622,3.5622]},{"header":{"parameterUnit":"m.s-1","parameterCategory":1,"la1":30.6,"la2":29.2853,"lo1":-89.7004,"lo2":-87.6739,"dy":0.0162,"dx":0.0183,"nx":112,"ny":82,"refTime":"2026-05-08T12:00:00:Z","depth":0,"parameterNumber":3,"parameterNumberName":"V-component_of_WINDS"},"data":[0.0,0.0,0.0,0.0,0.0,0.0,0.0,0.0,0.0,0.0,0.0,0.0,0.0,0.0,0.0,0.0,0.0,0.0,0.0,0.0,0.0,0.0,0.0,0.0,0.0,0.0,0.0,0.0,0.0,0.0,0.0,0.0,0.0,0.0,0.0,0.0,0.0,0.0,0.0,0.0,0.0,0.0,0.0,0.0,0.0,0.0,0.0,0.0,0.0,0.0,0.0,0.0,0.0,0.0,0.0,0.0,0.0,0.0,0.0,0.0,0.0,0.0,0.0,0.0,0.0,0.0,0.0,0.0,0.0,0.0,0.0,0.0,0.0,0.0,0.0,0.0,0.0,0.0,0.0,0.0,0.0,0.0,0.0,0.0,0.0,0.0,0.0,0.0,0.0,0.0,-0.2281,-0.2534,-0.2795,-0.2831,-0.2558,-0.2508,-0.236,-0.2003,0.0,0.0,0.0,0.0,0.0,0.0,0.0,0.0,0.0,0.0,0.0,0.0,0.0,0.0,0.0,0.0,0.0,0.0,0.0,0.0,0.0,0.0,0.0,0.0,0.0,0.0,0.0,0.0,0.0,0.0,0.0,0.0,0.0,0.0,0.0,0.0,0.0,0.0,0.0,0.0,0.0,0.0,0.0,0.0,0.0,0.0,0.0,0.0,0.0,0.0,0.0,0.0,0.0,0.0,0.0,0.0,0.0,0.0,0.0,0.0,0.0,0.0,0.0,0.0,0.0,0.0,0.0,0.0,0.0,0.0,0.0,0.0,0.0,0.0,0.0,0.0,0.0,0.0,0.0,0.0,0.0,0.0,0.0,0.0,0.0,0.0,0.0,0.0,0.0,0.0,0.0,0.0,0.0,0.0,0.0,0.0,0.0,0.0,0.0,0.0,0.0,0.0,0.0,0.0,-0.2361,-0.2798,-0.3065,-0.305,-0.2639,-0.2802,-0.2608,-0.1954,0.0,0.0,0.0,0.0,0.0,0.0,0.0,0.0,0.0,0.0,0.0,0.0,0.0,0.0,0.0,0.0,0.0,0.0,0.0,0.0,0.0,0.0,0.0,0.0,0.0,0.0,0.0,0.0,0.0,0.0,0.0,0.0,0.0,0.0,0.0,0.0,0.0,0.0,0.0,0.0,0.0,0.0,0.0,0.0,0.0,0.0,0.0,0.0,0.0,0.0,0.0,0.0,0.0,0.0,0.0,0.0,0.0,0.0,0.0,0.0,0.0,0.0,0.0,0.0,0.0,0.0,0.0,0.0,0.0,0.0,0.0,0.0,0.0,0.0,0.0,0.0,0.0,0.0,0.0,0.0,0.0,0.0,0.0,0.0,0.0,0.0,0.0,0.0,0.0,0.0,0.0,0.0,0.0,0.0,0.0,0.0,0.0,0.0,0.0,0.0,0.0,0.0,0.0,-0.2294,-0.2649,-0.2771,-0.3049,-0.2991,-0.2495,-0.2546,-0.2329,-0.1681,-0.1564,0.0,0.0,0.0,0.0,0.0,0.0,0.0,0.0,0.0,0.0,0.0,0.0,0.0,0.0,0.0,0.0,0.0,0.0,0.0,0.0,0.0,0.0,0.0,0.0,0.0,0.0,0.0,0.0,0.0,0.0,0.0,0.0,0.0,0.0,0.0,0.0,0.0,0.0,0.0,0.0,0.0,0.0,0.0,0.0,0.0,0.0,0.0,0.0,0.0,0.0,0.0,0.0,0.0,0.0,0.0,0.0,0.0,0.0,0.0,0.0,0.0,0.0,0.0,0.0,0.0,0.0,0.0,0.0,0.0,0.0,0.0,0.0,0.0,0.0,0.0,0.0,0.0,0.0,0.0,0.0,0.0,0.0,0.0,0.0,0.0,0.0,0.0,0.0,0.0,0.0,0.0,0.0,0.0,0.0,0.0,0.0,0.0,0.0,0.0,0.0,0.0,0.0,-0.2626,-0.2903,-0.2751,-0.2998,-0.2942,-0.2384,-0.2296,-0.2015,-0.1414,-0.1092,0.0,0.0,0.0,0.0,0.0,0.0,0.0,0.0,0.0,0.0,0.0,0.0,0.0,0.0,0.0,0.0,0.0,0.0,0.0,0.0,0.0,0.0,0.0,0.0,0.0,0.0,0.0,0.0,0.0,0.0,0.0,0.0,0.0,0.0,0.0,0.0,0.0,0.0,0.0,0.0,0.0,0.0,0.0,0.0,0.0,0.0,0.0,0.0,0.0,0.0,0.0,0.0,0.0,0.0,0.0,0.0,0.0,0.0,0.0,0.0,0.0,0.0,0.0,0.0,0.0,0.0,0.0,0.0,0.0,0.0,0.0,0.0,0.0,0.0,0.0,0.0,0.0,0.0,0.0,0.0,0.0,0.0,0.0,0.0,0.0,0.0,0.0,0.0,0.0,0.0,0.0,0.0,0.0,0.0,0.0,0.0,0.0,0.0,0.0,0.0,0.0,0.0,-0.2713,-0.3052,-0.291,-0.3118,-0.305,-0.2438,-0.2205,-0.1897,-0.1333,-0.0755,0.0,0.0,0.0,0.0,0.0,0.0,0.0,0.0,0.0,0.0,0.0,0.0,0.0,0.0,0.0,0.0,0.0,0.0,0.0,0.0,0.0,0.0,0.0,0.0,0.0,0.0,0.0,0.0,0.0,0.0,0.0,0.0,0.0,0.0,0.0,0.0,0.0,0.0,0.0,0.0,0.0,0.0,0.0,0.0,0.0,0.0,0.0,0.0,0.0,0.0,0.0,0.0,0.0,0.0,0.0,0.0,0.0,0.0,0.0,0.0,0.0,0.0,0.0,0.0,0.0,0.0,0.0,0.0,0.0,0.0,0.0,0.0,0.0,0.0,0.0,0.0,0.0,0.0,0.0,0.0,0.0,0.0,0.0,0.0,0.0,0.0,0.0,0.0,0.0,0.0,0.0,0.0,0.0,0.0,0.0,0.0,0.0,0.0,0.0,0.0,0.0,0.0,-0.272,-0.3028,0.0,-0.2972,-0.2823,-0.2161,-0.211,-0.1767,-0.1049,0.0,0.0,0.0,0.0,0.0,0.0,0.0,0.0,0.0,0.0,0.0,0.0,0.0,0.0,0.0,0.0,0.0,0.0,0.0,0.0,0.0,0.0,0.0,0.0,0.0,0.0,0.0,0.0,0.0,0.0,0.0,0.0,0.0,0.0,0.0,0.0,0.0,0.0,0.0,0.0,0.0,0.0,0.0,0.0,0.0,0.0,0.0,0.0,0.0,0.0,0.0,0.0,0.0,0.0,0.0,0.0,0.0,0.0,0.0,0.0,0.0,0.0,0.0,0.0,0.0,0.0,0.0,0.0,0.0,0.0,0.0,0.0,0.0,0.0,0.0,0.0,0.0,0.0,0.0,0.0,0.0,0.0,0.0,0.0,0.0,0.0,0.0,0.0,0.0,0.0,0.0,0.0,0.0,0.0,0.0,0.0,0.0,0.0,0.0,0.0,0.0,0.0,-0.2269,-0.2781,-0.3023,0.0,-0.3023,-0.2888,-0.2107,-0.2389,-0.2152,-0.1107,0.0,0.0,0.0,0.0,0.0,0.0,0.0,0.0,0.0,0.0,0.0,0.0,0.0,0.0,0.0,0.0,0.0,0.0,0.0,0.0,0.0,0.0,0.0,0.0,0.0,0.0,0.0,0.0,0.0,0.0,0.0,0.0,0.0,0.0,0.0,0.0,0.0,0.0,0.0,0.0,0.0,0.0,0.0,0.0,0.0,0.0,0.0,0.0,0.0,0.0,0.0,0.0,0.0,0.0,0.0,0.0,0.0,0.0,0.0,0.0,0.0,0.0,0.0,0.0,0.0,0.0,0.0,0.0,0.0,0.0,0.0,0.0,0.0,0.0,0.0,0.0,0.0,0.0,0.0,0.0,0.0,0.0,0.0,0.0,0.0,0.0,0.0,0.0,0.0,0.0,0.0,0.0,0.0,0.0,0.0,0.0,0.0,0.0,0.0,0.0,0.0,0.0,-0.2445,-0.2842,-0.3057,-0.2994,-0.3354,-0.3288,-0.2455,-0.3115,-0.3011,0.0,0.0,0.0,0.0,0.0,0.0,0.0,0.0,0.0,0.0,0.0,0.0,0.0,0.0,0.0,0.0,0.0,0.0,0.0,0.0,0.0,0.0,0.0,0.0,0.0,0.0,0.0,0.0,0.0,0.0,0.0,0.0,0.0,0.0,0.0,0.0,0.0,0.0,0.0,0.0,0.0,0.0,0.0,0.0,0.0,0.0,0.0,0.0,0.0,0.0,0.0,0.0,0.0,0.0,0.0,0.0,0.0,0.0,0.0,0.0,0.0,0.0,0.0,0.0,0.0,0.0,0.0,0.0,0.0,0.0,0.0,0.0,0.0,0.0,0.0,0.0,0.0,0.0,0.0,0.0,0.0,0.0,0.0,0.0,0.0,0.0,0.0,0.0,0.0,0.0,0.0,0.0,0.0,0.0,0.0,0.0,0.0,0.0,0.0,0.0,0.0,0.0,0.0,-0.2431,-0.2842,-0.302,-0.2876,-0.3101,-0.2902,-0.2135,-0.2402,-0.21,-0.0887,0.0,0.0,0.0,0.0,0.0,0.0,0.0,0.0,0.0,0.0,0.0,0.0,0.0,0.0,0.0,0.0,0.0,0.0,0.0,0.0,0.0,0.0,0.0,0.0,0.0,0.0,0.0,0.0,0.0,0.0,0.0,0.0,0.0,0.0,0.0,0.0,0.0,0.0,0.0,0.0,0.0,0.0,0.0,0.0,0.0,0.0,0.0,0.0,0.0,0.0,0.0,0.0,0.0,0.0,0.0,0.0,0.0,0.0,0.0,0.0,0.0,0.0,0.0,0.0,0.0,0.0,0.0,0.0,0.0,0.0,0.0,0.0,0.0,0.0,0.0,0.0,0.0,0.0,0.0,0.0,0.0,0.0,0.0,0.0,0.0,0.0,0.0,0.0,0.0,0.0,0.0,0.0,0.0,0.0,0.0,0.0,0.0,0.0,0.0,0.0,0.0,0.0,-0.2609,-0.2971,-0.3108,-0.2873,-0.2959,-0.2616,-0.1663,-0.143,-0.1021,-0.0355,0.0,0.0,0.0,0.0,0.0,0.0,0.0,0.0,0.0,0.0,0.0,0.0,0.0,0.0,0.0,0.0,0.0,0.0,0.0,0.0,0.0,0.0,0.0,0.0,0.0,0.0,0.0,0.0,0.0,0.0,0.0,0.0,0.0,0.0,0.0,0.0,0.0,0.0,0.0,0.0,0.0,0.0,0.0,0.0,0.0,0.0,0.0,0.0,0.0,0.0,0.0,0.0,0.0,0.0,0.0,0.0,0.0,0.0,0.0,0.0,0.0,0.0,0.0,0.0,0.0,0.0,0.0,0.0,0.0,0.0,0.0,0.0,0.0,0.0,0.0,0.0,0.0,0.0,0.0,0.0,0.0,0.0,0.0,0.0,0.0,0.0,0.0,0.0,0.0,0.0,0.0,0.0,0.0,0.0,0.0,0.0,0.0,0.0,0.0,0.0,0.0,0.0,-0.2852,-0.3125,-0.3197,-0.2943,-0.2912,-0.242,-0.1221,-0.0443,0.0,0.0,0.0,0.0,0.0,0.0,0.0,0.0,0.0,0.0,0.0,0.0,0.0,0.0,0.0,0.0,0.0,0.0,0.0,0.0,0.0,0.0,0.0,0.0,0.0,0.0,0.0,0.0,0.0,0.0,0.0,0.0,0.0,0.0,0.0,0.0,0.0,0.0,0.0,0.0,0.0,0.0,0.0,0.0,0.0,0.0,0.0,0.0,0.0,0.0,0.0,0.0,0.0,0.0,0.0,0.0,0.0,0.0,0.0,0.0,0.0,0.0,-0.2304,-0.2276,0.0,0.0,0.0,0.0,0.0,0.0,0.0,0.0,0.0,0.0,0.0,0.0,0.0,0.0,0.0,0.0,0.0,0.0,0.0,0.0,0.0,0.0,0.0,0.0,0.0,0.0,0.0,0.0,0.0,0.0,0.0,0.0,0.0,0.0,0.0,0.0,0.0,0.0,0.0,0.0,-0.2852,-0.3125,-0.3197,-0.2943,-0.2912,-0.242,-0.1221,-0.0443,0.0,0.0,0.0,0.0,0.0,0.0,0.0,0.0,0.0,0.0,0.0,0.0,0.0,0.0,0.0,0.0,0.0,0.0,0.0,0.0,0.0,0.0,0.0,0.0,0.0,0.0,0.0,0.0,0.0,0.0,0.0,0.0,0.0,0.0,0.0,0.0,0.0,0.0,0.0,0.0,0.0,0.0,0.0,0.0,0.0,0.0,0.0,0.0,0.0,0.0,0.0,0.0,0.0,0.0,0.0,0.0,0.0,0.0,0.0,0.0,0.0,0.0,-0.2669,-0.2588,0.0,0.0,0.0,0.0,0.0,0.0,0.0,0.0,0.0,0.0,0.0,0.0,0.0,0.0,0.0,0.0,0.0,0.0,0.0,0.0,0.0,0.0,0.0,0.0,0.0,0.0,0.0,0.0,0.0,0.0,0.0,0.0,0.0,0.0,0.0,0.0,0.0,0.0,0.0,0.0,-0.2961,-0.3273,-0.3317,-0.2948,-0.2912,-0.2397,-0.1215,-0.0417,0.0,0.0,0.0,0.0,0.0,0.0,0.0,0.0,0.0,0.0,0.0,0.0,0.0,0.0,0.0,0.0,0.0,0.0,0.0,0.0,0.0,0.0,0.0,0.0,0.0,0.0,0.0,0.0,0.0,0.0,0.0,0.0,0.0,0.0,0.0,0.0,0.0,0.0,0.0,0.0,0.0,0.0,0.0,0.0,0.0,0.0,0.0,0.0,0.0,0.0,0.0,0.0,0.0,0.0,0.0,0.0,-0.3236,-0.3056,-0.2706,-0.3334,-0.3456,-0.3232,-0.3141,-0.2988,-0.2798,-0.2829,0.0,0.0,0.0,0.0,0.0,0.0,0.0,0.0,0.0,0.0,0.0,0.0,0.0,0.0,0.0,0.0,0.0,0.0,0.0,0.0,0.0,0.0,-0.3198,-0.3198,-0.3198,-0.3134,-0.289,0.0,0.0,0.0,0.0,0.0,0.0,0.0,0.0,0.0,0.0,0.0,-0.3086,-0.3388,-0.3404,-0.2957,-0.2912,-0.2417,-0.1208,-0.0431,0.0,0.0,0.0,0.0,0.0,0.0,0.0,0.0,0.0,0.0,0.0,0.0,0.0,0.0,0.0,0.0,0.0,0.0,0.0,0.0,0.0,0.0,0.0,0.0,0.0,0.0,0.0,0.0,0.0,0.0,0.0,0.0,0.0,0.0,0.0,0.0,-0.3333,-0.3486,0.0,0.0,0.0,0.0,0.0,0.0,0.0,0.0,0.0,0.0,0.0,0.0,0.0,-0.2891,-0.3492,-0.3541,-0.369,-0.39,-0.39,-0.3737,-0.3478,-0.3534,-0.3626,-0.371,-0.3826,0.0,-0.3232,-0.3405,0.0,0.0,0.0,0.0,0.0,0.0,0.0,0.0,0.0,0.0,0.0,0.0,0.0,0.0,0.0,0.0,0.0,0.0,0.0,0.0,0.0,0.0,-0.352,-0.352,-0.352,-0.351,-0.347,-0.3253,-0.3018,-0.2876,-0.2727,-0.2606,0.0,0.0,0.0,0.0,0.0,0.0,-0.3062,-0.3388,-0.3404,-0.2957,-0.2912,-0.2417,-0.1208,-0.0431,0.0,0.0,0.0,0.0,0.0,0.0,0.0,0.0,0.0,0.0,0.0,0.0,0.0,0.0,0.0,0.0,0.0,0.0,0.0,0.0,0.0,0.0,0.0,0.0,0.0,0.0,0.0,0.0,0.0,0.0,0.0,0.0,0.0,0.0,0.0,-0.3128,-0.3752,-0.4436,-0.4516,-0.4382,0.0,0.0,0.0,0.0,0.0,0.0,0.0,0.0,0.0,-0.4913,-0.4238,-0.3783,-0.3619,-0.3581,-0.3646,-0.3775,-0.3941,-0.3951,-0.3829,-0.3829,-0.3951,-0.4172,-0.4239,-0.4155,-0.3961,-0.3775,-0.3537,-0.328,0.0,0.0,0.0,0.0,-0.3152,-0.3188,-0.3188,-0.3188,-0.3198,-0.3263,0.0,0.0,0.0,0.0,0.0,0.0,0.0,-0.3432,-0.3621,-0.3775,-0.3829,-0.3829,-0.3829,-0.3829,-0.3829,-0.3653,-0.3429,-0.3162,-0.3032,-0.2883,-0.2734,-0.2584,0.0,0.0,0.0,-0.3045,-0.3189,-0.3442,-0.3404,-0.2957,-0.2912,-0.2417,-0.1208,-0.0441,0.0,0.0,0.0,0.0,0.0,0.0,0.0,0.0,0.0,0.0,0.0,0.0,0.0,0.0,0.0,0.0,0.0,0.0,0.0,0.0,0.0,0.0,0.0,0.0,0.0,0.0,0.0,0.0,0.0,0.0,0.0,0.0,0.0,0.0,0.0,-0.3493,-0.4188,-0.5195,-0.5309,-0.5195,0.0,0.0,0.0,0.0,0.0,0.0,-0.5942,-0.568,-0.523,-0.451,-0.4647,-0.4466,-0.3849,-0.3852,-0.3852,-0.3856,-0.4026,-0.4134,-0.4134,-0.4134,-0.4253,-0.4519,-0.4519,-0.4519,-0.4488,-0.406,-0.3822,-0.3683,-0.3612,-0.3567,-0.3567,-0.3567,-0.364,-0.3693,-0.3693,-0.3693,-0.37,-0.3737,-0.3646,-0.3537,-0.3341,0.0,0.0,0.0,0.0,-0.3744,-0.3965,-0.4019,-0.4019,-0.4019,-0.4019,-0.4019,-0.4019,-0.3931,-0.3775,-0.347,-0.3269,-0.3105,-0.3001,-0.2896,0.0,-0.2947,-0.3048,-0.3182,-0.3293,-0.3483,-0.3404,-0.2957,-0.2912,-0.2417,-0.1208,-0.0404,0.0,0.0,0.0,0.0,0.0,0.0,0.0,0.0,0.0,0.0,0.0,0.0,0.0,0.0,0.0,0.0,0.0,0.0,0.0,0.0,0.0,0.0,0.0,0.0,0.0,0.0,0.0,0.0,0.0,0.0,0.0,0.0,0.0,0.0,0.0,0.0,0.0,-0.5262,-0.5309,0.0,0.0,0.0,0.0,-0.5269,-0.6306,-0.6842,-0.6666,-0.6394,-0.5629,-0.4249,-0.449,-0.4576,-0.4467,-0.4474,-0.4474,-0.4474,-0.4488,-0.4494,-0.4494,-0.4494,-0.4505,-0.4519,-0.4519,-0.4519,-0.4505,-0.429,-0.4083,-0.3995,-0.3988,-0.3985,-0.3985,-0.3985,-0.3992,-0.3995,-0.3995,-0.3995,-0.4022,-0.4117,-0.406,-0.3958,-0.3802,-0.3751,0.0,0.0,-0.3887,-0.3999,-0.4016,-0.4019,-0.4019,-0.4019,-0.4019,-0.4019,-0.4019,-0.4016,-0.3961,-0.3799,-0.349,-0.3293,-0.3286,0.0,-0.31,-0.3107,-0.3199,-0.3299,-0.3306,-0.3483,-0.3404,-0.2957,-0.2912,-0.2417,-0.1208,-0.0404,0.0,0.0,0.0,0.0,0.0,0.0,0.0,0.0,0.0,0.0,0.0,0.0,0.0,0.0,0.0,0.0,0.0,0.0,0.0,0.0,0.0,0.0,0.0,0.0,0.0,0.0,0.0,0.0,0.0,0.0,0.0,0.0,0.0,0.0,0.0,0.0,0.0,-0.5295,-0.5759,0.0,-0.6189,-0.5813,-0.5652,-0.586,-0.6941,-0.7563,-0.7478,-0.7036,-0.6342,-0.5374,-0.4831,-0.4348,-0.3942,-0.4326,-0.4519,-0.4519,-0.4519,-0.4519,-0.4519,-0.4519,-0.4568,-0.4752,-0.4684,-0.4786,-0.49,-0.4728,-0.4421,-0.4117,-0.4117,-0.4117,-0.4117,-0.4117,-0.4226,-0.4304,-0.4304,-0.4304,-0.4297,-0.4207,-0.416,-0.4086,-0.3985,-0.3938,-0.3958,-0.4009,-0.4073,-0.4137,-0.428,-0.4304,-0.4304,-0.4304,-0.4304,-0.4304,-0.4304,-0.4233,-0.41,-0.4043,-0.3839,-0.3632,-0.3632,-0.3514,-0.3415,-0.3415,-0.3463,-0.3497,-0.3497,-0.3548,-0.3404,-0.2957,-0.2912,-0.2417,-0.1208,-0.0404,0.0,0.0,0.0,0.0,0.0,0.0,0.0,0.0,0.0,0.0,0.0,0.0,0.0,0.0,0.0,0.0,0.0,0.0,0.0,0.0,0.0,0.0,0.0,0.0,0.0,0.0,0.0,0.0,0.0,0.0,0.0,0.0,0.0,0.0,0.0,0.0,-0.5464,-0.5598,-0.6156,-0.6485,-0.635,-0.625,-0.6277,-0.6471,-0.7181,-0.7756,-0.8203,-0.7692,-0.7007,-0.6168,-0.5461,-0.468,-0.3928,-0.4319,-0.4519,-0.4519,-0.4519,-0.4625,-0.4821,-0.4683,-0.4711,-0.4962,-0.486,-0.4891,-0.5009,-0.4945,-0.4745,-0.4418,-0.4418,-0.4418,-0.4418,-0.4418,-0.4535,-0.4616,-0.4616,-0.4616,-0.4602,-0.4507,-0.4418,-0.4398,-0.4355,-0.4324,-0.4345,-0.4391,-0.4418,-0.4438,-0.4592,-0.4579,-0.4538,-0.4538,-0.4556,-0.4519,-0.4519,-0.4389,-0.4321,-0.4321,-0.4077,-0.387,-0.387,-0.3792,-0.3727,-0.3727,-0.3727,-0.371,-0.3656,-0.3649,-0.3497,-0.3001,-0.2821,-0.2284,-0.1164,-0.0404,0.0,0.0,0.0,0.0,0.0,0.0,0.0,0.0,0.0,0.0,-0.0,0.0,0.0,0.0,0.0,0.0,0.0,0.0,0.0,0.0,0.0,0.0,0.0,0.0,0.0,0.0,0.0,0.0,0.0,0.0,0.0,0.0,0.0,0.0,-0.5262,-0.5544,-0.5845,-0.6169,-0.6465,-0.6607,-0.6607,-0.6398,-0.6471,-0.6981,-0.7018,-0.7582,-0.8744,-0.827,-0.7464,-0.6526,-0.6364,-0.5732,-0.4574,-0.4519,-0.4525,-0.4546,-0.4532,-0.4841,-0.5404,-0.5006,-0.4934,-0.5119,-0.4965,-0.4928,-0.4935,-0.4935,-0.4935,-0.4931,-0.4921,-0.4918,-0.4918,-0.4918,-0.4918,-0.4918,-0.4918,-0.4918,-0.4918,-0.4918,-0.4918,-0.4918,-0.4918,-0.4918,-0.4918,-0.4918,-0.4918,-0.4918,-0.4918,-0.4809,-0.4697,-0.4694,-0.4579,-0.4522,-0.4519,-0.4519,-0.4519,-0.4519,-0.4229,-0.4033,-0.4026,-0.4022,-0.4019,-0.4019,-0.4019,0.0,-0.3819,-0.3799,-0.3602,-0.3054,-0.264,-0.2059,-0.1119,-0.0404,-0.0,-0.0,0.0,0.0,0.0,0.0,0.0,0.0,0.0,0.0,0.0,0.0,0.0,0.0,0.0,0.0,0.0,0.0,0.0,0.0,0.0,0.0,0.0,0.0,0.0,0.0,0.0,0.0,0.0,0.0,0.0,0.0,-0.5652,-0.5678,-0.5356,-0.5898,-0.6379,-0.6498,-0.6727,-0.6901,-0.6901,-0.7088,-0.7154,-0.6992,-0.7829,-0.8464,-0.8791,-0.8651,-0.8439,-0.813,-0.8111,-0.7354,-0.5732,-0.4904,-0.4738,-0.5174,-0.4879,-0.4903,-0.5202,-0.4958,-0.4962,-0.5111,-0.5084,-0.5135,-0.524,-0.524,-0.524,-0.522,-0.5003,-0.4918,-0.4918,-0.4918,-0.4918,-0.4918,-0.4918,-0.4918,-0.4918,-0.4918,-0.4918,-0.4918,-0.4918,-0.4918,-0.4918,-0.4918,-0.4918,-0.4918,-0.4918,-0.4887,-0.4826,-0.4718,-0.466,-0.4599,-0.4543,-0.4519,-0.4519,-0.4519,-0.445,-0.4307,-0.415,-0.4043,-0.4019,-0.4019,-0.4019,-0.4005,-0.3961,-0.3958,-0.3752,-0.333,-0.3129,-0.2677,-0.1746,-0.0939,-0.0352,-0.0042,0.0,0.0,0.0,0.0,0.0,0.0,0.0,0.0,0.0,0.0,0.0,0.0,0.0,0.0,0.0,0.0,0.0,0.0,0.0,0.0,0.0,0.0,0.0,0.0,0.0,0.0,0.0,0.0,0.0,0.0,-0.6398,-0.6359,-0.5892,-0.6266,-0.6633,-0.6754,-0.6921,-0.6979,-0.6979,-0.7228,-0.7375,-0.7357,-0.8277,-0.8804,-0.8804,-0.8804,-0.8804,-0.8804,-0.8804,-0.8385,-0.7571,-0.6329,-0.5656,-0.5676,-0.5528,-0.5547,-0.5631,-0.5377,-0.5276,-0.5288,-0.5226,-0.5277,-0.5428,-0.5428,-0.5428,-0.5411,0.0,0.0,0.0,0.0,-0.5104,-0.5104,-0.5104,-0.5104,-0.5104,-0.5104,-0.5104,-0.5104,-0.5104,-0.5104,-0.5104,-0.5104,-0.5104,-0.5104,-0.5104,-0.5057,-0.4986,-0.4897,-0.483,-0.4762,-0.4674,-0.4602,-0.4558,-0.4558,-0.4563,0.0,-0.4351,-0.4263,-0.4206,-0.4206,-0.4206,-0.4185,-0.4073,-0.4063,-0.3956,-0.3614,-0.3405,-0.3009,-0.2299,-0.1536,0.0,0.0,0.0,0.0,0.0,0.0,0.0,0.0,0.0,0.0,0.0,0.0,0.0,0.0,-0.0678,-0.1151,0.0,0.0,0.0,0.0,0.0,0.0,0.0,0.0,0.0,0.0,0.0,0.0,0.0,0.0,0.0,0.0,-0.6687,-0.6934,-0.6673,-0.664,-0.6734,-0.6994,-0.6979,-0.6992,-0.7068,-0.7081,-0.7277,-0.7842,-0.8477,-0.8804,-0.8804,0.0,0.0,0.0,0.0,-0.9058,-0.9509,-0.8105,-0.7021,-0.6298,-0.6516,-0.6569,-0.6478,-0.6053,-0.5743,-0.5617,-0.5491,-0.5428,-0.5428,-0.5428,-0.5428,-0.5428,-0.5428,-0.5428,-0.5428,-0.5428,-0.5428,-0.5428,-0.5428,0.0,0.0,-0.5428,-0.5428,-0.5428,-0.5428,-0.5428,-0.5428,-0.5428,-0.5428,-0.5428,-0.5428,-0.526,-0.5152,-0.5135,-0.5033,-0.4938,-0.4921,-0.4813,-0.4711,-0.4694,-0.4582,-0.4539,-0.4522,-0.4519,-0.4519,-0.4519,-0.4519,-0.4416,-0.4237,-0.422,-0.416,-0.3855,-0.3584,0.0,-0.2825,-0.2263,-0.1533,-0.072,-0.026,0.0,0.0,0.0,0.0,0.0,0.0,0.0,-0.0,-0.0543,-0.1089,-0.1649,-0.1481,-0.2144,0.0,0.0,0.0,0.0,0.0,0.0,0.0,0.0,0.0,0.0,0.0,0.0,0.0,0.0,0.0,-0.668,-0.6947,-0.6959,-0.6947,-0.6941,-0.6961,-0.7014,-0.6979,-0.7114,-0.7355,-0.7448,-0.7615,-0.7862,-0.8477,-0.8804,-0.8804,-0.8804,-0.8804,-0.8804,-0.8804,-0.909,-0.9669,-0.8404,-0.7963,-0.8281,-0.7736,0.0,-0.719,-0.6755,-0.6302,-0.6013,-0.5557,-0.5428,-0.5428,-0.5428,-0.5428,-0.5428,-0.5428,-0.5428,-0.5428,-0.5428,-0.5428,-0.5428,-0.5428,-0.5428,-0.5428,-0.5428,-0.5428,-0.5428,-0.5428,-0.5428,0.0,-0.5428,-0.5428,-0.5428,-0.5428,-0.5338,-0.5284,-0.5162,-0.5108,-0.5057,-0.4945,-0.4897,-0.484,-0.4714,-0.4667,-0.4609,-0.4539,-0.4519,-0.4519,-0.4519,-0.4519,-0.4508,-0.4426,-0.4423,-0.4365,-0.4167,-0.4075,-0.3904,-0.3538,-0.317,-0.2581,-0.1689,-0.0588,0.0,0.0,0.0,0.0,0.0,0.0,0.0,-0.0,-0.0869,-0.1943,-0.3126,-0.1971,-0.1743,0.0,0.0,0.0,0.0,0.0,0.0,0.0,0.0,0.0,0.0,0.0,-0.4816,-0.5242,0.0,-0.6346,-0.6927,-0.6979,-0.6979,-0.6979,-0.6979,-0.6979,-0.6979,-0.6979,-0.7141,-0.7479,-0.7649,-0.7856,-0.8014,-0.853,-0.8804,-0.8804,-0.8804,-0.8804,-0.8804,-0.8998,-0.9276,-0.9643,-0.893,-0.8786,-0.9128,-0.8615,-0.8239,-0.7902,-0.7442,-0.699,-0.6605,-0.6152,-0.5888,-0.5752,-0.5554,-0.5491,-0.5428,-0.5428,-0.5428,-0.5428,-0.5428,-0.5428,-0.5428,-0.5428,-0.5428,-0.5428,-0.5428,-0.5428,-0.5428,-0.5428,-0.5428,-0.5428,-0.5428,-0.5428,-0.5428,-0.5428,-0.5428,-0.5342,-0.5264,-0.5186,-0.5131,-0.5138,-0.5023,-0.4918,-0.4911,-0.4792,-0.4667,-0.4589,-0.457,-0.4519,-0.4519,-0.4519,-0.4519,-0.4519,-0.4519,-0.4436,-0.4362,-0.4237,-0.4111,-0.393,-0.334,-0.2659,-0.1851,-0.0868,-0.0358,-0.036,-0.036,-0.0356,-0.0348,-0.0348,-0.0348,-0.0348,-0.1245,-0.2133,-0.2966,-0.2398,-0.2464,0.0,0.0,0.0,0.0,0.0,0.0,0.0,0.0,-0.623,-0.6033,-0.5766,-0.5602,-0.569,-0.6399,-0.7017,-0.7098,-0.7112,-0.7112,-0.7021,-0.6979,-0.6979,-0.6979,-0.6979,-0.7161,-0.7522,-0.7816,-0.8034,-0.8317,-0.8631,-0.8804,-0.8804,-0.8804,-0.8844,-0.8918,-0.9205,-0.9451,-0.9687,-0.9516,-0.9562,-0.9709,-0.9466,-0.9139,-0.8748,-0.8226,-0.7842,-0.7456,-0.6872,-0.6478,-0.6276,-0.5881,-0.5554,-0.5428,-0.5428,-0.5428,-0.5428,-0.5428,-0.5428,-0.5428,-0.5428,-0.5428,-0.5428,-0.5428,-0.5428,-0.5428,-0.5428,-0.5428,-0.5428,-0.5428,-0.5428,-0.5428,-0.5428,-0.5428,-0.5428,-0.5428,-0.5267,-0.5209,-0.5335,-0.5176,-0.5023,-0.5077,-0.4897,-0.4718,-0.4657,-0.4545,-0.4519,-0.4519,-0.4519,-0.4519,-0.4519,-0.4519,-0.4519,-0.4519,-0.4358,-0.4224,-0.4141,-0.3374,-0.2665,-0.2112,-0.1444,-0.1101,-0.115,-0.115,-0.115,-0.115,-0.115,-0.115,-0.115,-0.1851,-0.2409,-0.2745,-0.2946,-0.3337,-0.6287,-0.6288,-0.6448,-0.6511,-0.6803,-0.703,0.0,0.0,-0.6852,-0.6711,-0.6654,-0.6731,-0.7024,-0.6982,-0.7015,-0.7404,-0.7545,-0.7496,-0.7063,-0.6979,-0.6979,-0.6979,-0.6979,-0.7204,-0.7822,-0.807,-0.8343,-0.8711,-0.8784,-0.8804,-0.8804,-0.8804,-0.8965,-0.9312,-0.9285,-0.9469,-1.0033,-1.0046,-1.0137,-1.0491,-1.0428,-1.0238,-0.9792,-0.9332,-0.8877,-0.8479,-0.7642,-0.7055,-0.6588,-0.6207,-0.5818,-0.5428,-0.5428,-0.5428,-0.5428,-0.5428,-0.5428,-0.5428,-0.5428,-0.5428,-0.5428,-0.5428,-0.5428,-0.5428,-0.5428,-0.5428,-0.5428,-0.5428,-0.5428,-0.5428,-0.5428,-0.5428,-0.5428,-0.5428,-0.5415,-0.5342,-0.5425,-0.5401,-0.524,-0.4992,-0.4914,-0.4806,-0.4591,-0.4529,-0.4519,-0.4519,-0.4519,-0.4519,-0.4519,-0.4519,-0.4519,-0.4519,-0.4501,-0.4389,-0.4207,-0.3951,-0.3673,-0.3409,-0.2834,-0.2533,-0.274,-0.274,-0.274,-0.274,-0.274,-0.274,-0.274,-0.3147,-0.3556,-0.3969,-0.3737,-0.357,-0.7404,-0.7637,-0.795,0.0,-0.814,-0.8494,-0.8117,-0.8031,-0.799,-0.7864,-0.7862,-0.7929,-0.8079,-0.7849,-0.7671,0.0,-0.7655,-0.7412,-0.707,-0.6979,-0.7108,-0.7335,-0.7315,-0.7448,-0.7842,-0.8061,-0.8383,-0.8778,-0.8804,-0.8804,-0.8804,-0.8965,-0.9132,-0.9299,-0.9593,-0.9866,-1.0114,-1.0287,-1.0441,-1.0624,-1.0624,-1.0434,-1.018,-0.9779,-0.9326,-0.8812,-0.8166,-0.7512,-0.6985,-0.6474,-0.5954,-0.5428,-0.5428,-0.5416,-0.5484,-0.5463,-0.5428,-0.5428,-0.5428,-0.5428,-0.5428,-0.5428,-0.5428,-0.5428,-0.5428,-0.5428,-0.5428,-0.5428,-0.5428,-0.5428,-0.5428,-0.5428,-0.5428,-0.5428,-0.5291,-0.525,-0.5342,-0.5226,-0.5091,-0.505,-0.4904,-0.4745,-0.4616,-0.4577,-0.4519,-0.4519,-0.4519,-0.4519,-0.4519,-0.4519,-0.4519,-0.4519,-0.4519,-0.4491,-0.4379,-0.4134,-0.3902,-0.3688,-0.3256,-0.3016,-0.3021,-0.3021,-0.3021,-0.3021,-0.3021,-0.3021,-0.3021,-0.3343,-0.364,-0.3901,-0.3984,-0.4015,-0.8484,0.0,0.0,-0.8902,-0.9372,-0.9763,-0.9317,-0.9152,-0.9055,-0.8941,-0.8889,-0.8878,-0.8878,-0.8626,-0.8456,-0.8456,-0.8062,-0.7737,-0.7729,-0.7726,-0.7795,-0.7981,-0.7921,-0.7942,-0.8078,-0.8183,-0.8417,-0.8778,-0.8804,-0.8844,-0.8925,-0.907,-0.9256,-0.9422,-0.9893,-1.0154,-1.0241,-1.0454,-1.0624,-1.0624,-1.0624,-1.0498,-1.0364,-1.0104,-0.9779,-0.9402,-0.8812,-0.8096,-0.7381,-0.6858,-0.6156,-0.543,-0.5467,-0.5552,-0.5633,-0.5525,-0.5457,-0.5416,-0.5442,-0.5428,-0.5428,-0.5428,-0.5428,-0.5428,-0.5428,-0.5428,-0.5428,-0.5428,-0.5428,-0.5428,-0.5428,-0.5428,-0.5428,-0.5428,-0.5277,-0.5223,-0.5338,-0.5192,-0.506,-0.5118,-0.4958,-0.4785,-0.4704,-0.4599,-0.4567,-0.4525,-0.4519,-0.4519,-0.4519,-0.4519,-0.4519,-0.4519,-0.4519,-0.4519,-0.4519,-0.4311,-0.4144,-0.3924,-0.373,-0.3573,-0.3416,-0.3416,-0.3416,-0.3416,-0.3416,-0.3416,-0.3416,-0.367,-0.3824,-0.3928,-0.4197,-0.4356,0.0,0.0,-0.9579,-0.9955,-1.0294,-1.0524,-1.0283,-0.9981,-0.9765,-0.9664,-0.9448,-0.9279,-0.9279,-0.9279,-0.9288,-0.9337,-0.8967,-0.8869,-0.943,-0.9504,-0.9409,-0.8999,-0.8862,-0.8735,0.0,-0.8464,-0.849,-0.8784,-0.8804,-0.8931,-0.9157,-0.9183,-0.9442,-1.0074,-1.0107,-1.0254,-1.0611,-1.0618,-1.0624,-1.0624,-1.0624,-1.0624,-1.0561,-1.0561,-1.0561,-1.0498,-0.9779,-0.8871,-0.7912,-0.7405,-0.6535,-0.5596,-0.5735,-0.5789,-0.5793,-0.5789,-0.5701,-0.5562,-0.5413,-0.5428,-0.5428,-0.5428,-0.5428,-0.5428,-0.5428,-0.5428,-0.5428,-0.5428,-0.5428,-0.5428,-0.5428,-0.5428,-0.5428,-0.5428,-0.5425,-0.5422,-0.5425,-0.5422,-0.5304,-0.5159,-0.5125,-0.5026,-0.4741,-0.4687,-0.4633,-0.4539,-0.4519,-0.4519,-0.4519,-0.4519,-0.4519,-0.4519,-0.4519,-0.4519,-0.4519,-0.4515,-0.4512,-0.4453,-0.445,-0.445,-0.445,-0.445,-0.445,-0.445,-0.445,-0.445,-0.445,-0.4453,-0.4457,-0.4453,-0.446,-0.4519,-0.9939,0.0,-1.0561,-1.0575,-1.072,-1.0802,-1.0611,-1.0351,-1.0137,-1.0098,-1.0049,-0.9961,-0.9961,-0.9961,-0.9961,-1.001,-1.0219,-1.0553,-1.0964,-1.0713,-1.0409,-1.0334,-0.9646,0.0,0.0,0.0,0.0,-0.8798,-0.8985,-0.9084,-0.9183,-0.9606,-0.9913,-1.0107,-1.0307,-1.0461,-1.0624,-1.0624,-1.0624,-1.0624,-1.0624,-1.0624,-1.0624,-1.0624,-1.0732,-1.0848,-1.0255,-0.9548,-0.8743,-0.8216,-0.7416,-0.6518,-0.6422,-0.6367,-0.6309,-0.606,-0.5909,-0.5847,-0.5599,-0.5447,-0.5428,-0.5428,-0.5428,-0.5428,-0.5428,-0.5428,-0.5428,-0.5428,-0.5428,-0.5428,-0.5428,-0.5428,-0.5428,-0.5428,-0.5428,-0.5428,-0.5428,-0.5281,-0.5192,-0.5142,-0.5053,-0.4958,-0.486,-0.4758,-0.4636,-0.4539,-0.4519,-0.4519,-0.4519,-0.4519,-0.4519,-0.4519,-0.4519,-0.4519,-0.4519,-0.4519,-0.4519,-0.4519,-0.4519,-0.4519,-0.4519,-0.4519,-0.4519,-0.4519,-0.4519,-0.4519,-0.4519,-0.4519,-0.4519,-0.4519,-0.4519,-0.4519,-1.0964,-1.1125,-1.1274,-1.1282,-1.1238,-1.1159,-1.0943,-1.0725,-1.0466,-1.0316,-1.0248,-1.0248,-1.021,-1.0172,-1.0194,-1.0293,-1.0835,-1.1242,-1.1354,-1.1334,-1.1279,-1.1124,-1.034,-0.9791,0.0,0.0,0.0,-0.8965,-0.9084,-0.9276,-0.9489,-0.9913,-1.0167,-1.0274,-1.0461,-1.0624,-1.0624,-1.0624,-1.0624,-1.0624,-1.0732,-1.0715,-1.0722,-1.0822,-1.0969,-1.1149,-1.0686,-1.0089,-0.9469,-0.9069,-0.847,-0.7762,-0.7539,-0.7274,-0.6997,-0.6596,-0.6293,-0.5986,-0.5691,-0.5525,-0.5433,-0.5446,-0.5428,-0.5428,-0.5428,-0.5428,-0.5428,-0.5428,-0.5428,-0.5428,-0.5428,-0.5428,-0.5428,-0.5428,-0.5428,-0.5428,-0.5428,-0.5284,-0.5213,-0.5213,-0.5138,-0.506,-0.5003,-0.4826,-0.4657,-0.4558,-0.4553,-0.4519,-0.4519,-0.4519,-0.4519,-0.4519,-0.4519,-0.4519,-0.4519,-0.4519,-0.4519,-0.4519,-0.4519,-0.4519,-0.4519,-0.4519,-0.4519,-0.4519,-0.4519,-0.4519,-0.4519,-0.4519,-0.4519,-0.4519,-0.4519,-0.4519,-1.2241,-1.2123,-1.1788,-1.2093,-1.1895,-1.1605,-1.1383,-1.1111,-1.076,-1.0319,-1.0215,-1.0159,0.0,0.0,-1.0016,-1.0224,-1.0762,-1.107,-1.089,-1.1601,-1.1927,0.0,0.0,0.0,0.0,0.0,0.0,-0.9334,0.0,-0.9469,-1.0087,-1.0134,-1.0267,-1.0618,-1.0624,-1.0624,-1.0624,-1.0624,-1.0624,-1.0624,-1.0855,-1.0995,-1.1002,-1.1289,-1.143,-1.1381,-1.1106,-1.0628,-1.016,-0.9973,-0.9561,-0.9144,-0.8905,-0.838,-0.7783,-0.7411,-0.6771,-0.6,-0.5711,-0.5603,-0.5566,-0.542,-0.5435,-0.5428,-0.5428,-0.5428,-0.5428,-0.5428,-0.5428,-0.5428,-0.5428,-0.5428,-0.5428,-0.5428,-0.5428,-0.5428,-0.5428,-0.5428,-0.5428,-0.5428,-0.5428,-0.5311,-0.5159,-0.4897,-0.4707,-0.4694,-0.4568,-0.4525,-0.4519,-0.4519,-0.4519,-0.4519,-0.4519,-0.4519,-0.4519,-0.4519,-0.4519,-0.4519,-0.4519,-0.4519,-0.4519,-0.4519,-0.4519,-0.4519,-0.4519,-0.4519,-0.4519,-0.4519,-0.4519,-0.4519,-0.4519,-0.4519,-1.3467,-1.3454,-1.3433,-1.3374,-1.2793,-1.221,-1.2018,-1.1436,-1.0854,-1.0745,-1.0395,-1.009,0.0,0.0,0.0,-1.0079,-1.0854,0.0,-1.1412,-1.2128,0.0,-1.2224,0.0,-1.1826,-1.1242,-1.0809,0.0,0.0,-1.013,-0.996,-1.0107,-1.0327,-1.0481,-1.0618,-1.0624,-1.0624,-1.0624,-1.0624,-1.0624,-1.0624,-1.0855,-1.0995,-1.1002,-1.1289,-1.155,-1.1757,-1.1545,-1.1306,-1.1059,-1.0831,-1.0484,-1.0124,-0.9734,-0.9226,-0.8618,-0.8089,-0.7371,-0.6619,-0.6271,-0.5912,-0.5583,-0.5545,-0.5454,-0.5428,-0.5428,-0.5428,-0.5428,-0.5428,-0.5428,-0.5428,-0.5428,-0.5428,-0.5428,-0.5428,-0.5428,-0.5428,-0.5428,-0.5428,-0.5428,-0.5428,-0.5428,-0.5311,-0.5159,-0.5067,-0.4945,-0.4724,-0.4657,-0.4592,-0.4532,-0.4519,-0.4519,-0.4519,-0.4519,-0.4519,-0.4519,-0.4519,-0.4519,-0.4519,-0.4519,-0.4519,-0.4519,-0.4519,-0.4519,-0.4519,-0.4519,-0.4519,-0.4519,-0.4519,-0.4519,-0.4519,-0.4519,-0.4519,-1.4406,-1.4315,-1.4194,-1.3988,-1.3276,-1.2519,-1.2129,-1.1572,-1.1036,-1.0605,-1.0267,0.0,-0.9825,-0.9993,0.0,0.0,0.0,0.0,-1.163,-1.2204,-1.257,0.0,-1.2628,0.0,-1.1974,-1.1695,-1.1449,0.0,-1.0537,-1.0174,-1.0307,-1.053,-1.0624,-1.0624,-1.0624,-1.0624,-1.0624,-1.0624,-1.0624,-1.0624,-1.0982,-1.1182,-1.1196,-1.1623,-1.1904,-1.2058,-1.1985,-1.1859,-1.1781,-1.1706,-1.1484,-1.126,-1.0887,-1.0357,-0.9669,-0.8988,-0.8156,-0.7234,-0.6836,-0.6268,-0.5772,-0.5705,-0.5627,-0.5555,-0.5555,-0.5555,-0.5555,-0.5555,-0.5555,-0.5542,-0.5477,-0.546,-0.5443,-0.5446,-0.5428,-0.5428,-0.5428,-0.5428,-0.5428,-0.5428,-0.5428,-0.5332,-0.5247,-0.5176,-0.5074,-0.4908,-0.483,-0.4758,-0.4674,-0.4601,-0.4519,-0.4519,-0.4519,-0.4519,-0.4519,-0.4519,-0.4519,-0.4519,-0.4519,-0.4519,-0.4519,-0.4519,-0.4519,-0.4519,-0.4519,-0.4519,-0.4519,-0.4519,-0.4519,-0.4519,-0.4519,-0.4519,-1.5101,-1.4959,-1.4657,-1.4297,-1.3506,-1.2692,-1.1974,-1.1614,-1.1128,-1.0185,0.0,-0.9821,-0.962,-0.9878,-1.0146,-1.0353,0.0,-1.1286,-1.1687,-1.2008,-1.2346,-1.2677,-1.2938,-1.2902,-1.2536,-1.253,-1.2386,-1.2091,-1.1068,-1.0527,-1.0674,-1.0688,-1.0624,-1.0624,-1.0624,-1.0624,-1.0624,-1.0624,-1.0645,-1.0692,-1.1169,-1.145,-1.1503,-1.2051,-1.2305,-1.2305,-1.2305,-1.2305,-1.2305,-1.2305,-1.2305,-1.2224,-1.1855,-1.1397,-1.0789,-1.0045,-0.8993,-0.7936,-0.7484,-0.6775,-0.6108,-0.5881,-0.5817,-0.58,-0.58,-0.58,-0.58,-0.58,-0.58,-0.5772,-0.565,-0.5603,-0.5555,-0.5423,-0.5442,-0.5428,-0.5428,-0.5428,-0.5428,-0.5428,-0.5428,-0.5428,-0.5428,-0.525,-0.5152,-0.5135,-0.5026,-0.4942,-0.4921,-0.467,-0.4549,-0.4549,-0.4529,-0.4519,-0.4519,-0.4519,-0.4519,-0.4519,-0.4519,-0.4519,-0.4519,-0.4519,-0.4519,-0.4519,-0.4519,-0.4519,-0.4519,-0.4519,-0.4529,-0.4549,-0.4549,-0.456,-1.562,-1.6027,-1.6209,-1.5043,-1.3937,-1.2942,-1.2212,-1.1412,0.0,0.0,-0.9553,-0.9219,-0.9057,-0.9588,-1.0061,-1.0222,0.0,0.0,0.0,0.0,-1.2346,0.0,-1.3452,-1.3767,-1.3509,-1.372,0.0,0.0,-1.2857,-1.2097,-1.124,-1.1059,-1.0877,-1.0624,-1.0624,-1.0624,-1.0624,-1.0624,-1.0681,-1.0922,-1.1263,-1.1557,-1.1804,-1.2144,-1.2305,-1.2305,-1.2305,-1.2305,-1.2305,-1.2305,-1.2305,-1.2305,-1.2003,-1.1706,-1.1254,-1.0588,-0.9679,-0.8694,-0.8161,-0.7456,-0.6641,-0.6112,-0.5905,-0.58,-0.58,-0.58,-0.58,-0.58,-0.58,-0.5796,-0.5772,-0.5677,-0.5583,-0.5555,-0.5454,-0.5428,-0.5428,-0.5428,-0.5428,-0.5428,-0.5428,-0.5428,-0.5428,-0.5338,-0.5277,-0.5148,-0.5108,-0.505,-0.4935,-0.4762,-0.465,-0.465,-0.4594,-0.4519,-0.4519,-0.4519,-0.4519,-0.4519,-0.4519,-0.4519,-0.4519,-0.4519,-0.4519,-0.4519,-0.4519,-0.4519,-0.4519,-0.4519,-0.4584,-0.465,-0.465,-0.4718,-1.5969,-1.6409,-1.6586,-1.5234,-1.4197,-1.3262,-1.227,0.0,0.0,0.0,-0.9156,-0.8695,-0.8572,-0.919,0.0,0.0,0.0,0.0,0.0,0.0,0.0,-1.2584,-1.3486,-1.4024,0.0,-1.4222,-1.4341,-1.4112,-1.3752,-1.3078,-1.1965,-1.149,-1.0996,-1.0624,-1.0624,-1.0624,-1.0624,-1.0715,-1.0855,-1.0995,-1.1443,-1.173,-1.1877,-1.2171,-1.2305,-1.2305,-1.2305,-1.2305,-1.2305,-1.2305,-1.2305,-1.2298,-1.2157,-1.2003,-1.1781,-1.1335,-1.0651,-0.982,-0.914,-0.8232,-0.731,-0.6775,-0.64,-0.604,-0.604,-0.604,-0.604,-0.604,-0.604,-0.6003,-0.5844,-0.5749,-0.5661,-0.5508,-0.5413,-0.5428,-0.5428,-0.5428,-0.5428,-0.5428,-0.5428,-0.5428,-0.5428,-0.5428,-0.5335,-0.526,-0.525,-0.5226,-0.5159,-0.5016,-0.486,-0.4707,-0.4626,-0.4548,-0.4525,-0.4519,-0.4519,-0.4519,-0.4519,-0.4519,-0.4519,-0.4519,-0.4519,-0.4519,-0.4519,-0.4519,-0.4519,-0.4545,-0.4619,-0.4694,-0.4772,-0.485,-1.6307,-1.6437,-1.6346,-1.5197,-1.4326,-1.3462,-1.2359,-1.1454,0.0,0.0,-0.8744,-0.8239,-0.8106,0.0,-0.9237,0.0,-1.0003,-1.075,0.0,-1.1634,-1.2132,0.0,-1.3459,0.0,-1.4096,-1.4563,0.0,-1.4706,-1.4419,-1.3752,-1.2634,-1.1849,-1.124,-1.0751,-1.0688,-1.0651,-1.0719,-1.0875,-1.1056,-1.1189,-1.165,-1.1904,-1.1971,-1.2198,-1.2305,-1.2305,-1.2305,-1.2305,-1.2305,-1.2305,-1.2305,-1.2305,-1.2305,-1.2305,-1.2224,-1.1929,-1.1397,-1.0789,-1.0045,-0.8993,-0.8012,-0.7561,-0.6953,-0.6338,-0.6338,-0.6338,-0.6338,-0.6338,-0.6338,-0.6196,-0.5922,-0.5827,-0.5728,-0.5433,-0.5428,-0.5428,-0.5428,-0.5428,-0.5428,-0.5428,-0.5428,-0.5428,-0.5428,-0.5428,-0.5428,-0.5428,-0.5428,-0.5428,-0.5428,-0.5254,-0.5077,-0.4813,-0.4758,-0.4691,-0.4572,-0.4587,-0.4567,-0.4567,-0.4536,-0.4519,-0.4519,-0.4519,-0.4532,-0.4567,-0.4567,-0.4584,-0.4562,-0.468,-0.4755,-0.4789,-0.4908,-0.4982,-1.68,-1.6319,-1.5517,-1.511,-1.429,-1.3417,-1.2639,0.0,0.0,-0.9097,-0.8371,-0.7821,-0.7669,-0.8064,-0.8649,0.0,0.0,-1.0424,0.0,-1.1948,-1.2511,-1.3125,0.0,0.0,-1.4687,-1.5079,-1.5352,-1.5294,-1.5079,-1.43,-1.2826,-1.2228,-1.1677,-1.1059,-1.087,-1.0809,-1.0949,-1.0982,-1.1263,-1.179,-1.1844,-1.2004,-1.2265,-1.2291,-1.2305,-1.2305,-1.2305,-1.2305,-1.2305,-1.2305,-1.2305,-1.2305,-1.2305,-1.2305,-1.2305,-1.2077,-1.1706,-1.126,-1.0663,-0.9755,-0.8851,-0.8399,-0.7411,-0.6338,-0.6338,-0.6338,-0.6338,-0.6338,-0.6338,-0.622,-0.6054,-0.5905,-0.5728,-0.5433,-0.5428,-0.5428,-0.5428,-0.5428,-0.5428,-0.5428,-0.5428,-0.5428,-0.5428,-0.5428,-0.5428,-0.5428,-0.5428,-0.5428,-0.5428,-0.5415,-0.5277,-0.5108,-0.4975,-0.4894,-0.4877,-0.4752,-0.467,-0.467,-0.4538,-0.4519,-0.4519,-0.4519,-0.4584,-0.4667,-0.467,-0.4738,-0.4877,-0.4891,-0.4965,-0.5091,-0.5104,-0.5186,-1.6218,-1.5861,-1.5358,-1.5193,-1.4528,-1.3686,-1.3058,0.0,-0.9954,-0.9278,-0.8246,-0.7391,-0.7253,-0.7585,-0.8064,0.0,-0.9261,-1.0032,-1.092,-1.1724,-1.2393,-1.2744,-1.3508,0.0,0.0,0.0,-1.5137,-1.5391,-1.5254,-1.4784,-1.3983,-1.3199,-1.2405,-1.1538,-1.1233,-1.1078,-1.0989,-1.1169,-1.1463,-1.187,-1.2044,-1.2191,-1.2305,-1.2305,-1.2305,-1.2305,-1.2305,-1.2305,-1.2305,-1.2305,-1.2305,-1.2305,-1.2305,-1.2305,-1.2298,-1.2224,-1.2077,-1.1855,-1.1409,-1.0726,-1.004,-0.9599,-0.8841,-0.7936,-0.7103,-0.6718,-0.6641,-0.6486,-0.6412,-0.6203,-0.5956,-0.5782,-0.5705,-0.5722,-0.5822,-0.5888,-0.5954,-0.602,-0.602,-0.602,-0.602,-0.602,-0.602,-0.602,-0.602,-0.602,-0.602,-0.602,-0.602,-0.602,-0.5997,-0.586,-0.5389,-0.5013,-0.4925,-0.4863,-0.4789,-0.4697,-0.4633,-0.4558,-0.4522,-0.4551,-0.4629,-0.4691,-0.4782,-0.4857,-0.4918,-0.5006,-0.5077,-0.5131,-0.5226,-0.5304,-1.5639,-1.5534,-1.5404,-1.5184,-1.4543,-1.3779,0.0,-1.158,-1.0037,-0.9518,-0.8299,-0.7266,-0.7123,-0.7402,-0.7804,0.0,-0.9033,-0.9918,-1.0753,-1.1662,-1.2368,0.0,0.0,-1.3892,0.0,-1.4572,-1.4961,-1.5381,-1.5313,-1.5137,-1.4951,-1.4112,-1.313,-1.1958,-1.1608,-1.1312,-1.1116,-1.1323,-1.1617,-1.1997,-1.2204,-1.2305,-1.2305,-1.2305,-1.2305,-1.2305,-1.2305,-1.2305,-1.2305,-1.2305,-1.2305,-1.2305,-1.2305,-1.2305,-1.2305,-1.2305,-1.2305,-1.2231,-1.1929,-1.1397,-1.0944,-1.0571,-1.0126,-0.9453,-0.8322,-0.7633,-0.7096,-0.6872,-0.6531,-0.6132,-0.5871,-0.5752,-0.5811,-0.6094,-0.6342,-0.6535,-0.6802,-0.6868,-0.6868,-0.6868,-0.6868,-0.6868,-0.6868,-0.6868,-0.6868,-0.6868,-0.6868,-0.6868,-0.6868,-0.6868,-0.6868,-0.6868,-0.623,-0.5597,-0.5244,-0.513,-0.5118,-0.5009,-0.4959,-0.4886,-0.477,-0.4817,-0.4834,-0.4819,-0.4925,-0.5003,-0.505,-0.5212,-0.526,-0.5328,-0.557,-0.569,-1.5242,-1.5497,-1.5649,-1.4962,-1.4303,-1.3645,-1.2966,-1.1296,-0.9872,-0.9736,-0.857,-0.753,-0.7329,-0.7577,-0.7958,-0.843,-0.9285,-1.0214,-1.1173,-1.1876,-1.2508,0.0,0.0,-1.371,-1.3972,-1.4502,-1.4961,-1.5381,-1.541,-1.541,-1.541,-1.4824,-1.3795,-1.2328,-1.1856,-1.1546,-1.1416,-1.1423,-1.1717,-1.2298,-1.2305,-1.2305,-1.2305,-1.2305,-1.2305,-1.2305,-1.2305,-1.2305,-1.2305,-1.2305,-1.2305,-1.2305,-1.2305,-1.2305,-1.2305,-1.2305,-1.2305,-1.2305,-1.2077,-1.1706,-1.1335,-1.1186,-1.0812,-1.0443,-0.9997,-0.8927,-0.7706,-0.7334,-0.6605,-0.5996,-0.584,-0.5976,-0.623,-0.6573,-0.6915,-0.7312,-0.7897,-0.7962,-0.7962,-0.7962,-0.7962,-0.7962,-0.7962,-0.7962,-0.7962,-0.7962,-0.7962,-0.7962,-0.7962,-0.7962,-0.7962,-0.7962,-0.7642,-0.6994,-0.5951,-0.5796,-0.5698,-0.5698,-0.5489,-0.54,-0.5396,-0.5275,-0.516,-0.5125,-0.5128,-0.5203,-0.5422,-0.555,-0.5683,-0.5888,-0.6083,-0.628,-1.4577,-1.4727,-1.4592,-1.4379,-1.3831,-1.3137,-1.2468,-1.115,-0.9883,-0.9344,-0.8437,-0.7694,-0.753,-0.7782,-0.8134,-0.8562,-0.9117,0.0,0.0,0.0,0.0,-1.3478,-1.4118,-1.4399,0.0,0.0,-1.5264,-1.54,-1.541,-1.541,-1.541,-1.4883,-1.4043,-1.2826,-1.239,-1.1949,-1.1423,-1.163,-1.1924,-1.2305,-1.2305,-1.2305,-1.2305,-1.2305,-1.2305,-1.2305,-1.2305,-1.2305,-1.2305,-1.2305,-1.2305,-1.2305,-1.2305,-1.2305,-1.2305,-1.2305,-1.2305,-1.2298,-1.2224,-1.215,-1.2003,-1.1929,-1.1855,-1.1632,-1.126,-0.9976,-0.847,-0.7638,-0.7127,-0.6904,-0.6849,-0.6974,-0.7137,-0.7476,-0.7815,-0.8226,-0.8619,-0.8683,-0.8683,-0.8683,-0.8683,-0.8683,-0.8683,-0.8683,-0.8683,-0.8683,-0.8683,-0.8683,-0.8683,-0.8683,-0.8683,-0.8683,-0.8361,-0.7707,-0.6531,-0.642,-0.6338,-0.6207,-0.615,-0.6063,-0.5936,-0.5801,-0.5516,-0.5128,-0.5237,-0.5311,-0.5428,-0.569,-0.6145,-0.6793,-0.7246,-0.7447,0.0,-1.3461,-1.3358,-1.3133,-1.2762,-1.2267,-1.1621,-1.0616,-0.9701,-0.9204,-0.8484,-0.7884,-0.7739,-0.8199,-0.8637,-0.8813,-0.9495,-1.0405,0.0,0.0,0.0,-1.391,0.0,0.0,0.0,-1.4863,-1.5244,-1.54,-1.541,-1.541,-1.541,-1.501,-1.441,-1.3485,-1.3058,-1.251,-1.1833,-1.2144,-1.2449,-1.2746,-1.2746,-1.2746,-1.2746,-1.2673,-1.2599,-1.2526,-1.2452,-1.2378,0.0,-1.2305,-1.2305,-1.2305,-1.2305,-1.2305,-1.2305,-1.2305,-1.2305,-1.2305,-1.2305,-1.2305,-1.2305,-1.2305,-1.2231,-1.2077,-1.1706,-1.0576,-0.9296,-0.8389,-0.8152,-0.8035,-0.7959,-0.8117,-0.8374,-0.8617,-0.8926,-0.925,-0.9548,-0.9594,-0.9594,-0.9594,-0.9594,-0.9594,-0.9594,-0.9594,-0.9594,-0.9594,-0.9594,-0.9594,-0.9594,-0.9594,-0.9594,-0.9594,-0.9268,-0.8683,-0.7767,-0.7386,-0.708,-0.688,-0.7003,-0.6949,-0.675,-0.6493,-0.6113,-0.5603,-0.5705,-0.5756,-0.5756,-0.6346,-0.6994,-0.7702,-0.8161,-0.8468,0.0,-1.1901,-1.2136,-1.1577,-1.1438,-1.1248,-1.0573,-0.9906,0.0,-0.9261,-0.864,-0.8092,-0.8014,-0.8781,-0.938,-0.9272,-1.0342,-1.1397,0.0,-1.2817,0.0,0.0,-1.4262,0.0,-1.4779,-1.4814,-1.499,-1.5381,-1.541,-1.541,-1.541,-1.5137,-1.4775,-1.4273,-1.3738,-1.3154,-1.2646,-1.3001,-1.3334,-1.3637,-1.3637,-1.3637,-1.3637,-1.3419,-1.3193,-1.2973,-1.2746,-1.2526,-1.2305,-1.2305,-1.2305,-1.2305,-1.2305,-1.2305,-1.2305,-1.2305,-1.2305,-1.2305,-1.2305,-1.2305,-1.2305,-1.2305,-1.215,-1.1929,-1.1558,-1.0875,-1.0121,-0.9523,-0.9372,-0.9326,-0.9259,-0.9416,-0.9724,-0.9729,-0.9995,-1.0305,-1.0558,-1.0624,-1.0624,-1.0624,-1.0624,-1.0624,-1.0624,-1.0624,-1.0624,-1.0624,-1.0624,-1.0624,-1.0624,-1.0624,-1.0624,-1.0624,-1.0244,-0.9856,-0.9396,-0.8565,-0.8042,-0.7837,-0.7977,-0.7977,-0.7837,-0.7456,-0.7068,-0.6548,-0.6548,-0.6548,-0.6548,-0.7386,-0.8096,-0.8619,-0.8947,-0.9284,-1.0175,0.0,-1.1882,-1.1754,-1.1706,-1.1528,0.0,-1.015,-0.9456,0.0,0.0,-0.8445,-0.8832,-0.9293,-0.986,-1.0577,-1.1078,-1.1811,-1.3102,0.0,0.0,-1.5099,-1.534,-1.5297,-1.4867,-1.5078,-1.5303,-1.54,-1.541,-1.541,-1.541,-1.5254,-1.4961,-1.4588,-1.461,-1.4311,-1.376,-1.438,-1.4735,-1.4816,-1.4816,-1.4816,-1.4816,-1.4466,-1.3962,-1.3535,-1.3185,-1.2746,-1.2305,-1.2305,-1.2305,-1.2305,-1.2305,-1.2305,-1.2305,-1.2305,-1.2305,-1.2305,-1.2305,-1.2305,-1.2305,-1.2305,-1.2305,-1.2224,-1.215,-1.1558,-1.0807,-1.0363,-1.0212,-1.0196,-1.0215,-1.0279,-1.042,-1.0303,-1.0478,-1.0581,-1.0621,-1.0624,-1.0624,-1.0624,-1.0624,-1.0624,-1.0624,-1.0624,-1.0624,-1.0624,-1.0624,-1.0624,-1.0624,-1.0624,-1.0624,-1.0624,-1.0364,-1.011,-0.9716,-0.9268,-0.8947,-0.8947,-0.8947,-0.8947,-0.8947,-0.8549,-0.8091,-0.7642,-0.7642,-0.7772,-0.8037,-0.8619,-0.9139,-0.9518,-0.9977,-1.0393,-0.9802,-1.0469,-1.1064,-1.1396,-1.123,-1.0882,-1.053,0.0,0.0,0.0,0.0,0.0,-0.9305,-1.016,-1.0952,-1.1329,-1.2137,0.0,0.0,0.0,-1.5739,-1.5635,-1.5825,-1.5776,0.0,-1.5283,-1.541,-1.541,-1.541,-1.541,-1.541,-1.5303,-1.5196,-1.5001,-1.5349,-1.5195,-1.4624,-1.5129,-1.5496,-1.5728,-1.5728,-1.5728,-1.5666,-1.5321,-1.4824,-1.425,-1.3768,-1.3185,-1.2599,-1.2452,-1.2378,-1.2305,-1.2305,-1.2305,-1.2305,-1.2305,-1.2305,-1.2305,-1.2305,-1.2305,-1.2305,-1.2305,-1.2305,-1.2305,-1.2305,-1.2003,-1.1632,-1.1409,-1.1335,-1.1335,-1.1335,-1.1378,-1.1382,-1.0969,-1.0963,-1.0943,-1.0648,-1.0624,-1.0624,-1.0624,-1.0624,-1.0624,-1.0624,-1.0624,-1.0624,-1.0624,-1.0624,-1.0624,-1.0624,-1.0624,-1.0624,-1.0624,-1.0498,-1.0364,-1.0168,-0.9977,-0.9786,-0.9524,-0.9594,-0.9594,-0.9524,-0.9256,-0.8871,-0.849,-0.849,-0.8619,-0.8941,-0.9332,-0.9777,-1.0225,-1.0626,-1.0989,-0.9836,-1.0205,-1.0531,-1.1102,-1.0767,-1.0299,-1.0299,0.0,0.0,0.0,0.0,0.0,0.0,0.0,0.0,0.0,0.0,0.0,-1.5727,-1.5954,-1.6103,-1.6177,-1.62,0.0,-1.5545,-1.5468,-1.541,-1.541,-1.541,-1.541,-1.541,-1.541,-1.541,-1.541,-1.5771,-1.5804,-1.534,-1.5662,-1.6013,-1.6336,-1.6336,-1.6336,-1.6336,-1.6008,-1.5513,-1.4952,-1.4451,-1.3685,-1.2903,-1.2732,-1.2526,-1.2305,-1.2305,-1.2305,-1.2305,-1.2305,-1.2305,-1.2305,-1.2305,-1.2305,-1.2305,-1.2305,-1.2305,-1.2305,-1.2305,-1.2305,-1.2305,-1.2305,-1.2305,-1.2305,-1.2305,-1.2305,-1.2164,-1.1623,-1.149,-1.1336,-1.0755,-1.0692,-1.0678,-1.0631,-1.0624,-1.0624,-1.0624,-1.0624,-1.0624,-1.0624,-1.0624,-1.0624,-1.0624,-1.0624,-1.0624,-1.0624,-1.0624,-1.0624,-1.0624,-1.0624,-1.0428,-0.997,-1.004,-1.004,-0.9907,-0.9773,-0.9524,-0.9274,-0.9274,-0.942,-0.9713,-0.9899,-1.0244,-1.079,-1.0989,-1.1349,-0.9947,-1.115,-1.2157,-1.1907,-1.1775,-1.1692,0.0,0.0,0.0,0.0,0.0,0.0,0.0,0.0,0.0,0.0,0.0,-1.6087,0.0,0.0,-1.7253,-1.71,0.0,-1.6711,-1.5921,-1.572,-1.5604,-1.541,-1.541,-1.541,-1.541,-1.541,-1.541,-1.541,-1.5478,-1.5663,-1.5979,-1.635,-1.66,-1.6658,-1.6658,-1.6658,-1.6603,-1.628,-1.5807,-1.5191,-1.4849,-1.4095,-1.3082,-1.3078,-1.2826,-1.2305,-1.2305,-1.2305,-1.2305,-1.2305,-1.2305,-1.2305,-1.2305,-1.2305,-1.2305,-1.2305,-1.2305,-1.2305,-1.2305,-1.2305,-1.2305,-1.2305,-1.2305,-1.2305,-1.2305,-1.2305,-1.2218,-1.1884,-1.1804,-1.1637,-1.1056,-1.0929,-1.0855,-1.0672,-1.0624,-1.0624,-1.0624,-1.0624,-1.0624,-1.0624,-1.0624,-1.0624,-1.0624,-1.0624,-1.0624,-1.0624,-1.0624,-1.0624,-1.0624,-1.0624,-1.0561,-1.0491,-1.0498,-1.0498,-1.0491,-1.0428,-1.0428,-1.0371,-1.0364,-1.0483,-1.0791,-1.0791,-1.1002,-1.1288,-1.1288,-1.1543,-0.9346,-1.0616,-1.1827,-1.1793,-1.2074,-1.2444,0.0,0.0,0.0,0.0,0.0,0.0,0.0,0.0,0.0,0.0,0.0,-1.6378,-1.6904,-1.7412,-1.7702,0.0,0.0,-1.7234,-1.6322,-1.6056,-1.5768,-1.541,-1.541,-1.541,-1.541,-1.541,-1.541,-1.541,-1.541,-1.5508,-1.5703,-1.5918,-1.626,-1.6665,-1.6665,-1.6665,-1.6665,-1.6402,-1.6074,-1.5624,-1.5353,-1.4712,-1.3785,-1.3769,-1.3477,-1.2973,-1.2973,-1.2973,-1.2973,-1.2973,-1.29,-1.2746,-1.2673,-1.2526,-1.2452,-1.2305,-1.2305,-1.2305,-1.2305,-1.2305,-1.2305,-1.2305,-1.2305,-1.2305,-1.2305,-1.2305,-1.2231,-1.1937,-1.187,-1.171,-1.1122,-1.1116,-1.1142,-1.0848,-1.0922,-1.0982,-1.0822,-1.0795,-1.0742,-1.0651,-1.0624,-1.0624,-1.0624,-1.0624,-1.0624,-1.0624,-1.0624,-1.0624,-1.0624,-1.0624,-1.0624,-1.0624,-1.0624,-1.0624,-1.0624,-1.0624,-1.0624,-1.0624,-1.0715,-1.0862,-1.0995,-1.1149,-1.1376,-1.1663,-1.1663,-1.1824,-0.8838,-0.9675,-1.0752,-1.1562,0.0,0.0,0.0,0.0,0.0,0.0,0.0,0.0,0.0,0.0,0.0,-1.6204,-1.6253,-1.6561,-1.7458,-1.7741,-1.7934,-1.8163,-1.8077,-1.7623,-1.6719,-1.6332,-1.5941,-1.541,-1.541,-1.541,-1.541,-1.541,-1.541,-1.541,-1.541,-1.541,-1.541,-1.541,-1.5752,-1.6426,-1.6426,-1.6426,-1.6364,-1.622,-1.6033,-1.5811,-1.5796,-1.5338,-1.4552,-1.4646,-1.441,-1.3912,-1.3912,-1.3912,-1.3912,-1.3912,-1.3768,-1.3477,-1.3185,-1.2966,-1.2673,-1.2378,-1.2305,-1.2305,-1.2305,-1.2305,-1.2305,-1.2305,-1.2305,-1.2305,-1.2305,-1.2305,-1.2245,-1.2024,-1.1971,-1.183,-1.1309,-1.1376,-1.1443,-1.1149,-1.1276,-1.1356,-1.1136,-1.1096,-1.1015,-1.0795,-1.0762,-1.0762,-1.0762,-1.0762,-1.0762,-1.0762,-1.0762,-1.0762,-1.0762,-1.0762,-1.0762,-1.0762,-1.0698,-1.0651,-1.0719,-1.0661,-1.0695,-1.0762,-1.0982,-1.1129,-1.1196,-1.1423,-1.1677,-1.1971,-1.1971,-1.2091,-0.8889,-0.8803,-0.9261,-1.1664,0.0,0.0,-1.3174,0.0,0.0,0.0,0.0,0.0,0.0,0.0,-1.6504,-1.6177,-1.6408,-1.7004,-1.799,0.0,-1.8264,-1.9004,-1.8632,-1.7952,-1.7056,-1.657,-1.6056,-1.541,-1.541,-1.541,-1.541,-1.541,-1.541,-1.541,-1.541,-1.541,-1.541,-1.541,-1.5449,-1.5508,-1.5508,-1.5508,-1.5508,-1.5508,-1.5449,-1.5439,-1.597,-1.579,-1.5225,-1.5704,-1.5587,-1.5092,-1.5092,-1.5092,-1.5092,-1.5092,-1.4816,-1.4394,-1.3818,-1.3397,-1.3046,-1.2526,-1.2305,-1.2305,-1.2305,-1.2305,-1.2305,-1.2305,-1.2305,-1.2305,-1.2305,-1.2305,-1.2298,-1.2278,-1.2271,-1.2184,-1.187,-1.1824,-1.175,-1.145,-1.141,-1.1416,-1.1396,-1.1396,-1.1383,-1.1369,-1.1363,-1.1363,-1.1363,-1.1363,-1.1363,-1.1363,-1.1363,-1.1363,-1.1363,-1.1363,-1.1363,-1.1363,-1.0862,-1.0681,-1.0949,-1.0962,-1.1089,-1.1356,-1.1383,-1.153,-1.181,-1.183,-1.1984,-1.2271,-1.2271,-1.2278,-0.8611,-0.8822,-0.9357,-1.062,0.0,0.0,0.0,0.0,0.0,0.0,0.0,0.0,0.0,0.0,-1.6136,-1.6312,-1.6481,-1.6704,-1.7103,-1.7703,-1.8371,-1.8982,-1.8887,-1.8387,-1.7479,-1.6899,-1.6285,-1.5468,-1.541,-1.541,-1.541,-1.541,-1.541,-1.541,-1.541,-1.541,-1.541,-1.541,-1.541,-1.541,-1.541,-1.541,-1.541,-1.541,-1.541,-1.5459,-1.609,-1.6074,-1.5735,-1.6338,-1.6306,-1.5877,-1.5877,-1.5877,-1.5877,-1.5877,-1.5675,-1.5259,-1.4681,-1.4186,-1.3768,-1.3266,-1.3046,-1.3046,-1.3046,-1.2973,-1.282,-1.2673,-1.2599,-1.2452,-1.2305,-1.2305,-1.2305,-1.2305,-1.2305,-1.2225,-1.1931,-1.2011,-1.2051,-1.1757,-1.185,-1.1911,-1.173,-1.1703,-1.1637,-1.1456,-1.1423,-1.1423,-1.1423,-1.1423,-1.1423,-1.1423,-1.1423,-1.1423,-1.1423,-1.1423,-1.1423,-1.1423,-1.1223,-1.1149,-1.1256,-1.1263,-1.1316,-1.1423,-1.1603,-1.1757,-1.187,-1.2051,-1.2191,-1.2305,-1.2305,-1.2305,-0.9013,-0.9272,-0.967,0.0,0.0,0.0,0.0,0.0,0.0,0.0,0.0,0.0,0.0,0.0,0.0,0.0,-1.6522,-1.6504,-1.6483,-1.7322,-1.8216,-1.8895,-1.8839,-1.8466,-1.7665,-1.7112,-1.64,-1.5468,-1.541,-1.541,-1.541,-1.541,-1.541,-1.541,-1.541,-1.541,-1.541,-1.541,-1.541,-1.541,-1.541,-1.541,-1.541,-1.541,-1.541,-1.5459,-1.6214,-1.6329,-1.6213,-1.6908,-1.7097,-1.6872,-1.6872,-1.6872,-1.6872,-1.6872,-1.6594,-1.6254,-1.5675,-1.518,-1.4752,-1.4194,-1.4057,-1.4057,-1.4057,-1.3833,-1.355,-1.3251,-1.2966,-1.2673,-1.2378,-1.2305,-1.2305,-1.2305,-1.2305,-1.2245,-1.2051,-1.2164,-1.2245,-1.2044,-1.2164,-1.2238,-1.2037,-1.2004,-1.1937,-1.173,-1.1703,-1.1703,-1.1703,-1.1703,-1.1703,-1.1703,-1.1703,-1.1703,-1.1703,-1.1703,-1.1703,-1.1703,-1.1703,-1.1663,-1.157,-1.1563,-1.161,-1.1697,-1.1904,-1.2004,-1.2004,-1.2204,-1.2305,-1.2305,-1.2305,-1.2351,-1.0185,-1.0081,-0.9972,0.0,0.0,0.0,0.0,0.0,0.0,0.0,0.0,0.0,0.0,0.0,0.0,-1.6522,-1.6522,-1.6504,-1.6516,-1.7,-1.779,-1.8833,-1.8509,-1.8088,-1.7643,-1.7123,-1.64,-1.5468,-1.541,-1.541,-1.541,-1.541,-1.541,-1.541,-1.541,-1.541,-1.541,-1.541,-1.541,-1.541,-1.541,-1.541,-1.541,-1.541,-1.541,-1.5459,-1.6348,-1.6665,-1.6797,-1.7656,-1.8008,-1.8008,-1.8008,-1.8008,-1.8008,-1.8008,-1.7813,-1.7392,-1.6784,-1.6349,-1.593,-1.5376,-1.5234,-1.5234,-1.5234,-1.4958,-1.4458,-1.389,-1.347,-1.3046,-1.2452,-1.2305,-1.2305,-1.2305,-1.2305,-1.2305,-1.2305,-1.2305,-1.2305,-1.2305,-1.2305,-1.2305,-1.2305,-1.2305,-1.2305,-1.2305,-1.2305,-1.2305,-1.2305,-1.2305,-1.2305,-1.2305,-1.2305,-1.2305,-1.2305,-1.2305,-1.2305,-1.2305,-1.2305,-1.2171,-1.1884,-1.187,-1.2011,-1.2291,-1.2305,-1.2305,-1.2305,-1.2305,-1.2305,-1.2305,-1.2305,-1.2465,-0.9004,-0.9151,0.0,0.0,0.0,0.0,0.0,0.0,0.0,0.0,0.0,0.0,0.0,0.0,0.0,-1.6522,-1.6522,-1.6504,-1.6517,-1.6658,-1.6888,-1.7208,-1.8462,-1.9125,-1.865,-1.7269,-1.6167,-1.5468,-1.541,-1.541,-1.541,-1.541,-1.541,-1.541,-1.541,-1.541,-1.541,-1.541,-1.541,-1.541,-1.541,-1.541,-1.541,-1.541,-1.541,-1.5459,-1.6348,-1.6665,-1.6797,-1.7656,-1.8008,-1.8008,-1.8008,-1.8008,-1.8008,-1.8008,-1.7872,-1.7579,-1.7157,-1.6881,-1.6533,-1.6097,-1.5948,-1.5948,-1.5948,-1.5745,-1.533,-1.4681,-1.4258,-1.384,-1.3266,-1.3119,-1.2973,-1.2452,-1.2305,-1.2305,-1.2305,-1.2305,-1.2305,-1.2305,-1.2305,-1.2305,-1.2305,-1.2305,-1.2305,-1.2305,-1.2305,-1.2305,-1.2305,-1.2305,-1.2305,-1.2305,-1.2305,-1.2305,-1.2305,-1.2305,-1.2305,-1.2305,-1.2305,-1.2265,-1.2178,-1.2171,-1.2218,-1.2305,-1.2305,-1.2305,-1.2305,-1.2305,-1.2305,-1.2305,-1.2518,-1.2735,-0.8676,0.0,0.0,0.0,0.0,0.0,0.0,0.0,0.0,0.0,0.0,0.0,-1.6527,-1.6522,0.0,-1.6522,-1.6522,-1.6522,-1.6522,-1.6511,-1.6589,-1.6823,-1.7855,-1.8498,-1.8324,-1.7005,-1.5971,-1.5449,-1.541,-1.541,-1.541,-1.541,-1.541,-1.541,-1.541,-1.541,-1.541,-1.541,-1.541,-1.541,-1.541,-1.541,-1.541,-1.541,-1.541,-1.5459,-1.6348,-1.6924,-1.7275,-1.7793,-1.8008,-1.8008,-1.8008,-1.8008,-1.8008,-1.8008,-1.794,-1.7784,-1.7588,-1.7451,-1.7314,-1.7019,-1.701,-1.701,-1.701,-1.6742,-1.6324,-1.5745,-1.5313,-1.4824,-1.433,-1.4194,-1.3977,-1.2966,-1.2746,-1.2746,-1.2746,-1.2673,-1.2599,-1.2526,-1.2452,-1.2378,-1.2305,-1.2305,-1.2305,-1.2305,-1.2305,-1.2305,-1.2305,-1.2305,-1.2305,-1.2378,-1.2526,-1.2599,-1.2673,-1.2753,-1.2746,-1.2746,-1.2746,-1.2746,-1.2746,-1.2452,-1.2305,-1.2305,-1.2305,-1.2305,-1.2305,-1.2305,-1.2365,-1.2485,-1.2735,-1.2872,0.0,0.0,0.0,0.0,0.0,0.0,0.0,0.0,0.0,0.0,0.0,-1.7031,-1.6565,-1.6522,-1.6522,-1.6522,-1.6522,-1.6522,-1.6522,-1.6522,-1.671,-1.7237,-1.6858,-1.6705,-1.7071,-1.6373,-1.5818,-1.5408,-1.537,-1.5303,-1.5303,-1.5332,-1.5352,-1.5352,-1.5391,-1.541,-1.541,-1.541,-1.541,-1.541,-1.541,-1.541,-1.541,-1.541,-1.543,-1.5518,-1.6367,-1.7197,-1.7959,-1.7988,-1.8008,-1.8008,-1.8008,-1.8008,-1.8008,-1.8008,-1.8008,-1.8008,-1.8008,-1.8008,-1.8008,-1.8008,-1.8008,-1.8008,-1.8008,-1.7735,-1.7382,-1.6793,-1.6358,-1.5939,-1.5446,-1.5305,-1.5029,-1.3985,-1.371,-1.3637,-1.3637,-1.3484,-1.3266,-1.3046,-1.282,-1.2599,-1.2305,-1.2305,-1.2305,-1.2305,-1.2305,-1.2305,-1.2305,-1.2305,-1.2378,-1.2526,-1.2746,-1.2973,-1.32,-1.3419,-1.3564,-1.3637,-1.3637,-1.363,-1.3637,-1.282,-1.2378,-1.2378,-1.2378,-1.2378,-1.2378,-1.2472,-1.2628,-1.2898,-1.2952,-1.3277,0.0,-0.9144,0.0,0.0,0.0,0.0,0.0,0.0,0.0,0.0,-1.644,-1.6921,-1.6565,-1.6522,-1.6522,-1.6522,-1.6522,-1.6522,-1.6522,-1.6522,-1.6559,-1.6685,-1.6266,-1.5881,-1.5612,-1.552,-1.5437,-1.5416,-1.5008,-1.4775,-1.4775,-1.4877,-1.4922,-1.4922,-1.5244,-1.541,-1.541,-1.541,-1.541,-1.541,-1.541,-1.541,-1.541,-1.541,-1.5596,-1.5957,-1.6494,-1.7031,-1.7539,-1.7871,-1.8008,-1.8008,-1.8008,-1.8008,-1.8008,-1.8008,-1.8008,-1.8008,-1.8008,-1.8008,-1.8008,-1.8008,-1.8008,-1.8008,-1.8008,-1.7862,-1.7579,-1.7157,-1.6881,-1.6603,-1.6167,-1.6088,-1.6018,-1.5745,-1.5242,-1.4816,-1.4816,-1.4537,-1.4178,-1.36,-1.3258,-1.29,-1.2378,-1.2305,-1.2305,-1.2305,-1.2305,-1.2305,-1.2305,-1.2305,-1.2298,-1.2378,-1.2673,-1.3046,-1.3419,-1.3499,-1.3848,-1.4609,-1.4673,-1.4744,-1.4816,-1.3833,-1.3273,-1.3273,-1.3273,-1.3273,-1.3273,-1.351,-1.3654,-1.3733,-1.4316,-1.4627,0.0,0.0,0.0,0.0,0.0,0.0,0.0,0.0,0.0,0.0,-1.5876,-1.6488,-1.6514,-1.6522,-1.6522,-1.6522,-1.6522,-1.6522,-1.6522,-1.6522,-1.6522,-1.6522,-1.6114,-1.559,-1.5012,-1.4979,-1.4883,-1.477,-1.456,-1.4556,-1.4874,-1.4964,-1.5107,-1.5305,-1.5543,-1.5652,-1.5642,-1.57,-1.5758,-1.5826,-1.5758,-1.5652,-1.5546,-1.542,-1.5654,-1.6145,-1.6543,-1.6982,-1.7422,-1.7842,-1.8008,-1.8008,-1.8008,-1.8008,-1.8008,-1.8008,-1.8008,-1.8008,-1.8008,-1.8008,-1.8008,-1.8008,-1.8008,-1.8008,-1.8008,-1.793,-1.7784,-1.7657,-1.752,-1.7382,-1.7157,-1.7088,-1.7088,-1.7088,-1.6376,-1.5737,-1.5737,-1.5463,-1.4966,-1.4394,-1.3977,-1.355,-1.2973,-1.2746,-1.2599,-1.2305,-1.2305,-1.2305,-1.2305,-1.2305,-1.2305,-1.2305,-1.282,-1.355,-1.4482,-1.476,-1.5037,-1.5596,-1.5816,-1.5965,-1.6035,-1.5433,-1.5025,-1.4645,-1.4571,-1.4723,-1.4879,-1.5052,-1.5216,-1.5396,-1.5756,-1.6022,0.0,0.0,0.0,0.0,0.0,0.0,0.0,0.0,0.0,-1.4651,-1.5333,-1.6018,-1.6421,-1.6522,-1.6522,-1.6522,-1.6522,-1.6522,-1.6522,-1.6522,-1.6522,-1.6522,-1.61,-1.5553,-1.4884,-1.4548,-1.4274,-1.3939,-1.4008,-1.4291,-1.4898,-1.5099,-1.5351,-1.5682,-1.5813,-1.6009,-1.6134,-1.6228,-1.6343,-1.6503,-1.6275,-1.6056,-1.5788,-1.5536,-1.5605,-1.6037,-1.6504,-1.6943,-1.7314,-1.7803,-1.8008,-1.8008,-1.8008,-1.8008,-1.8008,-1.8008,-1.8008,-1.8008,-1.8008,-1.8008,-1.8008,-1.8008,-1.8008,-1.8008,-1.8008,-1.8008,-1.8008,-1.8008,-1.8008,-1.8008,-1.8008,-1.8008,-1.8008,-1.8008,-1.7295,-1.6585,-1.6585,-1.6315,-1.5903,-1.5321,-1.4689,-1.4122,-1.3702,-1.3258,-1.282,-1.2372,-1.2519,-1.2666,-1.2666,-1.2666,-1.2666,-1.2666,-1.355,-1.4625,-1.5956,-1.6376,-1.6585,-1.6585,-1.7018,-1.7302,-1.7255,-1.7341,-1.7115,-1.6547,-1.6266,-1.6237,-1.6606,-1.6674,-1.686,-1.7086,-1.7153,-1.7363,0.0,0.0,0.0,0.0,0.0,0.0,0.0,0.0,-1.3496,0.0,-1.5016,-1.591,-1.6409,-1.6522,-1.6522,-1.6522,-1.6522,-1.6522,-1.6522,-1.6522,-1.6522,-1.6522,-1.61,-1.5539,-1.4862,-1.4157,-1.3556,-1.3086,-1.3092,-1.3309,-1.3801,-1.4639,-1.5008,-1.4795,-1.5583,-1.6291,-1.7002,-1.6952,-1.7045,-1.7413,-1.6765,-1.6332,-1.6056,-1.5584,-1.5439,-1.5547,-1.6377,-1.6768,-1.6885,-1.7686,-1.8008,-1.8008,-1.8008,-1.8008,-1.8008,-1.8008,-1.8008,-1.8008,-1.8008,-1.8008,-1.8008,-1.8008,-1.8008,-1.8008,-1.8008,-1.8008,-1.8008,-1.8008,-1.8008,-1.8008,-1.8008,-1.8008,-1.8008,-1.8008,-1.7862,-1.7794,-1.7794,-1.752,-1.7107,-1.6507,-1.5234,-1.4186,-1.4114,-1.3171,-1.2378,-1.2305,-1.347,-1.4274,-1.4274,-1.4274,-1.4274,-1.4274,-1.5559,-1.6751,-1.7657,-1.7725,-1.7794,-1.7794,-1.856,-1.887,-1.8637,-1.8827,-1.9145,-1.9343,-1.8033,-1.7367,-1.7411,-1.7729,-1.7914,-1.7976,-1.8329,-1.8443,-0.6701,-0.865,-1.0339,0.0,0.0,0.0,0.0,0.0,-1.3348,-1.3972,-1.4475,-1.5079,-1.5906,-1.6308,-1.6522,-1.6522,-1.6522,-1.6522,-1.6522,-1.6479,-1.6436,-1.6362,-1.5856,-1.5255,-1.4567,-1.3978,-1.3389,-1.2929,-1.3233,-1.3912,-1.4961,-1.5394,-1.5758,-1.588,-1.6507,-1.6989,-1.7378,-1.7534,-1.7667,-1.7765,-1.7112,-1.656,-1.6171,-1.5642,-1.541,-1.5449,-1.6084,-1.6494,-1.6777,-1.7402,-1.7803,-1.8008,-1.8008,-1.8008,-1.8008,-1.8008,-1.8008,-1.8008,-1.8008,-1.8008,-1.8008,-1.8008,-1.8008,-1.8008,-1.8008,-1.8008,-1.8008,-1.8008,-1.8184,-1.8359,-1.8359,-1.8545,-1.8691,-1.8535,-1.8496,-1.8496,-1.8496,-1.8025,-1.7373,-1.6664,-1.5754,-1.4974,-1.4482,-1.3977,-1.4042,-1.5296,-1.6097,-1.6533,-1.6533,-1.6533,-1.6533,-1.6533,-1.7107,-1.804,-1.9365,-1.9443,-1.9443,-1.9443,-1.9795,-1.9951,-1.9834,-1.9707,-1.9727,-1.9912,-1.9202,-1.8995,-1.9307,-1.9399,-1.9484,-1.9493,-1.9681,-1.9766,-0.6601,-0.8266,-0.9626,-0.9831,0.0,0.0,0.0,0.0,-1.3048,0.0,-1.3883,-1.4337,-1.5167,-1.5844,-1.6358,-1.6497,-1.6522,-1.6522,-1.6522,-1.6392,-1.6262,-1.6088,-1.5534,-1.4937,-1.4226,-1.3779,-1.3382,-1.2929,-1.3471,-1.4481,-1.5959,-1.6342,-1.6742,-1.7168,-1.7357,-1.7589,-1.7865,-1.8321,-1.8429,-1.8259,-1.7523,-1.6909,-1.641,-1.57,-1.541,-1.5439,-1.5879,-1.6318,-1.6768,-1.7207,-1.7627,-1.8008,-1.8008,-1.8008,-1.8008,-1.8008,-1.8008,-1.8008,-1.8008,-1.8008,-1.8008,-1.8008,-1.8008,-1.8008,-1.8008,-1.8008,-1.8037,-1.8135,-1.8398,-1.8662,-1.8769,-1.9043,-1.9219,-1.8945,-1.8936,-1.8965,-1.8896,-1.8356,-1.7751,-1.7241,-1.6702,-1.6184,-1.5551,-1.548,-1.6044,-1.7725,-1.8008,-1.8008,-1.8008,-1.8008,-1.8174,-1.8613,-1.8662,-1.918,-2.0459,-2.0566,-2.0566,-2.0566,-2.0566,-2.0566,-2.0566,-2.0254,-2.0078,-2.0078,-2.0078,-2.0244,-2.0566,-2.0566,-2.0566,-2.0566,-2.0566,-2.0566,-0.6598,-0.7036,0.0,0.0,0.0,0.0,0.0,0.0,0.0,-1.2454,-1.3355,-1.4097,-1.416,-1.5054,-1.5906,-1.6434,-1.6522,-1.6522,-1.6522,-1.6318,-1.6088,-1.5688,-1.5209,-1.4641,-1.3882,-1.3558,-1.3286,-1.2929,-1.3394,-1.4353,-1.5842,-1.6983,-1.7779,-1.8011,-1.7532,-1.7836,-1.8928,-1.946,-1.9537,-1.9202,-1.8216,-1.7423,-1.6751,-1.5816,-1.541,-1.5439,-1.5879,-1.6318,-1.6768,-1.7207,-1.7627,-1.8008,-1.8008,-1.8008,-1.8008,-1.8008,-1.8008,-1.8008,-1.8008,-1.8008,-1.8008,-1.8008,-1.8008,-1.8008,-1.8008,-1.8008,-1.8096,-1.8496,-1.8553,-1.873,-1.915,-1.9268,-1.9219,-1.8945,-1.9082,-1.9199,-1.8936,-1.874,-1.8582,-1.8737,-1.8319,-1.7872,-1.7794,-1.7803,-1.7872,-1.8008,-1.8008,-1.8008,-1.8008,-1.8008,-1.8633,-2.0254,-2.043,-2.0469,-2.0557,-2.0566,-2.0566,-2.0566,-2.0566,-2.0566,-2.0566,-2.0547,-2.0527,-2.0527,-2.0527,-2.0547,-2.0566,-2.0566,-2.0566,-2.0566,-2.0566,-2.0566,-0.4531,-0.5639,0.0,0.0,0.0,0.0,0.0,-1.1337,-1.2165,-1.2366,-1.3006,-1.3634,-1.4022,-1.4991,-1.5756,-1.5957,-1.6283,-1.6522,-1.6522,-1.6262,-1.5901,-1.5478,-1.4903,-1.4305,-1.3616,-1.3324,-1.3113,-1.2929,-1.3501,-1.4307,-1.5435,-1.6545,-1.7486,-1.8251,-1.8352,-1.8691,-1.9368,-1.9656,-1.9617,-1.9235,-1.8541,-1.7767,-1.7032,-1.6104,-1.5642,-1.5614,-1.5645,-1.6055,-1.6685,-1.6904,-1.7383,-1.8008,-1.8008,-1.8008,-1.8008,-1.8008,-1.8008,-1.8008,-1.8008,-1.8008,-1.8008,-1.8008,-1.8008,-1.8008,-1.8008,-1.8008,-1.8096,-1.8516,-1.8838,-1.915,-1.958,-1.9902,-2.0088,-1.998,-2.0039,-2.0088,-1.998,-1.9346,-1.8701,-1.8379,-1.8154,-1.8008,-1.8008,-1.8926,-1.9648,-1.9648,-1.9648,-1.9648,-1.9648,-1.9648,-1.9883,-2.0498,-2.0566,-2.0566,-2.0566,-2.0566,-2.0566,-2.0566,-2.0566,-2.0566,-2.0566,-2.0566,-2.0566,-2.0566,-2.0566,-2.0566,-2.0566,-2.0566,-2.0566,-2.0566,-2.0566,-2.0566,-0.428,0.0,0.0,0.0,0.0,0.0,-0.9479,0.0,-1.1512,-1.2027,-1.258,-1.3098,-1.3672,-1.4563,-1.5266,-1.563,-1.6007,-1.6308,-1.6497,-1.6175,-1.5724,-1.5175,-1.4582,-1.3988,-1.3286,-1.3113,-1.2978,-1.2929,-1.3511,-1.4226,-1.4984,-1.5959,-1.716,-1.8555,-1.9052,-1.9401,-1.9656,-1.9759,-1.9579,-1.9137,-1.8744,-1.8162,-1.7324,-1.6337,-1.5766,-1.5613,-1.5459,-1.5908,-1.6792,-1.6845,-1.7431,-1.8144,-1.8144,-1.8144,-1.8076,-1.8008,-1.8008,-1.8008,-1.8008,-1.8008,-1.8008,-1.8008,-1.8008,-1.8008,-1.8008,-1.8105,-1.8311,-1.874,-1.917,-1.96,-2.0019,-2.0352,-2.0566,-2.0566,-2.0566,-2.0566,-2.0566,-1.9834,-1.9111,-1.8906,-1.8408,-1.8193,-1.8769,-1.9814,-2.0566,-2.0566,-2.0566,-2.0566,-2.0566,-2.0566,-2.0566,-2.0566,-2.0566,-2.0566,-2.0566,-2.0566,-2.0566,-2.0566,-2.0566,-2.0566,-2.0566,-2.0566,-2.0566,-2.0566,-2.0566,-2.0566,-2.0566,-2.0566,-2.0566,-2.0566,-2.0566,-2.0566,0.0,0.0,0.0,0.0,0.0,0.0,-0.86,0.0,-1.0207,-1.1312,-1.2002,-1.258,-1.3073,-1.3659,-1.4425,-1.5467,-1.5668,-1.5881,-1.6421,-1.6076,-1.5513,-1.4801,-1.4294,-1.3695,-1.2968,-1.2929,-1.2929,-1.2929,-1.3511,-1.4043,-1.4401,-1.5398,-1.6864,-1.892,-1.9483,-1.9761,-1.9748,-1.9773,-1.9542,-1.8988,-1.9016,-1.856,-1.7665,-1.6469,-1.576,-1.5417,-1.5419,-1.6028,-1.7034,-1.7222,-1.7809,-1.8549,-1.8549,-1.8414,-1.8269,-1.8076,-1.8008,-1.8008,-1.8008,-1.8008,-1.8008,-1.8008,-1.8018,-1.8027,-1.8027,-1.832,-1.875,-1.918,-1.96,-2.0019,-2.0449,-2.0566,-2.0566,-2.0566,-2.0566,-2.0566,-2.0566,-2.0137,-1.9922,-2.0459,-1.9219,-1.8613,-2.0283,-2.0566,-2.0566,-2.0566,-2.0566,-2.0566,-2.0566,-2.0566,-2.0566,-2.0566,-2.0566,-2.0566,-2.0566,-2.0566,-2.0566,-2.0566,-2.0566,-2.0566,-2.0566,-2.0566,-2.0566,-2.0566,-2.0566,-2.0566,-2.0566,-2.0566,-2.0566,-2.0566,-2.0566,-2.0566,-0.5328,0.0,0.0,0.0,0.0,0.0,0.0,0.0,-0.9993,-1.0307,-1.1462,-1.2467,-1.2572,-1.3082,-1.3684,-1.4425,-1.5178,-1.5743,-1.5906,-1.593,-1.5724,-1.5051,-1.4593,-1.3988,-1.318,-1.3132,-1.3132,-1.3132,-1.3446,-1.4,-1.4708,-1.6067,-1.7227,-1.8081,-1.8457,-1.8664,-1.8643,-1.9407,-1.9485,-1.8832,-1.879,-1.8507,-1.8182,-1.7523,-1.6616,-1.5618,-1.5477,-1.6148,-1.7409,-1.7698,-1.829,-1.9054,-1.9054,-1.8931,-1.8607,-1.8144,-1.8008,-1.8008,-1.8008,-1.8008,-1.8008,-1.8008,-1.8213,-1.8467,-1.8467,-1.8769,-1.9199,-1.9619,-1.9824,-2.0019,-2.0449,-2.0566,-2.0566,-2.0566,-2.0566,-2.0566,-2.0566,-2.0449,-2.0381,-2.0537,-2.0185,-2.001,-2.0488,-2.0566,-2.0566,-2.0566,-2.0566,-2.0566,-2.0566,-2.0566,-2.0566,-2.0566,-2.0566,-2.0566,-2.0566,-2.0566,-2.0566,-2.0566,-2.0566,-2.0566,-2.0566,-2.0566,-2.0566,-2.0566,-2.0566,-2.0566,-2.0566,-2.0566,-2.0566,-2.0566,-2.0566,-2.0566,-0.5997,0.0,0.0,0.0,0.0,0.0,-0.7344,-0.8164,-0.9041,0.0,-1.0684,-1.1512,-1.1977,-1.2328,-1.273,-1.3304,-1.4099,-1.4902,-1.5605,-1.5719,-1.5659,-1.5332,-1.4903,-1.4305,-1.3542,-1.3457,-1.3457,-1.3447,-1.3695,-1.4153,-1.492,-1.5986,-1.6775,-1.736,-1.7713,-1.7978,-1.8204,-1.8629,-1.8992,-1.9195,-1.9169,-1.908,-1.897,-1.8233,-1.7022,-1.5595,-1.5458,-1.6108,-1.7379,-1.8301,-1.8994,-1.9584,-1.9507,-1.9253,-1.8875,-1.8212,-1.8008,-1.8008,-1.8008,-1.8008,-1.8037,-1.8213,-1.8437,-1.8672,-1.8857,-1.9209,-1.96,-1.9844,-2.0049,-2.0244,-2.0498,-2.0566,-2.0566,-2.0566,-2.0566,-2.0566,-2.0566,-2.0566,-2.0566,-2.0566,-2.0566,-2.0566,-2.0566,-2.0566,-2.0566,-2.0566,-2.0566,-2.0566,-2.0566,-2.0566,-2.0566,-2.0566,-2.0566,-2.0566,-2.0566,-2.0566,-2.0566,-2.0566,-2.0566,-2.0566,-2.0566,-2.0566,-2.0566,-2.0566,-2.0566,-2.0566,-2.0566,-2.0566,-2.0566,-2.0566,-2.0566,-2.0566,-0.742,-0.7288,0.0,0.0,-0.71,0.0,-0.7294,-0.7406,-0.7818,0.0,-0.973,-1.0144,-1.1199,-1.145,-1.1676,-1.2228,-1.2697,-1.3599,-1.5279,-1.5417,-1.5379,-1.5449,-1.5126,-1.4585,-1.3835,-1.3862,-1.3894,-1.3873,-1.4118,-1.4547,-1.5108,-1.5433,-1.596,-1.6727,-1.7082,-1.7526,-1.8016,-1.7694,-1.8246,-1.963,-1.972,-1.9788,-1.9768,-1.8616,-1.7102,-1.5419,-1.5428,-1.598,-1.7063,-1.8873,-1.9722,-1.9998,-1.9911,-1.9584,-1.9075,-1.8279,-1.8008,-1.8008,-1.8008,-1.8037,-1.8144,-1.8446,-1.8701,-1.8848,-1.9238,-1.9648,-1.999,-1.999,-2.0264,-2.0566,-2.0566,-2.0566,-2.0566,-2.0566,-2.0566,-2.0566,-2.0566,-2.0566,-2.0566,-2.0566,-2.0566,-2.0566,-2.0566,-2.0566,-2.0566,-2.0566,-2.0566,-2.0566,-2.0566,-2.0566,-2.0566,-2.0566,-2.0566,-2.0566,-2.0566,-2.0566,-2.0566,-2.0566,-2.0566,-2.0566,-2.0566,-2.0566,-2.0566,-2.0566,-2.0566,-2.0566,-2.0566,-2.0566,-2.0566,-2.0566,-2.0566,-2.0566,-0.811,-0.8085,-0.7997,-0.811,-0.7688,0.0,-0.7381,-0.7406,-0.7493,0.0,-0.8625,-0.9465,-1.0106,-1.0596,-1.1073,-1.1663,-1.1839,-1.2492,-1.4173,-1.4649,-1.4762,-1.4583,-1.4594,-1.4422,-1.3783,-1.4213,-1.449,-1.4351,-1.4731,-1.5062,-1.5424,-1.5546,-1.5816,-1.6303,-1.6567,-1.6735,-1.6848,-1.7242,-1.7802,-1.8526,-1.9402,-1.9788,-1.9768,-1.8616,-1.7102,-1.5419,-1.5428,-1.5723,-1.6377,-1.8647,-1.998,-2.0529,-2.0484,-2.0031,-1.9407,-1.8347,-1.8008,-1.8008,-1.8008,-1.8232,-1.8525,-1.8533,-1.9102,-1.9678,-1.9766,-2.0098,-2.0439,-2.0439,-2.0498,-2.0566,-2.0566,-2.0566,-2.0566,-2.0566,-2.0566,-2.0566,-2.0566,-2.0566,-2.0566,-2.0566,-2.0566,-2.0566,-2.0566,-2.0566,-2.0566,-2.0566,-2.0566,-2.0566,-2.0566,-2.0566,-2.0566,-2.0566,-2.0566,-2.0566,-2.0566,-2.0566,-2.0566,-2.0566,-2.0566,-2.0566,-2.0566,-2.0566,-2.0566,-2.0566,-2.0566,-2.0566,-2.0566,-2.0566,-2.0566,-2.0566,-2.0566,-2.0566,-0.8625,-0.8499,-0.8361,-0.8625,-0.8039,0.0,0.0,-0.7194,-0.7175,-0.7738,-0.8311,-0.8939,-0.9755,-1.0119,-1.0495,-1.106,-1.1161,-1.155,-1.27,-1.3511,-1.4101,-1.4557,-1.4574,-1.4376,-1.3887,-1.4419,-1.4809,-1.5028,-1.522,-1.54,-1.5546,-1.5579,-1.5756,-1.61,-1.6349,-1.6522,-1.6522,-1.681,-1.7375,-1.8204,-1.875,-1.9258,-1.9768,-1.8616,-1.7102,-1.5419,-1.5428,-1.5518,-1.5841,-1.7685,-1.9621,-2.1381,-2.0974,-2.042,-1.9726,-1.8674,-1.8212,-1.8144,-1.8008,-1.8144,-1.8389,-1.8818,-1.9248,-1.9678,-2.0107,-2.0391,-2.0566,-2.0566,-2.0566,-2.0566,-2.0566,-2.0566,-2.0566,-2.0566,-2.0566,-2.0566,-2.0566,-2.0566,-2.0566,-2.0566,-2.0566,-2.0566,-2.0566,-2.0566,-2.0566,-2.0566,-2.0566,-2.0566,-2.0566,-2.0566,-2.0566,-2.0566,-2.0566,-2.0566,-2.0566,-2.0566,-2.0566,-2.0566,-2.0566,-2.0566,-2.0566,-2.0566,-2.0566,-2.0566,-2.0566,-2.0566,-2.0566,-2.0566,-2.0566,-2.0566,-2.0566,-2.0566,-0.944,-0.9177,-0.8876,-0.929,-0.8575,-0.7738,0.0,0.0,0.0,-0.811,-0.8298,0.0,0.0,0.0,0.0,-1.0456,0.0,0.0,0.0,-1.2159,0.0,-1.4262,-1.4299,-1.4128,-1.3911,-1.4399,-1.4874,-1.5346,-1.5485,-1.5545,-1.558,-1.564,-1.5788,-1.6088,-1.6349,-1.6522,-1.6522,-1.6522,-1.7036,-1.8053,-1.8226,-1.882,-1.971,-1.8612,-1.7114,-1.5379,-1.5389,-1.542,-1.5498,-1.678,-1.9019,-2.1704,-2.1487,-2.0921,-2.0107,-1.9065,-1.8539,-1.8337,-1.8076,-1.8057,-1.8242,-1.8936,-1.9219,-1.9434,-2.0205,-2.0439,-2.0459,-2.0537,-2.0566,-2.0566,-2.0566,-2.0566,-2.0566,-2.0566,-2.0566,-2.0566,-2.0566,-2.0566,-2.0566,-2.0566,-2.0566,-2.0566,-2.0566,-2.0566,-2.0566,-2.0566,-2.0566,-2.0566,-2.0566,-2.0566,-2.0566,-2.0566,-2.0566,-2.0566,-2.0566,-2.0566,-2.0566,-2.0566,-2.0566,-2.0566,-2.0566,-2.0566,-2.0566,-2.0566,-2.0566,-2.0566,-2.0566,-2.0566,-2.0566,-2.0566,-2.0566,-2.0566,-1.1148,-1.0885,-1.0431,-1.0493,-0.9705,-0.8912,-0.8912,0.0,-0.8148,-0.8273,0.0,0.0,0.0,0.0,0.0,0.0,0.0,0.0,-1.0719,-1.0906,-1.1395,-1.2554,-1.3017,-1.3324,-1.3541,-1.4036,-1.4441,-1.4606,-1.5016,-1.5283,-1.5433,-1.5733,-1.6076,-1.6349,-1.6436,-1.6522,-1.6522,-1.6522,-1.6835,-1.7488,-1.8278,-1.9001,-1.9597,-1.8584,-1.7115,-1.5396,-1.5402,-1.5375,-1.5501,-1.674,-1.852,-2.051,-2.2005,-2.1868,-2.07,-1.9573,-1.8988,-1.8674,-1.8144,-1.8252,-1.8584,-1.8682,-1.8975,-1.9375,-1.9844,-1.999,-2.0068,-2.0459,-2.0566,-2.0566,-2.0566,-2.0566,-2.0566,-2.0566,-2.0566,-2.0566,-2.0566,-2.0566,-2.0566,-2.0566,-2.0566,-2.0566,-2.0566,-2.0566,-2.0566,-2.0566,-2.0566,-2.0566,-2.0566,-2.0566,-2.0566,-2.0566,-2.0566,-2.0566,-2.0566,-2.0566,-2.0566,-2.0566,-2.0566,-2.0566,-2.0566,-2.0566,-2.0566,-2.0566,-2.0566,-2.0566,-2.0566,-2.0566,-2.0566,-2.0566,-2.0566,-2.0566,-1.1525,-1.1161,-1.0694,-1.0694,-0.9893,-0.91,-0.91,-0.8675,-0.8386,-0.8688,0.0,0.0,0.0,0.0,0.0,0.0,-0.9905,0.0,0.0,0.0,-1.0671,-1.1801,0.0,-1.2406,-1.2805,-1.3335,-1.3816,-1.425,-1.4448,-1.4858,-1.5545,-1.5753,-1.6014,-1.6423,-1.6479,-1.6522,-1.6522,-1.6522,-1.681,-1.7388,-1.7856,-1.8631,-1.9674,-1.8955,-1.7824,-1.6493,-1.652,-1.652,-1.66,-1.7797,-1.8958,-2.0153,-2.2204,-2.2247,-2.1071,-1.9966,-1.932,-1.8875,-1.8212,-1.8125,-1.8311,-1.8484,-1.8936,-1.9365,-1.9785,-1.9912,-2.0,-2.0439,-2.0566,-2.0566,-2.0566,-2.0566,-2.0566,-2.0566,-2.0566,-2.0566,-2.0566,-2.0566,-2.0566,-2.0566,-2.0566,-2.0566,-2.0566,-2.0566,-2.0566,-2.0566,-2.0566,-2.0566,-2.0566,-2.0566,-2.0566,-2.0566,-2.0566,-2.0566,-2.0566,-2.0566,-2.0566,-2.0566,-2.0566,-2.0566,-2.0566,-2.0566,-2.0566,-2.0566,-2.0566,-2.0566,-2.0566,-2.0566,-2.0566,-2.0566,-2.0566,-2.0566,-1.1977,-1.1512,-1.096,-1.096,-1.0131,-0.9327,-0.9327,-0.9014,-0.8889,-0.9416,-0.9529,0.0,0.0,0.0,0.0,0.0,0.0,-0.9905,0.0,-0.9905,0.0,0.0,0.0,0.0,-1.214,-1.2522,-1.3006,-1.3594,-1.377,-1.4274,-1.5191,-1.553,-1.5881,-1.6283,-1.6434,-1.6522,-1.6522,-1.6522,-1.6722,-1.7149,-1.7554,-1.8321,-1.9307,-1.9273,-1.8738,-1.7875,-1.7938,-1.8015,-1.8043,-1.8905,-1.9449,-1.9999,-2.2235,-2.2468,-2.136,-2.0431,-1.9726,-1.9142,-1.8279,-1.8008,-1.8057,-1.8359,-1.8682,-1.9033,-1.958,-1.9746,-1.9853,-2.041,-2.0566,-2.0566,-2.0566,-2.0566,-2.0566,-2.0566,-2.0566,-2.0566,-2.0566,-2.0566,-2.0566,-2.0566,-2.0566,-2.0566,-2.0566,-2.0566,-2.0566,-2.0566,-2.0566,-2.0566,-2.0566,-2.0566,-2.0566,-2.0566,-2.0566,-2.0566,-2.0566,-2.0566,-2.0566,-2.0566,-2.0566,-2.0566,-2.0566,-2.0566,-2.0566,-2.0566,-2.0566,-2.0566,-2.0566,-2.0566,-2.0566,-2.0566,-2.0566,-2.0566,-1.2947,-1.2391,-1.1563,-1.1563,-1.0709,-0.988,-0.988,-0.9855,-1.0006,-1.0531,-1.0643,-1.0819,-1.1425,0.0,0.0,0.0,0.0,0.0,0.0,0.0,0.0,0.0,0.0,0.0,0.0,-1.1625,-1.1864,-1.2416,-1.2922,-1.3509,-1.411,-1.5155,-1.5706,-1.5718,-1.6233,-1.6522,-1.6522,-1.6522,-1.6522,-1.6559,-1.7664,-1.8157,-1.8111,-1.923,-1.9592,-1.9344,-1.9604,-1.9748,-1.9703,-1.9747,-1.9782,-2.0032,-2.2211,-2.2593,-2.1706,-2.1001,-2.0259,-1.9407,-1.8347,-1.8008,-1.8008,-1.8027,-1.8037,-1.8203,-1.9053,-1.9307,-1.9482,-2.0332,-2.0566,-2.0566,-2.0566,-2.0566,-2.0566,-2.0566,-2.0566,-2.0566,-2.0566,-2.0566,-2.0566,-2.0566,-2.0566,-2.0566,-2.0566,-2.0566,-2.0566,-2.0566,-2.0566,-2.0566,-2.0566,-2.0566,-2.0566,-2.0566,-2.0566,-2.0566,-2.0566,-2.0566,-2.0566,-2.0566,-2.0566,-2.0566,-2.0566,-2.0566,-2.0566,-2.0566,-2.0566,-2.0566,-2.0566,-2.0566,-2.0566,-2.0566,-2.0566,-2.0566,-1.3123,-1.2672,-1.2102,-1.1952,-1.1462,-1.0822,-1.0069,-1.0483,-1.096,-1.0731,-1.1023,-1.1362,-1.155,0.0,0.0,0.0,0.0,0.0,0.0,0.0,0.0,0.0,0.0,0.0,0.0,-1.0809,-1.1261,-1.1826,-1.204,-1.2705,-1.4022,-1.479,-1.5316,-1.568,-1.6233,-1.6522,-1.6522,-1.6522,-1.6522,-1.6522,-1.73,-1.784,-1.8182,-1.9307,-1.9749,-1.9654,-1.978,-1.9793,-1.9808,-1.9795,-1.9792,-1.9975,-2.1818,-2.1596,-2.037,-2.0691,-2.0129,-1.9142,-1.8279,-1.8008,-1.8008,-1.8008,-1.8193,-1.8535,-1.9111,-1.9482,-1.9824,-2.04,-2.0566,-2.0566,-2.0566,-2.0566,-2.0566,-2.0566,-2.0566,-2.0566,-2.0566,-2.0566,-2.0566,-2.0566,-2.0566,-2.0566,-2.0566,-2.0566,-2.0566,-2.0566,-2.0566,-2.0566,-2.0566,-2.0566,-2.0566,-2.0566,-2.0566,-2.0566,-2.0566,-2.0566,-2.0566,-2.0566,-2.0566,-2.0566,-2.0566,-2.0566,-2.0566,-2.0566,-2.0566,-2.0566,-2.0566,-2.0566,-2.0566,-2.0566,-2.0566,-2.0566,-1.3198,-1.2935,-1.2605,-1.219,-1.1839,-1.1425,-1.0822,-1.1035,-1.1425,-1.1545,-1.1914,-1.2291,-1.2713,0.0,0.0,0.0,0.0,0.0,0.0,-0.9905,0.0,0.0,0.0,0.0,0.0,-1.0381,-1.0856,-1.1249,-1.1475,-1.214,0.0,-1.4211,-1.4865,-1.5379,-1.6132,-1.6522,-1.6522,-1.6522,-1.6522,-1.6522,-1.73,-1.7865,-1.8242,-1.9318,-1.9826,-1.9798,-1.9798,-1.9798,-1.9811,-1.9768,-1.9799,-1.9954,-2.1289,-2.0714,-1.9083,-1.976,-1.9417,-1.8674,-1.8144,-1.8008,-1.8037,-1.8184,-1.8418,-1.8679,-1.9336,-1.9697,-2.0,-2.0439,-2.0566,-2.0566,-2.0566,-2.0566,-2.0566,-2.0566,-2.0566,-2.0566,-2.0566,-2.0566,-2.0566,-2.0566,-2.0566,-2.0566,-2.0566,-2.0566,-2.0566,-2.0566,-2.0566,-2.0566,-2.0566,-2.0566,-2.0566,-2.0566,-2.0566,-2.0566,-2.0566,-2.0566,-2.0566,-2.0566,-2.0566,-2.0566,-2.0566,-2.0566,-2.0566,-2.0566,-2.0566,-2.0566,-2.0566,-2.0566,-2.0566,-2.0566,-2.0566,-2.0566]}]]